     2.10           OBSERVATION DATA    G (GPS)             RINEX VERSION / TYPE
teqc 2005May6 SOPAC 20050707 00:19:54UTC                    PGM / RUN BY / DATE
Linux 2.4.20-8|Pentium IV|gcc|Linux|486/DX+                 COMMENT
BIT 2 OF LLI FLAGS DATA COLLECTED UNDER A/S CONDITION       COMMENT
Carpenter                                                   MARKER NAME
CRPT                                                        MARKER NUMBER
Ron Wroten                                                  OBSERVER / AGENCY
0220308727 TRIMBLE 5700 2.01                                REC # / TYPE / VERS
12471045 TRM41249.00 NONE                                   ANT # / TYPE
 -2561708.0000 -4165030.0000  4083600.0000                  APPROX POSITION XYZ
        2.0000        0.0000        0.0000                  ANTENNA: DELTA H/E/N
     1     1                                                WAVELENGTH FACT L1/2
     6    L1    L2    C1    P2    P1    D1                  # / TYPES OF OBSERV
    15.0000                                                 INTERVAL
Northern California Height Modernization 2004               COMMENT
                                                            COMMENT
SOPAC - Scripps Orbit and Permanent Array Center            COMMENT
IGPP - Institute of Geophysics and Planetary Physics        COMMENT
SIO - Scripps Institution of Oceanography                   COMMENT
UCSD - University of California, San Diego                  COMMENT
                                                            COMMENT
email: archive@gpsmail.ucsd.edu                             COMMENT
ftp://garner.ucsd.edu                                       COMMENT
http://sopac.ucsd.edu                                       COMMENT
                                                            COMMENT
                                                            COMMENT
Approximate Lat, Lon : 40.056, -121.597                     COMMENT
                                                            COMMENT
SNR is mapped to RINEX snr flag value [0-9]                 COMMENT
L1 & L2: 2-19 dBHz = 1, 20-27 dBHz = 2, 28-31 dBHz = 3      COMMENT
32-35 dBHz = 4, 36-38 dBHz = 5, 39-41 dBHz = 6              COMMENT
42-44 dBHz = 7, 45-48 dBHz = 8, >= 49 dBHz = 9              COMMENT
  2004     9     2    20    59   15.0000000     GPS         TIME OF FIRST OBS
                                                            END OF HEADER
 04  9  2 20 59 15.0000000  0  5G 1G13G16G20G23
     54110.97757     23286.19553  23360732.2974   23360733.5704
    -46196.80559
    -27343.47357                  20511880.6564   20511878.7704
     57982.90258
     24414.82452                  23099501.3674   23099499.0354

     79063.58657     39687.65252  23692739.7034   23692740.3014
     23074.55559
      7165.20756                  20878282.6094   20878278.6054

 04  9  2 20 59 30.0000000  0  6G 1G 8G13G16G20G23
     84041.10547     46608.31343  23366428.3204   23366428.8674
     -1995.3424
   -136952.32457    -94086.68052  23960595.4534   23960595.7814

    -71635.30949    -47165.68447  20507040.4384   20507038.1484
      1695.9004
     89179.20748     48723.62543  23105438.7734   23105436.0004
     -2079.7544
    124313.71147     74947.37242  23701351.2734   23701350.5204
     -3016.6754
     35402.81349     16771.62146  20880628.2504   20880624.2464
      -821.8844
 04  9  2 20 59 45.0000000  0  7G 1G 3G 8G13G16G20G23
    113943.76647     69909.04342  23372118.1644   23372118.7194
     -1993.5114
   -118987.06614                  23670117.711

   -190184.66047   -135566.38742  23950465.8054   23950466.4064
      3548.8224
    -97067.30949    -66982.82846  20502200.9304   20502198.4774
      1695.4674
    120378.43448     73034.68443  23111375.9144   23111373.4924
     -2079.9484
    169512.53147    110167.18842  23709951.3834   23709951.8984
     -3013.2554
     47744.75049     26388.70346  20882977.0474   20882972.8244
      -822.7964
 04  9  2 21  0  0.0000000  0  8G 1G 3G 8G13G16G20G23G27
    143885.91047     93240.50842  23377816.3834   23377817.1254
     -1996.1434
   -158454.590 4                  23662608.070
      2631.168
   -243397.98047   -177031.30942  23940339.8914   23940339.5634
      3547.5554
   -122425.57049    -86742.51647  20497375.4304   20497372.8874
      1690.5514
    151647.28948     97400.00443  23117325.2504   23117324.2114
     -2084.5904
    214726.82047    145399.00842  23718555.5004   23718556.1024
     -3014.2864
     60167.24249     36068.55546  20885340.9224   20885336.6844
      -828.1664
    -73814.77759    -56237.16855  22100162.9064   22100161.4534

 04  9  2 21  0 15.0000000  0  8G 1G 3G 8G13G16G20G23G27
    173891.21947    116621.18442  23383526.7274   23383528.0434
     -2000.3544
   -197823.789 4                  23655114.789
      2624.613
   -296568.44147   -218462.84042  23930221.2114   23930221.5314
      3544.6974
   -147686.18049   -106426.11347  20492568.1414   20492566.2974
      1684.0414
    183009.20748    121837.82843  23123293.1884   23123291.6914
     -2090.7954
    259979.96147    180661.10942  23727167.1724   23727167.8164
     -3016.8764
     72694.11749     45829.74246  20887724.5784   20887720.4144
      -835.1254
   -109460.12149    -84012.74645  22093379.5234   22093378.4144
      2376.3564
 04  9  2 21  0 30.0000000  0  8G 1G 3G 8G13G16G20G23G27
    203970.08647    140059.23442  23389250.1414   23389251.0044
     -2005.2584
   -237083.836 5                  23647645.867
      2617.336
   -349685.42647   -259852.67642  23920113.5554   23920113.4884
      3541.1324
   -172838.44149   -126025.27746  20487782.2274   20487779.8364
      1676.8174
    214474.46948    146356.18043  23129280.7424   23129279.6724
     -2097.6844
    305282.03947    215961.36342  23735788.8834   23735789.1054
     -3020.1394
     85335.89149     55680.46546  20890130.6484   20890126.3524
      -842.7854
   -145040.55549   -111737.75845  22086608.7664   22086607.4104
      2372.0294
 04  9  2 21  0 45.0000000  0  8G 1G 3G 8G13G16G20G23G27
    234126.96947    163558.05542  23394988.6414   23394989.2974
     -2010.4594
   -276229.797 4                  23640195.703
      2609.731
   -402744.55547   -301197.41442  23910016.3594   23910016.6644
      3537.2754
   -197877.65649   -145536.35546  20483017.0394   20483015.0164
      1669.2814
    246047.11748    170958.23043  23135288.4454   23135288.0664
     -2104.8434
    350637.19547    251302.94942  23744419.4384   23744420.2894
     -3023.6774
     98096.89149     65624.07846  20892558.6644   20892554.3324
      -850.7334
   -180551.74249   -139408.79745  22079851.6484   22079850.2074
      2367.4134
 04  9  2 21  1  0.0000000  0  8G 1G 3G 8G13G16G20G23G27
    264362.76647    187118.37142  23400742.6724   23400742.9454
     -2015.7204
   -315260.484 6                  23632769.266
      2602.046
   -455744.66847   -342496.17642  23899931.7194   23899932.0864
      3533.3414
   -222802.66449   -164958.43446  20478274.1414   20478271.8754
      1661.6674
    277727.78147    195644.43043  23141317.9844   23141316.3054
     -2112.0444
    396046.21147    286686.49642  23753059.6564   23753060.9884
     -3027.2684
    110978.22749     75661.46946  20895010.2974   20895005.9064
      -858.7564
   -215992.62549   -167025.07045  22073107.3984   22073105.6484
      2362.7264
 04  9  2 21  1 15.0000000  0  8G 1G 3G 8G13G16G20G23G27
    294676.96147    210739.77743  23406511.6414   23406511.9224
     -2020.9464
   -354175.809 5                  23625363.055
      2594.355
   -508686.14147   -383749.24642  23889856.6644   23889857.5554
      3529.4324
   -247613.66449   -184291.68447  20473552.9304   20473550.5164
      1654.0674
    309515.79747    220414.29343  23147366.5474   23147365.1884
     -2119.2014
    441508.15647    322111.31342  23761711.2034   23761711.9144
     -3030.7964
    123979.45749     85792.28546  20897483.9384   20897479.8204
      -866.7494
   -251363.72749   -194586.96145  22066376.2344   22066374.8054
      2358.0734
 04  9  2 21  1 30.0000000  0  8G 1G 3G 8G13G16G20G23G27
    325070.79347    234423.26643  23412294.8524   23412295.4454
     -2026.2554
   -392974.367 4                  23617979.430
      2586.571
   -561567.84047   -424955.73442  23879793.7814   23879794.4454
      3525.4474
   -272309.14149   -203534.90247  20468853.6254   20468851.0744
      1646.3654
    341412.06647    245268.51243  23153436.4384   23153435.0234
     -2126.4184
    487024.00047    357578.12542  23770372.6954   23770373.6564
     -3034.3904
    137101.76249     96017.43446  20899981.1174   20899976.8204
      -874.8204
   -286663.75049   -222093.45345  22059659.0234   22059657.3914
      2353.3354
 04  9  2 21  1 45.0000000  0  8G 1G 3G 8G13G16G20G23G27
    355544.55147    258169.01642  23418093.7814   23418094.8834
     -2031.5844
   -431655.508 5                  23610619.055
      2578.743
   -614389.28147   -466115.28142  23869741.7734   23869742.1174
      3521.4294
   -296888.71149   -222687.81646  20464176.2504   20464173.7974
      1638.6384
    373416.50448    270207.01243  23159526.8754   23159526.1054
     -2133.6294
    532593.76647    393086.94542  23779044.3834   23779045.7274
     -3037.9844
    150345.52349    106337.23046  20902501.5314   20902497.5164
      -882.9174
   -321892.32049   -249544.28545  22052955.0474   22052953.6724
      2348.5714
 04  9  2 21  2  0.0000000  0  8G 1G 3G 8G13G16G20G23G27
    386098.36747    281977.10942  23423908.1644   23423909.2194
     -2036.9214
   -470218.445 4                  23603280.734
      2570.863
   -667150.27047   -507227.72342  23859702.6094   23859702.5984
      3517.3994
   -321351.96949   -241750.09846  20459521.0084   20459518.2624
      1630.8844
    405529.20348    295229.87543  23165637.5784   23165636.2734
     -2140.8474
    578217.23447    428637.61742  23787726.0004   23787727.8984
     -3041.5654
    163710.98049    116751.86346  20905045.1254   20905040.7344
      -891.0304
   -357049.32849   -276939.35245  22046265.1484   22046263.5634
      2343.8014
 04  9  2 21  2 15.0000000  0  8G 1G 3G 8G13G16G20G23G27
    416728.20747    305844.48042  23429736.9304   23429737.6954
     -2041.9894
   -508666.883 4                  23595962.992
      2563.229
   -719854.39147   -548295.83242  23849672.5004   23849672.9384
      3513.6084
   -345702.54349   -260724.57846  20454886.9224   20454884.6294
      1623.3724
    437745.96147    320333.80942  23171767.8834   23171766.5944
     -2147.7844
    623890.23447    464226.88342  23796417.8284   23796419.0554
     -3044.8674
    177194.18449    127258.24246  20907610.5634   20907606.0234
      -898.8804
   -392138.65649   -304281.67645  22039587.9384   22039586.7504
      2339.2894
 04  9  2 21  2 30.0000000  0  8G 1G 3G 8G13G16G20G23G27
    447434.38347    329771.34442  23435579.8834   23435581.2234
     -2047.0784
   -546999.867 5                  23588670.625
      2555.532
   -772501.29347   -589319.37542  23839654.1334   23839653.8794
      3509.7934
   -369939.94949   -279610.86346  20450274.5704   20450272.1294
      1615.8274
    470066.63348    345518.71143  23177918.0314   23177916.9924
     -2154.7114
    669612.72347    499854.71942  23805118.2734   23805119.6684
     -3048.1664
    190795.43849    137856.60546  20910198.6954   20910194.0984
      -906.7504
   -427159.94949   -331570.98845  22032923.1884   22032921.8324
      2334.7534
 04  9  2 21  2 45.0000000  0  8G 1G 3G 8G13G16G20G23G27
    478215.07047    353756.20742  23441437.3834   23441438.5594
     -2052.0464
   -585219.117 4                  23581396.813
      2547.950
   -825092.88747   -630299.84042  23829646.3284   23829645.9574
      3506.1064
   -394065.90649   -298410.29746  20445683.5314   20445681.1994
      1608.3974
    502489.07448    370782.93443  23184089.0084   23184086.4654
     -2161.4964
    715382.60547    535519.45742  23813828.3754   23813829.1844
     -3051.3264
    204512.96949    148545.58646  20912809.0474   20912804.5664
      -914.5024
   -462115.11749   -358808.77745  22026271.3754   22026270.2664
      2330.3454
 04  9  2 21  3  0.0000000  0  8G 1G 3G 8G13G16G20G23G27
    509068.37147    377797.68442  23447309.2504   23447310.6334
     -2056.8874
   -623326.152 4                  23574144.172
      2540.469
   -877631.01647   -671238.59442  23819648.6094   23819648.7114
      3502.5424
   -418081.75449   -317123.95346  20441113.6094   20441111.2304
      1601.0574
    535011.33248    396124.93043  23190276.8524   23190275.5164
     -2168.1514
    761197.72347    571219.45742  23822547.2734   23822547.3404
     -3054.3414
    218344.87149    159323.68046  20915440.9064   20915436.9534
      -922.1274
   -497005.93049   -385996.41445  22019632.1484   22019631.0434
      2326.0544
 04  9  2 21  3 15.0000000  0  8G 1G 3G 8G13G16G20G23G27
    539993.06348    401894.82042  23453194.1724   23453195.3134
     -2061.6464
   -661321.617 4                  23566914.703
      2533.031
   -930116.71547   -712136.52042  23809660.8674   23809660.7544
      3499.0474
   -441988.69949   -335752.75446  20436564.4534   20436561.8634
      1593.7964
    567631.83648    421543.48842  23196484.0864   23196482.7624
     -2174.7004
    807056.64547    606953.60542  23831273.2344   23831274.2854
     -3057.2614
    232290.06649    170190.04346  20918094.8524   20918090.7424
      -929.6804
   -531833.56249   -413134.82445  22013005.0004   22013003.5434
      2321.8424
 04  9  2 21  3 30.0000000  0  8G 1G 3G 8G13G16G20G23G27
    570989.17647    426047.58243  23459091.7894   23459093.5904
     -2066.4084
   -699205.270 4                  23559705.711
      2525.577
   -982549.69147   -752993.41042  23799682.9924   23799682.6484
      3495.5324
   -465786.34449   -354296.36747  20432035.8984   20432033.4494
      1586.5104
    600350.45347    447038.49642  23202710.6804   23202708.8014
     -2181.2414
    852959.16847    642721.69142  23840008.6804   23840010.0234
     -3060.1684
    246348.68449    181144.79746  20920770.0704   20920765.8954
      -937.2414
   -566597.85949   -440223.87545  22006389.3594   22006388.0664
      2317.6204
 04  9  2 21  3 45.0000000  0  8G 1G 3G 8G13G16G20G23G27
    602054.46147    450254.23442  23465003.5704   23465004.1054
     -2071.0194
   -736978.785 5                  23552518.703
      2518.234
  -1034932.01247   -793810.75042  23789715.3364   23789714.9344
      3492.1554
   -489476.69149   -372756.37547  20427527.9304   20427525.2034
      1579.3574
    633164.60247    472607.94143  23208954.7114   23208953.0514
     -2187.6104
    898902.62547    678521.68842  23848751.7344   23848753.0664
     -3062.8974
    260518.44949    192186.16446  20923466.5864   20923462.3874
      -944.6514
   -601301.08249   -467265.34445  21999785.1334   21999784.4104
      2313.5484
 04  9  2 21  4  0.0000000  0  8G 1G 3G 8G13G16G20G23G27
    633192.42648    474517.55942  23470928.9384   23470930.1914
     -2075.8644
   -774638.250 4                  23545350.797
      2510.631
  -1087260.10247   -834585.88742  23779757.8594   23779757.2234
      3488.5394
   -513055.91449   -391129.79346  20423040.7894   20423038.0744
      1571.9484
    666077.54348    498254.37543  23215218.2894   23215217.2384
     -2194.1964
    944890.29347    714356.15642  23857503.2584   23857504.0664
     -3065.8454
    274802.99649    203316.96546  20926184.6644   20926180.7934
      -952.3034
   -635939.79749   -494256.53545  21993193.6254   21993192.9224
      2309.2484
 04  9  2 21  4 15.0000000  0  8G 1G 3G 8G13G16G20G23G27
    664396.56347    498832.42242  23476867.4064   23476868.3054
     -2080.2764
                                  23538205.094
      2503.028
  -1139540.32847   -875323.70342  23769809.0474   23769808.5124
      3485.3484
   -536530.35549   -409421.56646  20418573.6024   20418570.7584
      1564.9634
    699082.66048    523972.61743  23221498.9614   23221498.2544
     -2200.3414
    990915.48047    750219.86742  23866261.0234   23866263.0274
     -3068.3464
    289195.85549    214532.16046  20928923.8134   20928919.5704
      -959.5244
   -670520.15249   -521202.26645  21986613.5864   21986612.9064
      2305.3574
 04  9  2 21  4 30.0000000  0  8G 1G 3G 8G13G16G20G23G27
    695669.27347    523200.72342  23482818.4844   23482819.1094
     -2084.8474
   -849630.45314                  23531081.133
      2495.424
  -1191770.29347   -916022.38742  23759870.1954   23759869.7424
      3481.9984
   -559897.42249   -427629.66846  20414127.5004   20414124.3364
      1557.8044
    732181.87948    549764.19943  23227797.8054   23227796.5824
     -2206.6154
   1036980.34047    786114.44542  23875026.9774   23875028.7034
     -3070.9914
    303699.50049    225833.68846  20931683.8524   20931679.1604
      -966.9104
   -705039.90649   -548100.75445  21980044.6954   21980043.2194
      2301.3174
 04  9  2 21  4 45.0000000  0  8G 1G 3G 8G13G16G20G23G27
    727011.31347    547623.04742  23488782.3914   23488783.8404
     -2089.4694
   -886959.285 4                  23523976.422
      2488.589
  -1243949.01246   -956681.07042  23749940.1174   23749941.1644
      3478.5814
   -583156.05949   -445753.28546  20409701.2274   20409698.5394
      1550.5764
    765375.79348    575629.56643  23234114.5634   23234113.0394
     -2212.9284
   1083085.21547    822040.23042  23883799.9694   23883801.2234
     -3073.6584
    318314.64849    237222.09846  20934464.8754   20934460.6644
      -974.3434
   -739498.22749   -574951.39545  21973487.0784   21973485.8794
      2297.2214
 04  9  2 21  5  0.0000000  0  8G 1G 3G 8G13G16G20G23G27
    758421.90247    572098.77342  23494758.5944   23494760.1604
     -2094.0394
   -924176.457 4                  23516896.078
      2481.145
  -1296077.11347   -997300.35242  23740020.4844   23740021.3484
      3475.2074
   -606306.65249   -463792.69946  20405295.5554   20405293.0634
      1543.3734
    798663.39548    601567.94142  23240449.1334   23240447.5824
     -2219.1734
   1129229.18447    857996.49642  23892580.8914   23892582.5474
     -3076.2654
    333040.62949    248696.87546  20937267.2034   20937262.9964
      -981.7324
   -773895.87549   -601754.74245  21966941.4844   21966940.6024
      2293.1774
 04  9  2 21  5 15.0000000  0  8G 1G 3G 8G13G16G20G23G27
    789899.81647    596626.96942  23500749.2584   23500749.8554
     -2098.5284
   -961283.047 4                  23509835.852
      2473.773
  -1348155.82047  -1037881.16042  23730110.5554   23730111.3914
      3471.9144
   -629350.14149   -481748.67646  20400910.8674   20400908.4144
      1536.2334
    832043.30547    627578.23043  23246800.3054   23246799.6684
     -2225.3274
   1175410.73847    893982.02742  23901369.5164   23901370.8134
     -3078.7704
    347876.34849    260257.16046  20940090.4454   20940086.1294
      -989.0484
   -808233.87549   -628511.62545  21960407.3914   21960406.1954
      2289.2004
 04  9  2 21  5 30.0000000  0  8G 1G 3G 8G13G16G20G23G27
    821441.62547    621204.98442  23506750.8284   23506752.6254
     -2102.7874
                                  23502791.781
      2466.401
  -1400188.51247  -1078426.09042  23720208.9614   23720209.0434
      3468.8464
   -652289.90249   -499623.80547  20396545.6024   20396542.8014
      1529.3174
    865511.73048    653657.50042  23253169.8914   23253168.1804
     -2231.2284
   1221626.09447    929993.91042  23910164.3204   23910165.8554
     -3081.0244
    362818.17249    271900.14146  20942933.9064   20942929.6294
      -996.1224
   -842515.75849   -655224.76245  21953883.4924   21953883.0824
      2285.4594
 04  9  2 21  5 45.0000000  0  7G 1G 8G13G16G20G23G27
    853051.91447    645836.28142  23512766.3134   23512768.1024
     -2107.3534
  -1452170.36347  -1118931.39842  23710317.9924   23710317.7154
      3465.4574
   -675121.14549   -517414.38746  20392200.8834   20392198.2504
      1522.0834
    899073.02748    679809.16842  23259556.2814   23259553.9144
     -2237.4204
   1267879.53147    966035.45342  23918966.5634   23918967.1134
     -3083.5624
    377870.85549    283629.48846  20945798.1334   20945794.5084
     -1003.5124
   -876736.87949   -681890.56245  21947371.9694   21947370.7584
      2281.4084
 04  9  2 21  6  0.0000000  0  7G 1G 8G13G16G20G23G27
    884728.25447    670519.09442  23518794.7274   23518795.8754
     -2111.7564
  -1504103.56247  -1159398.80942  23700434.3204   23700434.5554
      3462.2134
   -697845.85249   -535121.94947  20387876.2504   20387874.2304
      1514.9804
    932724.44148    706031.04342  23265959.3444   23265957.7934
     -2243.4284
   1314168.44547   1002104.64842  23927774.3364   23927775.6134
     -3085.9284
    393032.09449    295443.42246  20948683.3054   20948679.2154
     -1010.7494
   -910899.57849   -708510.83645  21940870.7344   21940869.8364
      2277.5134
 04  9  2 21  6 15.0000000  0  7G 1G 8G13G16G20G23G27
    916471.24647    695253.82042  23524834.9614   23524836.9804
     -2116.1994
  -1555987.55547  -1199827.87142  23690561.2424   23690561.9654
      3458.9334
   -720463.23449   -552745.88347  20383572.1254   20383570.1024
      1507.8264
    966466.46947    732323.50842  23272380.7194   23272378.7304
     -2249.4684
   1360493.23447   1038201.81642  23936590.5004   23936591.1804
     -3088.3194
    408302.57449    307342.48446  20951588.9304   20951585.1214
     -1018.0324
   -945003.18049   -735085.05945  21934380.7274   21934380.2544
      2273.5734
 04  9  2 21  6 30.0000000  0  7G 1G 8G13G16G20G23G27
    948278.59047    720038.72342  23530887.9064   23530889.3364
     -2120.4904
  -1607824.53946  -1240220.28143  23680697.2734   23680698.2504
      3455.7994
   -742975.28149   -570287.73446  20379288.6644   20379286.4264
      1500.8034
   1000296.61347    758684.63342  23278817.7504   23278816.8284
     -2255.3434
   1406851.34847   1074324.92242  23945411.7504   23945413.2424
     -3090.5414
    423680.07849    319324.93846  20954515.3054   20954511.6174
     -1025.1674
   -979049.84849   -761614.91045  21927901.9614   21927900.7384
      2269.7784
 04  9  2 21  6 45.0000000  0  7G 1G 8G13G16G20G23G27
    980150.63747    744874.03142  23536953.3524   23536954.5944
     -2124.8034
  -1659614.04347  -1280575.71142  23670842.0784   23670841.9104
      3452.6344
   -765381.43749   -587747.07847  20375025.1884   20375022.5824
      1493.7444
   1034214.84848    785114.41442  23285272.6954   23285271.1644
     -2261.2164
   1453242.79347   1110474.02342  23954239.5704   23954241.5554
     -3092.7634
    439164.90649    331391.02746  20957461.8444   20957457.7814
     -1032.3224
  -1013039.32849   -788100.21545  21921434.2424   21921432.9144
      2265.9654
 04  9  2 21  7  0.0000000  0  7G 1G 8G13G16G20G23G27
   1012087.35947    769759.70742  23543031.4844   23543032.9534
     -2129.1154
  -1711355.86746  -1320893.99242  23660995.5784   23660995.8244
      3449.4554
   -787681.47349   -605123.71947  20370781.2344   20370778.6954
      1486.6694
   1068220.90248    811612.63342  23291743.4224   23291742.4694
     -2267.0704
   1499667.37546   1146648.93042  23963074.0704   23963076.0394
     -3094.9724
    454757.07849    343540.75046  20960429.3054   20960425.6374
     -1039.4784
  -1046971.44549   -814540.81245  21914977.1334   21914975.6374
      2262.1414
 04  9  2 21  7 15.0000000  0  7G 1G 8G13G16G20G23G27
   1044087.64847    794694.95342  23549120.1564   23549121.3984
     -2133.3534
  -1763050.90247  -1361175.81243  23651159.0784   23651158.3284
      3446.3364
   -809876.04749   -622418.19147  20366557.8834   20366555.2504
      1479.6384
   1102313.52348    838178.28942  23298231.7664   23298229.4024
     -2272.8414
   1546123.57047   1182848.48042  23971914.4064   23971916.8484
     -3097.0804
    470455.67249    355773.40646  20963416.5234   20963412.6484
     -1046.5734
  -1080847.34049   -840937.60945  21908530.7194   21908529.0904
      2258.3934
 04  9  2 21  7 30.0000000  0  7G 1G 8G13G16G20G23G27
   1076148.48047    819677.39142  23555221.3754   23555221.5394
     -2137.3894
  -1814702.18446  -1401423.52342  23641329.6024   23641329.5744
      3443.4194
   -831968.10549   -639632.78147  20362353.7584   20362351.7344
      1472.8044
   1136489.35547    864808.78542  23304734.8984   23304732.9804
     -2278.3894
   1592608.22746   1219070.16442  23980759.7344   23980762.7624
     -3098.9774
    486257.57449    368086.57446  20966423.7974   20966419.6294
     -1053.4604
  -1114669.82849   -867292.78145  21902094.0084   21902093.4344
      2254.8334
 04  9  2 21  7 45.0000000  0  7G 1G 8G13G16G20G23G27
   1108271.48847    844708.24242  23561333.7664   23561335.6254
     -2141.5344
  -1866307.80946  -1441635.69942  23631510.0394   23631509.1174
      3440.3754
   -853955.80149   -656766.05147  20358169.6954   20358167.1764
      1465.8464
   1170749.88747    891505.28942  23311254.5084   23311252.6214
     -2284.0354
   1639122.73446   1255315.11742  23989611.5944   23989614.1484
     -3100.9674
    502164.62549    380481.66846  20969450.8674   20969446.6954
     -1060.4704
  -1148437.39849   -893605.16445  21895668.3054   21895667.4264
      2251.1714
 04  9  2 21  8  0.0000000  0  7G 1G 8G13G16G20G23G27
   1140456.99647    869787.80942  23567458.9384   23567458.8984
     -2145.7014
  -1917867.44947  -1481811.98842  23621697.7194   23621698.1054
      3437.3094
   -875838.52349   -673817.52347  20354005.6484   20354003.2704
      1458.8484
   1205095.14548    918267.78942  23317790.3674   23317788.1844
     -2289.6844
   1685667.07047   1291583.33642  23998469.0394   23998470.1914
     -3102.9564
    518177.14849    392958.94146  20972497.5084   20972493.7894
     -1067.5024
  -1182149.59049   -919874.37945  21889253.3364   21889251.8874
      2247.4794
 04  9  2 21  8 15.0000000  0  7G 1G 8G13G16G20G23G27
   1172703.19147    894914.65242  23573595.3914   23573596.2584
     -2149.7464
  -1969382.59446  -1521953.66442  23611895.0164   23611894.5314
      3434.3434
   -897617.69149   -690788.30547  20349860.9614   20349858.5944
      1451.9454
   1239522.96947    945094.67642  23324341.5234   23324339.7034
     -2295.1884
   1732239.14546   1327873.18842  24007331.6804   24007332.0474
     -3104.8054
    534293.31349    405516.97346  20975564.6884   20975560.5554
     -1074.4114
  -1215808.17249   -946101.84445  21882848.2034   21882847.4224
      2243.9054
 04  9  2 21  8 30.0000000  0  7G 1G 8G13G16G20G23G27
   1205011.77047    920090.12142  23579743.7974   23579744.1334
     -2153.9054
  -2020851.63347  -1562059.37142  23602100.2194   23602100.9924
      3431.2694
   -919291.33249   -707676.85547  20345736.7894   20345734.3954
      1444.9094
   1274034.97748    971987.13742  23330909.3524   23330907.4884
     -2300.8014
   1778840.44146   1364185.78942  24016199.5634   24016200.7974
     -3106.7534
    550514.91449    418157.17646  20978651.0634   20978647.1644
     -1081.4404
  -1249411.39149   -972286.15245  21876453.5084   21876452.6174
      2240.2154
 04  9  2 21  8 45.0000000  0  7G 1G 8G13G16G20G23G27
   1237378.53147    945310.93042  23585902.2894   23585903.4964
     -2157.7844
  -2072278.63347  -1602132.30543  23592314.1954   23592314.8404
      3428.4674
   -940863.56249   -724486.37947  20341631.4224   20341628.8594
      1438.1494
   1308626.68048    998941.67642  23337491.7194   23337489.8324
     -2306.1144
   1825466.53546   1400517.71942  24025072.0864   24025073.2234
     -3108.4064
    566837.78949    430876.28546  20981757.4924   20981753.4694
     -1088.1924
  -1282963.34049   -998430.52045  21870069.1094   21870067.7304
      2236.7974
 04  9  2 21  9  0.0000000  0  7G 1G 8G13G16G20G23G27
   1269807.35546    970580.09442  23592072.8594   23592074.4734
     -2161.9224
  -2123659.60947  -1642169.41442  23582536.9924   23582536.9184
      3425.3984
   -962330.30549   -741213.71147  20337546.3914   20337544.3134
      1431.1164
   1343301.60548   1025961.07042  23344089.8204   23344089.6214
     -2311.6624
   1872121.06646   1436871.79742  24033950.1024   24033951.0864
     -3110.3024
    583265.74249    443677.27346  20984883.3674   20984879.2464
     -1095.1974
  -1316460.18749  -1024531.93745  21863694.6954   21863693.8134
      2233.1234
 04  9  2 21  9 15.0000000  0  7G 1G 8G13G16G20G23G27
   1302299.45745    995898.55542  23598255.6884   23598257.8634
     -2166.1404
  -2174993.13747  -1682169.54742  23572768.7034   23572768.8794
      3422.2354
   -983689.90249   -757857.54747  20333482.0394   20333479.6604
      1423.9734
   1378060.87147   1053046.18443  23350704.6804   23350703.5204
     -2317.2844
   1918804.91046   1473248.75842  24042833.1334   24042835.1174
     -3112.2564
    599800.19949    456561.25046  20988029.8754   20988025.3594
     -1102.2974
  -1349900.55549  -1050589.35945  21857331.5164   21857330.5634
      2229.3584
 04  9  2 21  9 30.0000000  0  7G 1G 8G13G16G20G23G27
   1334851.43046   1021263.65242  23604450.8674   23604452.4844
     -2170.1324
  -2226282.51647  -1722135.28142  23563008.1094   23563008.7584
      3419.2924
  -1004945.48049   -774420.34846  20329436.8984   20329435.0004
      1417.0394
   1412900.78148   1080194.13743  23357334.7974   23357333.1914
     -2322.6614
   1965514.35545   1509645.61742  24051723.0554   24051723.9534
     -3113.9634
    616437.83649    469525.64546  20991195.9454   20991191.7424
     -1109.1764
  -1383287.78149  -1076605.35945  21850978.1954   21850976.9144
      2225.8154
 04  9  2 21  9 45.0000000  0  7G 1G 8G13G16G20G23G27
   1367461.99247   1046674.43042  23610656.1954   23610658.2584
     -2174.0374
  -2277528.91847  -1762067.49243  23553256.7814   23553257.0394
      3416.4274
  -1026098.21949   -790902.99246  20325411.7034   20325409.7504
      1410.1834
   1447819.80948   1107403.77343  23363979.4774   23363977.4104
     -2327.9354
   2012248.09445   1546061.37142  24060614.8834   24060616.4414
     -3115.5834
    633177.28949    482569.35546  20994381.7274   20994377.0864
     -1115.9644
  -1416623.11749  -1102580.93745  21844634.8134   21844633.6644
      2222.3564
 04  9  2 21 10  0.0000000  0  7G 1G 8G13G16G20G23G27
   1400133.46147   1072132.65242  23616874.2974   23616875.8054
     -2178.0984
  -2328729.87146  -1801964.32043  23543513.7194   23543513.8094
      3413.3974
  -1047145.41849   -807303.40247  20321406.7894   20321404.8094
      1403.1474
   1482819.95348   1134676.59042  23370640.0394   23370638.3054
     -2333.3434
   2059007.97346   1582497.53142  24069514.0004   24069514.2544
     -3117.3254
    650021.01249    495694.32046  20997586.6174   20997582.3244
     -1122.9154
  -1449904.21549  -1128514.24645  21838301.4534   21838300.1174
      2218.7404
 04  9  2 21 10 15.0000000  0  7G 1G 8G13G16G20G23G27
   1432861.70346   1097635.16042  23623101.9304   23623104.2584
     -2181.8834
  -2379889.27747  -1841828.77343  23533778.1954   23533778.1414
      3410.6274
  -1068090.86749   -823624.53547  20317420.9144   20317418.9104
      1396.3634
   1517896.97348   1162009.31642  23377314.8204   23377312.6334
     -2338.4684
   2105789.69546   1618950.75842  24078415.3134   24078416.5944
     -3118.7824
    666964.97749    508897.39846  21000810.9454   21000807.4104
     -1129.5984
  -1483135.00849  -1154408.35545  21831977.7894   21831976.4884
      2215.3864
 04  9  2 21 10 30.0000000  0  8G 1G 3G 8G13G16G20G23G27
   1465649.73846   1123184.20342  23629341.7584   23629342.9024
     -2185.8694
    -37604.65614                  23366398.617

  -2431004.20747  -1881658.54742  23524051.4304   23524051.6374
      3407.6624
  -1088931.54349   -839864.02347  20313455.3134   20313453.1844
      1389.3784
   1553053.48848   1189403.98442  23384005.0704   23384002.9734
     -2343.7684
   2152595.85545   1655422.96541  24087322.5084   24087323.2504
     -3120.4114
    684012.00849    522180.78146  21004055.0784   21004051.2194
     -1136.4694
  -1516312.73849  -1180261.13345  21825664.1724   21825662.4884
      2211.8494
 04  9  2 21 10 45.0000000  0  8G 1G 3G 8G13G16G20G23G27
   1498495.37146   1148778.14842  23635591.2894   23635592.2504
     -2189.7094
    -72285.223 4                  23359800.438
      2312.038
  -2482076.65247  -1921455.23443  23514332.2424   23514332.8054
      3404.8304
  -1109669.29349   -856023.31247  20309509.2034   20309506.5394
      1382.5174
   1588287.09847   1216858.71142  23390709.3364   23390707.7544
     -2348.9074
   2199424.12946   1691912.43041  24096232.9844   24096234.5824
     -3121.8854
    701160.06649    535542.88746  21007318.3054   21007313.9614
     -1143.2044
  -1549439.46149  -1206074.15246  21819360.4694   21819359.0704
      2208.4484
 04  9  2 21 11  0.0000000  0  8G 1G 3G 8G13G16G20G23G27
   1531398.55147   1174416.94142  23641852.9534   23641853.9224
     -2193.5454
                                  23353217.633
      4624.076
  -2533106.63347  -1961218.82043  23504621.5784   23504622.6564
      3401.9994
  -1130303.91849   -872102.23846  20305582.3134   20305579.8054
      1375.6424
   1623597.56347   1244373.34842  23397428.6724   23397427.0084
     -2354.0314
   2246274.20346   1728418.90641  24105148.9304   24105149.5824
     -3123.3384
    718409.09449    548983.69146  21010600.8754   21010596.4964
     -1149.9354
  -1582514.95749  -1231847.25445  21813066.3054   21813064.9774
      2205.0334
 04  9  2 21 11 15.0000000  0  8G 1G 3G 8G13G16G20G23G27
   1564359.52746   1200100.75042  23648125.2814   23648126.9924
     -2197.3984
   -141315.14813                  23346659.484
      6936.113
  -2584093.53547  -2000948.82443  23494919.0394   23494919.3554
      3399.1274
  -1150834.84449   -888100.35547  20301675.6724   20301672.8134
      1368.7284
   1658984.93447   1271947.89142  23404163.2584   23404161.1454
     -2359.1584
   2293146.14146   1764942.37142  24114069.1564   24114069.1954
     -3124.7964
    735759.53149    562503.49246  21013902.1884   21013897.9304
     -1156.6964
  -1615539.05549  -1257580.30145  21806782.1254   21806780.7074
      2201.6074
 04  9  2 21 11 30.0000000  0  8G 1G 3G 8G13G16G20G23G27
   1597377.94146   1225829.32442  23654408.9924   23654410.0234
     -2201.2284
   -175663.746 2                  23340123.609
      2289.907
  -2635037.58647  -2040645.47743  23485224.6804   23485224.3364
      3396.2704
  -1171262.07449   -904017.67247  20297788.3284   20297785.6954
      1361.8154
   1694448.51247   1299581.84042  23410911.6644   23410910.0044
     -2364.2394
   2340039.26246   1801482.36742  24122993.4614   24122993.0204
     -3126.2084
    753211.03949    576102.06346  21017223.2894   21017219.5514
     -1163.4344
  -1648511.98049  -1283273.47345  21800507.5944   21800506.2774
      2198.1954
 04  9  2 21 11 45.0000000  0  8G 1G 3G 8G13G16G20G23G27
   1630454.71947   1251603.38342  23660702.7034   23660703.9104
     -2205.1184
                                  23333609.555
     -2356.300
  -2685937.98847  -2080308.11743  23475538.5944   23475538.6214
      3393.3604
  -1191584.59449   -919853.39847  20293920.9694   20293918.4924
      1354.8354
   1729989.06647   1327275.74642  23417674.8984   23417672.4144
     -2369.3704
   2386954.17247   1838039.34842  24131920.6804   24131921.3594
     -3127.6614
    770764.62949    589780.17646  21020563.6174   21020559.2234
     -1170.2394
  -1681432.74249  -1308926.00045  21794242.5084   21794241.9024
      2194.7174
 04  9  2 21 12  0.0000000  0  8G 1G 3G 8G13G16G20G23G27
   1663589.57446   1277422.71142  23667007.3594   23667008.8284
     -2208.9904
   -244023.73413                  23327115.852
     -7002.507
  -2736794.87547  -2119936.82843  23465860.9844   23465860.9884
      3390.4594
  -1211802.44949   -935607.57847  20290073.6724   20290071.3444
      1347.8574
   1765606.17248   1355029.32442  23424452.5164   23424451.1054
     -2374.4744
   2433890.38346   1874612.91842  24140852.1174   24140854.2114
     -3129.0814
    788419.96149    603537.55546  21023923.1484   21023919.5474
     -1177.0224
  -1714301.60249  -1334538.09445  21787988.0634   21787987.0044
      2191.2574
 04  9  2 21 12 15.0000000  0  8G 1G 3G 8G13G16G20G23G27
   1696777.83646   1303283.64542  23673323.4534   23673323.5594
     -2212.5514
   -278039.402 3                  23320644.469
      2267.711
  -2787612.52047  -2159534.94943  23456190.3914   23456190.4534
      3387.8434
  -1231919.97349   -951283.57047  20286245.4534   20286243.3284
      1341.1684
   1801294.66847   1382838.51242  23431243.1884   23431242.0904
     -2379.2334
   2480842.98446   1911199.23442  24149787.3674   24149788.9534
     -3130.1734
    806172.43449    617370.63346  21027301.8444   21027297.5514
     -1183.4984
  -1747123.17249  -1360113.31645  21781742.4924   21781741.1374
      2188.1054
 04  9  2 21 12 30.0000000  0  8G 1G 3G 8G13G16G20G23G27
   1730019.56647   1329186.23442  23679649.7274   23679649.6214
     -2216.1154
   -311946.406 3                  23314190.148
      2260.467
  -2838390.72347  -2199102.38742  23446528.3754   23446527.4494
      3385.2144
  -1251936.74249   -966881.04747  20282436.4534   20282433.9454
      1334.4514
   1837054.59847   1410703.37142  23438048.3984   23438046.6994
     -2383.9954
   2527811.86746   1947798.25842  24158725.3284   24158726.7274
     -3131.2594
    824022.23849    631279.56646  21030698.3284   21030693.7584
     -1189.9874
  -1779897.23449  -1385651.55545  21775505.3284   21775503.6804
      2184.9384
 04  9  2 21 12 45.0000000  0  7G 1G 8G13G16G20G23G27
   1763316.72346   1355132.01642  23685986.3834   23685986.1484
     -2219.8104
  -2889127.61747  -2238637.60942  23436872.5474   23436872.2504
      3382.4604
  -1271850.62549   -982398.36347  20278647.2504   20278644.5944
      1327.5924
   1872887.60947   1438625.16842  23444867.6414   23444866.1254
     -2388.8674
   2574798.65247   1984411.23842  24167666.7974   24167668.3914
     -3132.4524
    841971.26249    645265.79746  21034113.5784   21034109.8364
     -1196.6024
  -1812621.83249  -1411151.22745  21769278.6254   21769276.6994
      2181.6404
 04  9  2 21 13  0.0000000  0  7G 1G 8G13G16G20G23G27
   1796669.29746   1381120.98442  23692332.5784   23692333.4964
     -2223.5054
  -2939822.87547  -2278140.40642  23427225.8754   23427225.8874
      3379.6844
  -1291661.33649   -997835.27347  20274876.9614   20274874.7464
      1320.7144
   1908793.53547   1466603.78942  23451699.4694   23451699.3874
     -2393.7284
   2621803.19147   2021038.09042  24176611.5234   24176612.8554
     -3133.6364
    860019.67249    659329.46946  21037548.1024   21037544.4884
     -1203.2274
  -1845296.74249  -1436612.19545  21763060.3834   21763058.5434
      2178.3274
 04  9  2 21 13 15.0000000  0  7G 1G 8G13G16G20G23G27
   1830077.39846   1407153.19142  23698690.6334   23698691.5314
     -2227.2074
  -2990476.35247  -2317610.62943  23417587.0474   23417586.7934
      3376.8984
  -1311368.52049  -1013191.52347  20271127.1954   20271124.4654
      1313.8124
   1944772.13747   1494639.02742  23458546.2664   23458545.2974
     -2398.5734
   2668825.28947   2057678.59442  24185559.0864   24185560.7194
     -3134.8074
    878167.51649    673470.62946  21041001.7664   21040997.9574
     -1209.8564
  -1877922.05549  -1462034.50045  21756852.3204   21756850.5634
      2175.0214
 04  9  2 21 13 30.0000000  0  7G 1G 8G13G16G20G23G27
   1863540.35546   1433228.16842  23705057.7504   23705059.6414
     -2230.8644
  -3041088.45347  -2357048.59442  23407955.2194   23407955.1254
      3374.1404
  -1330972.52749  -1028467.37547  20267396.4534   20267393.8524
      1306.9344
   1980822.62947   1522730.32042  23465406.6484   23465404.8404
     -2403.3664
   2715864.11347   2094332.10542  24194510.2114   24194512.0124
     -3135.9224
    896414.30549    687688.88346  21044473.6564   21044469.9964
     -1216.4534
  -1910498.17649  -1487418.48445  21750652.8524   21750651.5744
      2171.7414
 04  9  2 21 13 45.0000000  0  8G 1G 3G 8G13G16G20G23G27
   1897052.64546   1459341.55142  23711435.0314   23711436.7154
     -2234.1534
    -45846.29714                  23282245.977

  -3091664.76247  -2396458.67642  23398331.1334   23398331.5664
      3371.7544
  -1350478.68449  -1043666.98447  20263684.2274   20263681.6604
      1300.4104
   2016939.13347   1550873.02342  23472279.6024   23472277.9694
     -2407.7674
   2762913.78547   2130994.04742  24203463.4924   24203464.7974
     -3136.6454
    914754.36349    701979.82846  21047964.0784   21047959.7074
     -1222.6714
  -1943030.62949  -1512768.44145  21744461.9304   21744461.1914
      2168.8304
 04  9  2 21 14  0.0000000  0  7G 1G 3G 8G13G16G23G27
   1930619.39146   1485497.38742  23717822.6254   23717824.1524
     -2237.7834
    -79089.266 4                  23275918.195
      2216.198
  -3142200.14548  -2435836.87942  23388714.8984   23388714.8444
      3369.0264
  -1369881.64849  -1058786.16447  20259992.3674   20259989.4454
      1293.5314
   2053126.54747   1579070.99242  23479165.4384   23479164.4344
     -2412.4944
    933192.96149    716347.55546  21051473.1414   21051468.2464
     -1229.2404
  -1975514.30549  -1538080.38745  21738280.9384   21738280.1684
      2165.5784
 04  9  2 21 14 15.0000000  0  7G 1G 3G 8G13G16G23G27
   1964239.97346   1511695.21142  23724220.2734   23724221.7344
     -2241.3724
   -112220.398 4                  23269613.633
      2208.742
  -3192694.83647  -2475183.35542  23379105.6954   23379105.6414
      3366.3134
  -1389181.69949  -1073825.16847  20256319.7034   20256316.7504
      1286.6704
   2089384.27747   1607323.71542  23486065.4144   23486064.2854
     -2417.1824
    951729.69549    730791.75046  21055000.0784   21054996.1684
     -1235.7824
  -2007949.52349  -1563354.57845  21732108.7034   21732107.5044
      2162.3484
 04  9  2 21 14 30.0000000  0  7G 1G 3G 8G13G16G23G27
   1997917.62546   1537937.50442  23730627.5554   23730630.0594
     -2245.1774
   -145236.105 5                  23263333.805
      2201.047
  -3243145.53147  -2514495.55942  23369504.9924   23369505.5904
      3363.3804
  -1408375.44149  -1088781.32846  20252667.3364   20252664.6914
      1279.5834
   2125714.92247   1635633.29342  23492979.1174   23492977.5164
     -2422.0434
    970367.66049    745314.81645  21058547.0314   21058542.6524
     -1242.5314
  -2040333.21149  -1588588.60945  21725946.3054   21725944.9224
      2158.9134
 04  9  2 21 14 45.0000000  0  7G 1G 3G 8G13G16G23G27
   2031646.74246   1564219.89842  23737047.0704   23737048.6564
     -2248.6084
   -178141.598 5                  23257070.500
      2193.699
  -3293557.82848  -2553777.86743  23359912.1024   23359912.1724
      3360.8204
  -1427467.99649  -1103658.64847  20249034.0784   20249031.5474
      1272.8374
   2162112.85248   1663995.30542  23499905.5164   23499903.5554
     -2426.5294
    989101.31349    759912.46546  21062111.9844   21062107.5234
     -1248.9104
  -2072670.82449  -1613786.74245  21719792.6644   21719791.2704
      2155.8414
 04  9  2 21 15  0.0000000  0  7G 1G 3G 8G13G16G23G27
   2065429.48445   1590544.03942  23743476.1094   23743477.8794
     -2252.1834
   -210934.320 4                  23250829.594
      2186.182
  -3343929.30148  -2593028.31643  23350326.9534   23350327.0124
      3358.0984
  -1446457.18049  -1118455.41846  20245420.1724   20245417.6134
      1265.9464
   2198580.13747   1692411.34042  23506844.3054   23506843.0004
     -2431.1524
   1007932.92649    774586.43046  21065695.3134   21065690.5124
     -1255.4414
  -2104960.12149  -1638947.22345  21713648.2114   21713646.9414
      2152.6204
 04  9  2 21 15 15.0000000  0  7G 1G 3G 8G13G16G23G27
   2099267.10546   1616910.93442  23749915.2584   23749917.1134
     -2255.8414
   -243612.54314                  23244608.656
      2178.664
  -3394258.48048  -2632245.83242  23340749.5164   23340748.9614
      3355.2794
  -1465341.39849  -1133170.39847  20241827.0004   20241824.0234
      1258.9484
   2235117.59447   1720882.08242  23513797.8444   23513796.2194
     -2435.8304
   1026863.74249    789337.69945  21069298.0944   21069293.4414
     -1262.0544
  -2137199.73849  -1664068.99245  21707513.0634   21707512.0554
      2149.3084
 04  9  2 21 15 30.0000000  0  7G 1G 3G 8G13G16G23G27
   2133157.00046   1643318.56342  23756364.1804   23756366.3554
     -2259.3264
   -276178.582 4                  23238413.445
      2171.069
  -3444547.75447  -2671432.25842  23331179.2194   23331178.4694
      3352.6184
  -1484122.87149  -1147805.31247  20238252.8674   20238250.3284
      1252.0984
   2271722.53947   1749405.37142  23520763.4694   23520761.7154
     -2440.3304
   1045891.27349    804164.33645  21072918.6954   21072913.7424
     -1268.5024
  -2169392.10549  -1689153.94545  21701386.9304   21701385.6214
      2146.1584
 04  9  2 21 15 45.0000000  0  7G 1G 3G 8G13G16G23G27
   2167101.73047   1669768.96942  23762823.9534   23762825.1644
     -2262.9824
   -308629.488 4                  23232237.930
      2163.394
  -3494794.59048  -2710585.60543  23321618.2814   23321617.8714
      3349.7894
  -1502798.89849  -1162358.06246  20234699.2664   20234696.2344
      1245.0684
   2308397.20747   1777983.03942  23527742.5164   23527740.3284
     -2444.9784
   1065018.08649    819068.33646  21076558.0944   21076554.4024
     -1275.1214
  -2201534.80149  -1714200.19545  21695270.9384   21695268.8554
      2142.8464
 04  9  2 21 16  0.0000000  0  7G 1G 3G 8G13G16G23G27
   2201098.75847   1696260.06642  23769293.6644   23769294.6254
     -2266.4684
   -340967.320 5                  23226084.563
      2155.855
  -3545001.37148  -2749707.75043  23312064.1254   23312064.0904
      3347.1194
  -1521371.64149  -1176830.32046  20231164.7194   20231161.9844
      1238.1834
   2345138.89547   1806612.87942  23534734.1954   23534732.0164
     -2449.4464
   1084241.64549    834047.71145  21080216.3364   21080212.4384
     -1281.5714
  -2233630.13349  -1739209.53145  21689162.7344   21689161.4844
      2139.6894
 04  9  2 21 16 15.0000000  0  7G 1G 3G 8G13G16G23G27
   2235146.22747   1722790.50842  23775772.3524   23775774.6094
     -2269.8314
   -373193.645 5                  23219952.031
      2148.422
  -3595169.62148  -2788799.89143  23302517.4534   23302517.3244
      3344.5504
  -1539842.74249  -1191223.39847  20227649.7814   20227647.3164
      1231.4074
   2381945.52347   1835293.34842  23541737.7734   23541735.9384
     -2453.7754
   1103560.11749    849101.04746  21083893.0164   21083888.3594
     -1287.8984
  -2265679.94149  -1764183.39845  21683064.0474   21683062.7624
      2136.6544
 04  9  2 21 16 30.0000000  0  7G 1G 3G 8G13G16G23G27
   2269241.65247   1749358.30943  23782261.1024   23782262.5664
     -2273.0284
   -405310.570 5                  23213841.500
      2141.128
  -3645302.08248  -2827864.08643  23292977.5554   23292977.9024
      3342.1644
  -1558214.55549  -1205539.09847  20224153.6644   20224150.9964
      1224.7884
   2418814.37547   1864022.30142  23548753.7424   23548752.5004
     -2457.9234
   1122971.13749    864226.50046  21087586.4844   21087582.6414
     -1294.0684
  -2297686.62548  -1789123.66045  21676973.4924   21676972.3164
      2133.7794
 04  9  2 21 16 45.0000000  0  7G 1G 3G 8G13G16G23G27
   2303390.21546   1775967.51242  23788759.3754   23788761.6724
     -2276.5714
   -437312.430 5                  23207750.898
      2133.457
  -3695393.18048  -2866896.09843  23283445.4064   23283445.7274
      3339.4074
  -1576481.63349  -1219773.18047  20220677.6174   20220674.5164
      1217.8054
   2455750.38747   1892803.56342  23555783.0474   23555781.1414
     -2462.4014
   1142479.91849    879428.12945  21091298.9614   21091294.4384
     -1300.5854
  -2329644.97349  -1814026.26646  21670891.5634   21670890.3444
      2130.5574
 04  9  2 21 17  0.0000000  0  7G 1G 3G 8G13G16G23G27
   2337588.54746   1802615.51242  23795266.4224   23795269.7934
     -2279.8894
   -469202.277 5                  23201682.086
      2125.990
  -3745446.46548  -2905898.62943  23273920.9384   23273920.8094
      3336.8864
  -1594646.91449  -1233927.94146  20217220.9924   20217218.0634
      1211.0194
   2492749.90247   1921634.33642  23562823.6954   23562821.8954
     -2466.6344
   1162083.04749    894703.28145  21095029.2034   21095025.5044
     -1306.8754
  -2361558.32449  -1838893.80945  21664819.0864   21664817.7584
      2127.5574
 04  9  2 21 17 15.0000000  0  7G 1G 3G 8G13G16G23G27
   2371836.81347   1829302.41442  23801784.1564   23801785.8754
     -2283.2184
   -500979.516 6                  23195635.750
      2118.483
  -3795461.40248  -2944871.28543  23264403.2894   23264402.4264
      3334.3294
  -1612709.94949  -1248003.03146  20213783.5084   20213780.7234
      1204.2024
   2529812.84847   1950514.57042  23569875.6484   23569874.3094
     -2470.8634
   1181780.98449    910052.29746  21098777.7274   21098773.7584
     -1313.1964
  -2393426.35949  -1863726.02746  21658754.6174   21658753.7194
      2124.5364
 04  9  2 21 17 30.0000000  0  7G 1G 3G 8G13G16G23G27
   2406134.93046   1856028.16442  23808310.3834   23808312.4774
     -2286.5414
   -532643.832 6                  23189608.969
      2110.954
  -3845437.80948  -2983813.92243  23254892.8984   23254893.4184
      3331.7604
  -1630670.55549  -1261998.31247  20210365.5704   20210363.0274
      1197.3744
   2566938.99247   1979444.01242  23576940.5234   23576939.1334
     -2475.0764
   1201573.54749    925475.06646  21102543.8204   21102539.9884
     -1319.5044
  -2425248.96549  -1888522.85546  21652699.1954   21652697.8524
      2121.5074
 04  9  2 21 17 45.0000000  0  7G 1G 3G 8G13G16G23G27
   2440484.13347   1882793.73442  23814847.2504   23814848.9964
     -2289.9474
   -564193.72347  -1416054.44552  23183605.4924   23183601.1644
      2103.3264
  -3895374.44147  -3022725.53942  23245389.3594   23245389.8674
      3329.1094
  -1648527.38749  -1275912.72747  20206967.7274   20206965.3284
      1190.4554
   2604129.28947   2008423.41442  23584017.8984   23584016.5784
     -2479.3534
   1221461.97349    940972.52745  21106328.8754   21106324.5204
     -1325.8954
  -2457025.08249  -1913283.44945  21646652.0004   21646651.4304
      2118.4084
 04  9  2 21 18  0.0000000  0  7G 1G 3G 8G13G16G23G27
   2474885.77346   1909600.12942  23821394.1564   23821395.6094
     -2293.4434
   -595627.43747  -1440548.22742  23177625.1884   23177623.1174
      2095.5814
  -3945269.89548  -3061605.09842  23235894.9454   23235895.0084
      3326.3644
  -1666278.83649  -1289745.02347  20203589.7194   20203587.2384
      1183.4304
   2641384.80547   2037453.67242  23591107.9144   23591106.6334
     -2483.7014
   1241447.60549    956545.73845  21110131.8134   21110127.7304
     -1332.3764
  -2488753.09449  -1938006.57445  21640614.3594   21640613.4304
      2115.2014
 04  9  2 21 18 15.0000000  0  7G 1G 3G 8G13G16G23G27
   2509334.29346   1936443.11342  23827949.7894   23827951.1094
     -2296.5684
   -626949.85547  -1464955.30142  23171664.6024   23171663.7894
      2088.1614
  -3995129.32848  -3100456.58243  23226407.2114   23226407.7504
      3323.9624
  -1683930.09849  -1303499.25047  20200230.7194   20200228.0044
      1176.7514
   2678700.03947   2066530.46142  23598208.3674   23598207.1134
     -2487.6824
   1261525.17249    972190.59445  21113952.1414   21113948.4884
     -1338.5044
  -2520438.46949  -1962696.45745  21634585.6254   21634584.1334
      2112.3584
 04  9  2 21 18 30.0000000  0  7G 1G 3G 8G13G16G23G27
   2543833.91046   1963325.88342  23834514.4924   23834515.7934
     -2299.9744
   -658156.62546  -1489272.20341  23165724.6954   23165725.3364
      2080.4514
  -4044948.49647  -3139276.69943  23216927.2424   23216926.8524
      3321.2784
  -1701476.66849  -1317171.89846  20196891.8134   20196889.1094
      1169.7714
   2716078.78547   2095656.70342  23605321.7344   23605320.7424
     -2491.9164
   1281698.70749    987910.21145  21117791.3524   21117787.1954
     -1344.9024
  -2552076.97749  -1987349.84046  21628564.8284   21628563.0354
      2109.2344
 04  9  2 21 18 45.0000000  0  7G 1G 3G 8G13G16G23G27
   2578382.84846   1990247.04742  23841089.3754   23841091.2894
     -2303.2624
   -689248.98846  -1513500.03141  23159808.4924   23159808.3874
      2072.8244
  -4094728.93748  -3178066.64143  23207454.3444   23207453.7384
      3318.6964
  -1718920.22349  -1330764.28147  20193572.5634   20193569.4964
      1162.9044
   2753519.05947   2124830.95742  23612446.4774   23612444.3404
     -2496.0184
   1301966.45749   1003703.24645  21121648.6484   21121643.7074
     -1351.1834
  -2583670.34448  -2011968.03945  21622552.6564   21622551.2894
      2106.2244
 04  9  2 21 19  0.0000000  0  7G 1G 3G 8G13G16G23G27
   2612983.56346   2017208.60542  23847673.0784   23847675.5944
     -2306.7144
   -720224.27747  -1537636.58642  23153914.0084   23153915.0084
      2065.0194
  -4144468.18448  -3216824.44542  23197989.1954   23197988.3244
      3315.9504
  -1736257.88749  -1344274.14847  20190273.4064   20190271.0004
      1155.8444
   2791023.16047   2154054.89842  23619582.6884   23619581.2584
     -2500.2734
   1322331.01249   1019571.71545  21125523.3204   21125518.9924
     -1357.6374
  -2615216.00448  -2036549.06245  21616549.4694   21616548.1524
      2103.0444
 04  9  2 21 19 15.0000000  0  7G 1G 3G 8G13G16G23G27
   2647633.79346   2044208.73442  23854267.4064   23854269.3364
     -2310.0154
   -751084.35946  -1561683.39542  23148041.3524   23148042.4964
      2057.3394
  -4194168.58647  -3255552.01643  23188531.0474   23188531.2504
      3313.3604
  -1753491.71949  -1357703.11347  20186993.9064   20186991.0904
      1148.9224
   2828588.50847   2183326.57442  23626731.4224   23626729.6844
     -2504.3574
   1342790.06649   1035513.82045  21129416.6724   21129412.3834
     -1363.9374
  -2646716.18048  -2061094.65245  21610555.4844   21610553.7974
      2100.0124
 04  9  2 21 19 30.0000000  0  7G 1G 3G 8G13G16G23G27
   2682334.84447   2071248.44542  23860871.0944   23860872.5354
     -2313.4034
   -781827.55147  -1585639.09042  23142192.4144   23142191.8014
      2049.5464
  -4243828.44547  -3294247.98443  23179081.0004   23179081.5314
      3310.6574
  -1770620.15249  -1371049.93447  20183734.0634   20183731.7034
      1141.8964
   2866216.12947   2212646.75042  23633891.6484   23633889.5164
     -2508.5084
   1363344.94549   1051530.59845  21133328.3054   21133324.0354
     -1370.3254
  -2678169.50449  -2085603.72345  21604569.6024   21604568.5314
      2096.8884
 04  9  2 21 19 45.0000000  0  7G 1G 3G 8G13G16G23G27
   2717086.06346   2098327.21542  23867482.5314   23867484.8714
     -2316.7484
   -812454.11347  -1609503.93742  23136363.7344   23136363.5514
      2041.7714
  -4293448.35547  -3332912.82043  23169638.6024   23169638.5044
      3307.9944
  -1787643.59849  -1384314.96547  20180494.8284   20180491.8794
      1134.8964
   2903905.30547   2242014.92642  23641063.7504   23641062.0474
     -2512.6124
   1383995.16849   1067621.66445  21137257.7504   21137253.2464
     -1376.6824
  -2709576.48848  -2110076.68445  21598593.3984   21598591.9224
      2093.7994
 04  9  2 21 20  0.0000000  0  7G 1G 3G 8G13G16G23G27
   2751886.90646   2125444.71941  23874106.0944   23874106.2304
     -2320.0564
   -842964.02345  -1633277.85542  23130557.4774   23130557.8714
      2033.9944
  -4343028.46548  -3371546.64143  23160204.1804   23160204.2704
      3305.3414
  -1804562.22749  -1397498.30547  20177275.0784   20177271.8984
      1127.9094
   2941655.40247   2271430.55942  23648247.8524   23648245.9884
     -2516.6734
   1404740.28149   1083786.68045  21141205.2894   21141201.3134
     -1383.0084
  -2740937.50848  -2134513.83646  21592625.5084   21592623.9454
      2090.7354
 04  9  2 21 20 15.0000000  0  7G 1G 3G 8G13G16G23G27
   2786737.22347   2152600.81642  23880738.1804   23880738.5234
     -2323.3544
   -873357.14547  -1656960.73442  23124773.8594   23124773.8754
      2026.2084
  -4392568.90648  -3410149.59043  23150776.5704   23150776.9964
      3302.6964
  -1821376.01649  -1410599.96147  20174075.8444   20174072.7074
      1120.9194
   2979465.90247   2300893.25842  23655442.3914   23655441.7974
     -2520.7004
   1425580.06649   1100025.45345  21145171.2274   21145167.0314
     -1389.3194
  -2772252.75048  -2158915.32045  21586666.5314   21586664.9344
      2087.6834
 04  9  2 21 20 30.0000000  0  7G 1G 3G 8G13G16G23G27
   2821635.28546   2179794.05942  23887378.7274   23887380.3594
     -2326.5374
   -903634.82045  -1680553.69942  23119011.6954   23119012.5594
      2018.5124
  -4442071.39548  -3448722.92643  23141357.3204   23141356.8284
      3300.1664
  -1838086.35249  -1423621.00447  20170896.2424   20170893.5314
      1114.0224
   3017334.81347   2330401.47342  23662648.7814   23662648.0164
     -2524.5944
   1446512.88349   1116336.71945  21149154.1334   21149150.6454
     -1395.5214
  -2803523.80548  -2183282.35545  21580715.6094   21580714.3554
      2084.7374
 04  9  2 21 20 45.0000000  0  7G 1G 3G 8G13G16G23G27
   2856582.11347   2207025.30542  23894028.5164   23894030.9414
     -2329.7894
   -933795.63346  -1704055.62542  23113272.8594   23113272.9104
      2010.7214
  -4491534.57448  -3487265.63743  23131944.0554   23131944.2814
      3297.5454
  -1854691.98049  -1436560.44947  20167736.0474   20167733.8014
      1107.0424
   3055262.94147   2359955.84442  23669866.1954   23669865.6644
     -2528.5424
   1467539.77749   1132721.28945  21153155.7194   21153151.6914
     -1401.7934
  -2834749.57449  -2207614.11745  21574773.5474   21574772.1024
      2081.7184
 04  9  2 21 21  0.0000000  0  7G 1G 3G 8G13G16G23G27
   2891578.82847   2234295.42242  23900688.5394   23900690.3984
     -2333.1144
   -963838.12946  -1727465.35942  23107556.1174   23107555.6724
      2002.8334
  -4540957.30948  -3525776.83243  23122539.3364   23122539.6024
      3294.8494
  -1871191.64149  -1449417.33247  20164596.0164   20164593.5084
      1099.9774
   3093251.16447   2389557.03142  23677095.3834   23677094.3874
     -2532.5484
   1488661.92649   1149180.09845  21157175.2664   21157170.8484
     -1408.1434
  -2865928.86749  -2231909.66446  21568840.3204   21568838.7074
      2078.6204
 04  9  2 21 21 15.0000000  0  7G 1G 3G 8G13G16G23G27
   2926623.66046   2261602.99242  23907356.1334   23907358.6764
     -2336.3224
   -993763.65246  -1750783.89542  23101860.7664   23101861.6374
      1995.0354
  -4590341.40248  -3564257.93443  23113142.1334   23113141.7074
      3292.2734
  -1887586.76249  -1462192.75447  20161476.4774   20161473.8714
      1093.0084
   3131297.41847   2419203.43442  23684335.2894   23684334.3164
     -2536.4174
   1509877.53949   1165711.73045  21161212.5234   21161208.0434
     -1414.3744
  -2897063.39849  -2256170.33245  21562915.8444   21562914.0704
      2075.6354
 04  9  2 21 21 30.0000000  0  7G 1G 3G 8G13G16G23G27
   2961712.84446   2288945.12942  23914034.5634   23914035.4774
     -2339.2794
  -1023575.73046  -1774014.03942  23096188.0554   23096188.8594
      1987.4724
  -4639690.37547  -3602711.64843  23103751.3834   23103751.3014
      3289.9324
  -1903880.76649  -1474889.38347  20158375.7974   20158373.1414
      1086.2674
   3169397.82047   2448892.03942  23691585.5784   23691584.7464
     -2540.0274
   1531182.84049   1182313.25445  21165266.8674   21165262.5004
     -1420.3534
  -2928156.90649  -2280399.02746  21556998.9694   21556997.4964
      2072.9014
 04  9  2 21 21 45.0000000  0  7G 1G 3G 8G13G16G23G27
   2996849.25047   2316324.10242  23920721.6564   23920721.7934
     -2342.4274
  -1053270.81647  -1797153.03942  23090537.7424   23090537.7814
      1979.6724
  -4689001.03147  -3641135.48843  23094367.4454   23094367.6994
      3287.3774
  -1920070.69149  -1487504.90247  20155294.9534   20155292.2074
      1079.3284
   3207555.12947   2478624.97342  23698847.1024   23698845.3364
     -2543.8214
   1552580.79749   1198986.97745  21169338.2424   21169334.7034
     -1426.5304
  -2959206.44948  -2304593.47345  21551090.3284   21551088.8524
      2069.9704
 04  9  2 21 22  0.0000000  0  7G 1G 3G 8G13G16G23G27
   3032032.69546   2343739.64542  23927415.4224   23927418.2854
     -2345.5634
  -1082848.97346  -1820200.90642  23084908.9844   23084909.6054
      1971.8774
  -4738273.42648  -3679529.53543  23084991.5944   23084991.4614
      3284.8264
  -1936156.33249  -1500039.16447  20152233.6094   20152231.0824
      1072.3764
   3245768.91447   2508401.93442  23706118.5944   23706116.8634
     -2547.5864
   1574071.28949   1215732.78945  21173428.1024   21173424.5984
     -1432.6994
  -2990212.00049  -2328753.62546  21545190.0944   21545188.7304
      2067.0374
 04  9  2 21 22 15.0000000  0  7G 1G 3G 8G13G16G23G27
   3067265.05547   2371193.37142  23934120.8364   23934123.6804
     -2348.8244
  -1112307.87547  -1843155.83642  23079303.6174   23079304.0394
      1963.9274
  -4787505.72748  -3717892.35543  23075623.2664   23075622.5634
      3282.1534
  -1952135.62149  -1512490.55547  20149193.1334   20149190.2974
      1065.2864
   3284040.85947   2538224.19942  23713402.0474   23713399.7234
     -2551.4634
   1595656.20749   1232552.19945  21177535.7734   21177531.4384
     -1438.9954
  -3021171.63749  -2352878.00845  21539298.7424   21539297.2344
      2063.9764
 04  9  2 21 22 30.0000000  0  7G 1G 3G 8G13G16G23G27
   3102545.02347   2398684.14842  23940834.3754   23940837.3834
     -2351.9984
  -1141648.50447  -1866018.64142  23073719.8134   23073719.8364
      1956.0424
  -4836699.12148  -3756224.86343  23066262.4924   23066261.0004
      3279.5604
  -1968009.52749  -1524859.83647  20146172.0314   20146169.8244
      1058.2604
   3322369.35547   2568090.53542  23720695.8674   23720693.3954
     -2555.2334
   1617334.27049   1249444.18445  21181660.9534   21181656.7384
     -1445.2044
  -3052086.55948  -2376967.54345  21533415.4694   21533414.1414
      2060.9954
 04  9  2 21 22 45.0000000  0  7G 1G 3G 8G13G16G23G27
   3137871.41047   2426211.14842  23947556.5234   23947559.9574
     -2355.0924
  -1170871.55148  -1888789.84842  23068159.1254   23068158.3014
      1948.2034
  -4885854.58248  -3794527.77343  23056907.6954   23056907.5474
      3277.0314
  -1983779.00849  -1537147.74247  20143171.3134   20143168.8444
      1051.2994
   3360753.04347   2597999.89142  23727999.1644   23727997.0274
     -2558.9124
   1639104.43449   1266407.93445  21185803.6954   21185800.0474
     -1451.3444
  -3082957.82049  -2401023.05946  21527540.7894   21527539.6914
      2058.0844
 04  9  2 21 23  0.0000000  0  6G 3G 8G13G16G23G27
  -1199973.82848  -1911466.89142  23062621.2814   23062621.6524
      1940.1524
  -4934968.74248  -3832798.52343  23047561.8444   23047560.4384
      3274.2774
  -1999440.84449  -1549351.76647  20140191.1644   20140188.7384
      1044.1224
   3399194.66447   2627954.36342  23735315.0944   23735313.2734
     -2562.7754
   1660969.66849   1283445.75846  21189964.4454   21189960.8094
     -1457.6824
  -3113782.45749  -2425042.25046  21521674.9844   21521673.6644
      2054.9764
 04  9  2 21 23 15.0000000  0  6G 3G 8G13G16G23G27
  -1228954.43747  -1934049.14142  23057105.2814   23057106.1684
      1932.0414
  -4984041.15648  -3871036.76643  23038223.5944   23038222.8204
      3271.4944
  -2014994.33249  -1561471.37147  20137231.4304   20137229.0664
      1036.8994
   3437694.35947   2657954.10942  23742641.4614   23742638.8164
     -2566.6464
   1682930.35949   1300557.97345  21194143.7424   21194138.8164
     -1464.0464
  -3144559.93449  -2449024.68446  21515818.7114   21515817.2664
      2051.8324
 04  9  2 21 23 30.0000000  0  6G 3G 8G13G16G23G27
  -1257812.76648  -1956536.13742  23051614.5474   23051613.5824
      1923.8894
  -5033071.55548  -3909242.24243  23028893.0164   23028893.1054
      3268.6934
  -2030438.94549  -1573506.12547  20134292.0704   20134289.7424
      1029.6414
   3476252.24646   2687999.19542  23749977.7664   23749976.7274
     -2570.5264
   1704986.81649   1317744.81645  21198340.4384   21198336.9024
     -1470.4304
  -3175289.94949  -2472970.14846  21509970.7504   21509969.1524
      2048.6684
 04  9  2 21 23 45.0000000  0  6G 3G 8G13G16G23G27
  -1286550.92247  -1978929.48442  23046145.4614   23046144.8524
      1915.8774
  -5082062.50448  -3947416.98843  23019570.2114   23019570.6844
      3266.0634
  -2045776.94549  -1585457.82446  20131373.6254   20131371.1054
      1022.5334
   3514865.52046   2718087.42642  23757325.7734   23757324.2504
     -2574.2184
   1727136.57449   1335004.34445  21202555.8754   21202551.6334
     -1476.6514
  -3205974.87949  -2496880.47746  21504131.9384   21504130.4884
      2045.6624
 04  9  2 21 24  0.0000000  0  6G 3G 8G13G16G23G27
  -1315168.31247  -2001228.73042  23040700.2194   23040700.2234
      1907.8264
  -5131013.33248  -3985560.44543  23010255.6954   23010255.7234
      3263.3894
  -2061007.86749  -1597326.07446  20128475.3674   20128472.7624
      1015.3954
   3553534.39846   2748219.02042  23764684.8444   23764682.6294
     -2577.9254
   1749379.89549   1352336.78945  21206788.4144   21206784.5354
     -1482.8884
  -3236614.37548  -2520755.39846  21498301.3594   21498299.7854
      2042.6334
 04  9  2 21 24 15.0000000  0  6G 3G 8G13G16G23G27
  -1343665.91447  -2023434.61742  23035277.2894   23035276.1884
      1899.8404
  -5179925.16048  -4023673.52743  23000948.2814   23000948.1454
      3260.7894
  -2076132.81649  -1609111.75047  20125597.5234   20125594.5984
      1008.3304
   3592257.16846   2778392.58242  23772053.4144   23772052.0594
     -2581.5184
   1771715.51249   1369741.15645  21211038.6724   21211034.5474
     -1489.0414
  -3267209.78949  -2544595.97746  21492479.0474   21492477.5904
      2039.6944
 04  9  2 21 24 30.0000000  0  6G 3G 8G13G16G23G27
  -1372042.46547  -2045546.19142  23029876.7894   23029876.0234
      1891.7704
  -5228796.78148  -4061755.27343  22991648.0944   22991647.8674
      3258.1084
  -2091150.53949  -1620813.86746  20122739.4924   20122736.5514
      1001.1824
   3631034.53547   2808608.69942  23779432.2114   23779431.1994
     -2585.1584
   1794144.36749   1387218.16845  21215307.0314   21215302.2464
     -1495.2574
  -3297760.06649  -2568401.37145  21486665.3754   21486663.8554
      2036.6854
 04  9  2 21 24 45.0000000  0  6G 3G 8G13G16G23G27
  -1400295.19547  -2067561.27742  23024500.5004   23024500.4024
      1883.5154
  -5277626.15648  -4099804.11343  22982355.7664   22982355.5164
      3255.2924
  -2106058.48449  -1632430.45347  20119902.3134   20119899.9494
       993.8634
   3669868.64546   2838869.03942  23786821.7034   23786821.0944
     -2588.9414
   1816668.83649   1404769.68045  21219593.2894   21219589.0044
     -1501.6314
  -3328262.75449  -2592169.69545  21480861.0314   21480859.5514
      2033.5134
 04  9  2 21 25  0.0000000  0  6G 3G 8G13G16G23G27
  -1428423.14147  -2089479.11342  23019147.5784   23019148.4304
      1875.1964
  -5326412.19948  -4137819.18443  22973071.6804   22973071.7034
      3252.4034
  -2120855.66449  -1643960.71947  20117086.8364   20117084.4184
       986.4794
   3708760.10246   2869174.03142  23794222.1484   23794221.9184
     -2592.7644
   1839289.69949   1422396.31345  21223897.4924   21223893.7074
     -1508.0584
  -3358717.02349  -2615900.27746  21475065.8054   21475064.3874
      2030.2854
 04  9  2 21 25 15.0000000  0  6G 3G 8G13G16G23G27
  -1456429.64147  -2111302.33242  23013818.9384   23013819.5744
      1867.1004
  -5375158.66848  -4175803.40643  22963796.2034   22963795.6054
      3249.7654
  -2135545.48049  -1655407.33647  20114291.2114   20114289.2304
       979.3214
   3747704.82446   2899520.55142  23801633.7194   23801633.1134
     -2596.3154
   1862003.16449   1440095.09845  21228220.1644   21228215.8324
     -1514.2314
  -3389126.55149  -2639596.01246  21469279.2274   21469277.5084
      2027.3024
 04  9  2 21 25 30.0000000  0  6G 3G 8G13G16G23G27
  -1484317.60547  -2133033.18742  23008511.4844   23008511.2504
      1859.1984
  -5423868.47748  -4213759.10243  22954527.1954   22954526.7624
      3247.3214
  -2150131.13348  -1666772.77047  20111515.5944   20111513.3054
       972.3774
   3786699.37147   2929905.90242  23809054.4384   23809053.4304
     -2599.6364
   1884806.01249   1457863.53145  21232559.1094   21232555.2734
     -1520.1904
  -3419494.53948  -2663259.36746  21463500.5004   21463498.6454
      2024.5334
 04  9  2 21 25 45.0000000  0  6G 3G 8G13G16G23G27
  -1512082.93447  -2154668.48042  23003228.7664   23003226.6054
      1851.0224
  -5472537.84448  -4251683.25443  22945265.5784   22945264.6604
      3244.6244
  -2164608.45749  -1678053.80947  20108760.6884   20108758.3014
       965.1554
   3825747.41447   2960332.94142  23816485.4774   23816483.3244
     -2603.2034
   1907702.12949   1475704.64845  21236916.5864   21236912.1994
     -1526.4084
  -3449817.14849  -2686887.36746  21457729.8134   21457728.4804
      2021.5074
 04  9  2 21 26  0.0000000  0  7G19G 3G 8G13G16G23G27
   -142380.95357   -102766.84452  24048966.0474   24048965.3674

  -1539729.48447  -2176211.22342  22997967.3284   22997965.2774
      1843.1034
  -5521170.99248  -4289579.17643  22936010.5394   22936010.9104
      3242.2104
  -2178981.49649  -1689253.57847  20106025.7344   20106023.3324
       958.2034
   3864844.38747   2990798.10942  23823924.9534   23823922.6484
     -2606.4654
   1930687.14549   1493615.04745  21241290.0784   21241286.0904
     -1532.3344
  -3480098.57049  -2710483.26646  21451967.5944   21451966.2704
      2018.7614
 04  9  2 21 26 15.0000000  0  7G19G 3G 8G13G16G23G27
   -192379.16447   -141726.44142  24039451.7344   24039451.2034
      3333.2144
  -1567256.03547  -2197660.48442  22992729.0864   22992729.1134
      1835.1034
  -5569766.53148  -4327445.81243  22926763.3754   22926762.7384
      3239.7034
  -2193249.13349  -1700371.21947  20103311.0474   20103308.2384
       951.1764
   3903991.00847   3021301.91442  23831374.5164   23831372.5474
     -2609.7754
   1953762.02349   1511595.45345  21245681.1414   21245677.3444
     -1538.3254
  -3510337.73848  -2734046.25846  21446213.5314   21446211.5984
      2015.9454
 04  9  2 21 26 30.0000000  0  7G19G 3G 8G13G16G23G27
   -242344.70346   -180660.55142  24029943.4144   24029943.7584
      3331.0364
  -1594664.82447  -2219017.92642  22987513.0554   22987513.2704
      1827.2534
  -5618327.24648  -4365285.31243  22917522.1954   22917521.4264
      3237.3814
  -2207413.78149  -1711408.60247  20100615.5004   20100612.8524
       944.3104
   3943184.47347   3051842.25042  23838832.8834   23838830.9574
     -2612.8984
   1976924.16049   1529643.84845  21250089.1564   21250084.5864
     -1544.1424
  -3540537.26249  -2757578.34046  21440466.4384   21440464.8834
      2013.3024
 04  9  2 21 26 45.0000000  0  7G19G 3G 8G13G16G23G27
   -292278.11746   -219569.60542  24020441.0314   24020441.3524
      3328.8944
  -1621956.29748  -2240284.00442  22982320.8204   22982319.2584
      1819.4324
  -5666853.78548  -4403098.16843  22908288.2034   22908288.6884
      3235.1034
  -2221475.98449  -1722366.16847  20097939.2734   20097936.7974
       937.4804
   3982423.52347   3082418.12542  23846300.0004   23846297.4884
     -2615.9374
   2000172.71149   1547759.59845  21254512.5314   21254508.7274
     -1549.9034
  -3570697.87949  -2781080.10546  21434726.8984   21434725.5474
      2010.7084
 04  9  2 21 27  0.0000000  0  7G19G 3G 8G13G16G23G27
   -342180.44946   -258454.46542  24010945.0474   24010944.9144
      3326.8224
  -1649132.05547  -2261459.91442  22977148.9224   22977147.6484
      1811.7174
  -5715347.95748  -4440885.79743  22899060.9534   22899059.4344
      3232.9454
  -2235437.23449  -1733245.06247  20095282.7274   20095279.9844
       930.7504
   4021706.32847   3113028.05942  23853774.7734   23853773.1914
     -2618.8544
   2023505.95749   1565941.32045  21258953.1334   21258948.8134
     -1555.5504
  -3600821.32449  -2804552.91846  21428994.9304   21428993.3954
      2008.2304
 04  9  2 21 27 15.0000000  0  7G19G 3G 8G13G16G23G27
   -392044.76646   -297309.73042  24001456.1174   24001455.2464
      3324.2884
  -1676185.08648  -2282540.15642  22972000.4614   22972001.0514
      1803.5354
  -5763802.87548  -4478642.87143  22889839.2114   22889838.7544
      3230.3284
  -2249290.80149  -1744040.05146  20092646.4454   20092643.7894
       923.5714
   4061039.01646   3143676.89842  23861259.7504   23861258.6024
     -2622.1794
   2046930.43049   1584194.15245  21263410.3834   21263406.4884
     -1561.6324
  -3630901.00049  -2827991.61745  21423270.7344   21423269.6214
      2005.3124
 04  9  2 21 27 30.0000000  0  7G19G 3G 8G13G16G23G27
   -441875.73846   -336138.98042  23991973.0164   23991972.7624
      3322.0654
  -1703120.09047  -2303528.46542  22966875.0084   22966874.4574
      1795.6674
  -5812223.45748  -4516373.15643  22880625.1564   22880625.3324
      3228.0394
  -2263041.59049  -1754754.94947  20090029.6254   20090026.9694
       916.7194
   4100416.41447   3174360.58242  23868753.3444   23868751.2464
     -2625.1604
   2070441.00449   1602514.06645  21267884.6174   21267880.3324
     -1567.3724
  -3660941.98849  -2851400.17246  21417554.0234   21417552.7384
      2002.7334
 04  9  2 21 27 45.0000000  0  7G19G 3G 8G13G16G23G27
   -491668.23047   -374938.28142  23982498.9144   23982497.3794
      3319.4994
  -1729932.23047  -2324421.00442  22961772.7734   22961772.3014
      1787.4764
  -5860605.19548  -4554073.18443  22871418.2274   22871417.7304
      3225.4494
  -2276684.80949  -1765386.03147  20087433.2344   20087430.3594
       909.5484
   4139842.75846   3205082.37542  23876256.1094   23876254.5554
     -2628.4234
   2094042.17249   1620904.57045  21272375.5394   21272371.5274
     -1573.4114
  -3690939.52749  -2874774.87946  21411846.0314   21411844.2664
      1999.8364
 04  9  2 21 28  0.0000000  0  7G19G 3G 8G13G16G23G27
   -541425.28147   -413709.94543  23973030.3444   23973029.6134
      3317.1374
  -1756624.54747  -2345220.19142  22956693.2894   22956692.6764
      1779.4884
  -5908951.31248  -4591745.45743  22862217.6954   22862217.6684
      3223.0744
  -2290223.53149  -1775935.69146  20084857.0704   20084854.7894
       902.5824
   4179314.52747   3235839.57842  23883767.6644   23883766.1914
     -2631.4514
   2117730.75449   1639363.18845  21276883.3524   21276879.0704
     -1579.2394
  -3720896.93049  -2898118.30145  21406144.9774   21406143.4494
      1997.1604
 04  9  2 21 28 15.0000000  0  7G19G 3G 8G13G16G23G27
   -591144.38747   -452452.04343  23963569.4534   23963568.9144
      3314.6074
  -1783194.71948  -2365924.22342  22951637.0084   22951636.1604
      1771.3454
  -5957259.86348  -4629388.43443  22853025.3914   22853025.0124
      3220.5704
  -2303655.59049  -1786402.23447  20082300.9384   20082298.3594
       895.4714
   4218833.48047   3266633.55142  23891287.1564   23891286.8834
     -2634.5974
   2141508.61749   1657891.38745  21281408.5314   21281404.1054
     -1585.1914
  -3750812.35549  -2921429.01245  21400452.3204   21400450.9534
      1994.3624
 04  9  2 21 28 30.0000000  0  7G19G 3G 8G13G16G23G27
   -640826.41047   -491165.24242  23954114.9384   23954113.8484
      3312.1354
  -1809643.72347  -2386533.78942  22946604.1254   22946604.0864
      1763.2674
  -6005531.69148  -4667002.85243  22843839.8524   22843839.9384
      3218.1224
  -2316982.11349  -1796786.53546  20079764.9534   20079762.5314
       888.4354
   4258398.14147   3297463.13342  23898816.5634   23898815.6254
     -2637.6444
   2165374.53949   1676488.19145  21285949.6644   21285945.9344
     -1591.0614
  -3780686.83649  -2944707.82046  21394767.6484   21394766.0984
      1991.6324
 04  9  2 21 28 45.0000000  0  7G19G 3G 8G13G16G23G27
   -690467.85947   -529846.84442  23944668.2734   23944667.1094
      3309.4304
  -1835968.26648  -2407046.43042  22941594.4844   22941593.3594
      1754.9704
  -6053763.48448  -4704586.02743  22834661.6414   22834661.1604
      3215.4534
  -2330199.73049  -1807085.97747  20077249.6644   20077247.2934
       881.1744
   4298011.38346   3328330.59842  23906354.4614   23906354.0124
     -2640.8834
   2189331.48449   1695155.92645  21290508.2814   21290504.8204
     -1597.1304
  -3810517.23449  -2967952.28146  21389090.8524   21389089.5664
      1988.6934
 04  9  2 21 29  0.0000000  0  7G19G 3G 8G13G16G23G27
   -740064.82046   -568493.76242  23935230.3754   23935229.9144
      3306.4644
  -1862164.58647  -2427459.16842  22936609.7974   22936608.5824
      1746.4214
  -6101951.99248  -4742135.48844  22825491.7424   22825491.5984
      3212.5674
  -2343304.80949  -1817297.73047  20074756.1414   20074753.2504
       873.6724
   4337676.19546   3359238.21542  23913901.8284   23913901.8834
     -2644.3214
   2213382.88749   1713897.26245  21295085.1954   21295081.1724
     -1603.4274
  -3840300.16849  -2991159.76646  21383423.1024   21383421.9064
      1985.5294
 04  9  2 21 29 15.0000000  0  7G19G 3G 8G13G16G23G27
   -789617.08646   -607105.84442  23925799.9454   23925800.0824
      3303.4844
  -1888232.36747  -2447771.70742  22931649.4304   22931649.0044
      1737.8524
  -6150097.32448  -4779651.30543  22816329.6884   22816330.0004
      3209.6894
  -2356297.27049  -1827421.73046  20072283.2194   20072280.8594
       866.1644
   4377392.32046   3390185.85242  23921459.4384   23921459.0004
     -2647.7424
   2237528.75849   1732712.19545  21299680.2664   21299676.5984
     -1609.7254
  -3870035.65649  -3014330.26246  21377764.7114   21377763.5084
      1982.3664
 04  9  2 21 29 30.0000000  0  7G19G 3G 8G13G16G23G27
   -839129.65646   -645687.02042  23916378.4384   23916377.7464
      3300.8384
  -1914177.05947  -2467988.32842  22926711.5864   22926712.2504
      1729.6464
  -6198204.81248  -4817137.64143  22807175.1254   22807175.0274
      3207.1664
  -2369182.44149  -1837462.12146  20069831.7894   20069829.2464
       859.0114
   4417153.89545   3421168.87142  23929026.3054   23929026.1484
     -2650.7724
   2261763.40249   1751596.32045  21304292.0704   21304288.2344
     -1615.6434
  -3899729.13749  -3037468.03145  21372114.2194   21372113.3014
      1979.5654
 04  9  2 21 29 44.9990000  0  7G19G 3G 8G13G16G23G27
   -888600.62946   -684235.80142  23906964.4334   23906964.0384
      3298.0654
  -1939998.41447  -2488108.81642  22921797.9404   22921797.7654
      1721.4244
  -6246273.03148  -4854593.36744  22798028.2064   22798027.8554
      3204.5484
  -2381961.07449  -1847419.50047  20067399.9724   20067397.1014
       851.9094
   4456956.32046   3452183.74642  23936599.9874   23936600.2654
     -2653.4954
   2286083.32449   1770546.87945  21308919.7844   21308916.3084
     -1621.3284
  -3929380.44949  -3060572.93745  21366472.0114   21366470.8124
      1976.7544
 04  9  2 21 29 59.9990000  0  7G19G 3G 8G13G16G23G27
   -938032.51646   -722754.07042  23897557.8624   23897557.5264
      3295.4594
  -1965695.94147  -2508132.84442  22916908.2374   22916906.9874
      1713.1684
  -6294304.68448  -4892020.59043  22788887.6514   22788887.6204
      3202.1104
  -2394631.21549  -1857292.34047  20064988.9954   20064986.1324
       844.6764
   4496808.12146   3483237.03542  23944184.5734   23944182.9444
     -2656.7874
   2310495.41049   1789569.26245  21313565.3624   21313561.4954
     -1627.4724
  -3958989.96949  -3083645.29346  21360837.2764   21360836.1324
      1973.9684
 04  9  2 21 30 14.9990000  0  7G19G 3G 8G13G16G23G27
   -987420.39146   -761238.06642  23888159.2304   23888159.1834
      3292.5254
  -1991266.34847  -2528057.80542  22912042.5734   22912041.3974
      1704.6944
  -6342295.14548  -4929415.73443  22779755.8394   22779755.1124
      3199.3644
  -2407190.41849  -1867078.74247  20062598.9014   20062596.2334
       837.2804
   4536707.71545   3514327.63342  23951776.1444   23951775.5654
     -2659.9734
   2334999.10949   1808663.04345  21318228.2064   21318224.1244
     -1633.5804
  -3988554.41449  -3106682.52046  21355211.7844   21355210.3864
      1970.9634
 04  9  2 21 30 29.9990000  0  7G19G 3G 8G13G16G23G27
  -1036765.72747   -799688.86742  23878769.7534   23878768.8864
      3289.6894
  -2016711.26647  -2547884.98042  22907200.2064   22907199.8744
      1696.3284
  -6390246.36748  -4966780.30943  22770630.7764   22770630.7884
      3196.7484
  -2419640.35549  -1876779.98447  20060229.6834   20060227.1794
       829.9964
   4576652.98445   3545453.80942  23959376.6834   23959377.0034
     -2663.0184
   2359592.63349   1827826.80945  21322908.1284   21322904.1204
     -1639.5684
  -4018075.63349  -3129686.07446  21349593.9254   21349592.3664
      1968.0814
 04  9  2 21 30 44.9990000  0  7G19G 3G 8G13G16G23G27
  -1086067.35946   -838105.65642  23869387.5344   23869386.5224
      3286.7764
  -2042029.56247  -2567613.50442  22902382.5734   22902382.3824
      1687.8864
  -6438157.38748  -5004113.53543  22761513.6444   22761513.3274
      3194.0684
  -2431980.15249  -1886395.42247  20057881.5974   20057879.1204
       822.6534
   4616644.48446   3576615.94941  23966988.1674   23966986.3554
     -2666.1004
   2384276.71148   1847061.14145  21327605.3084   21327601.2264
     -1645.6054
  -4047552.77349  -3152655.25446  21343984.4874   21343983.1404
      1965.1434
 04  9  2 21 30 59.9990000  0  7G19G 3G 8G13G16G23G27
  -1135327.33647   -876489.98042  23860013.8394   23860013.0654
      3283.9984
  -2067223.56247  -2587245.20342  22897587.7224   22897587.9334
      1679.6004
  -6486030.71948  -5041417.41843  22752403.1284   22752402.6404
      3191.5554
  -2444212.32449  -1895926.98847  20055554.1754   20055551.3044
       815.4784
   4656679.13346   3607811.75042  23974606.1444   23974605.1054
     -2668.9774
   2409048.60249   1866363.89545  21332319.6054   21332315.9684
     -1651.4594
  -4076988.35549  -3175592.06646  21338383.0974   21338381.8004
      1962.3724
 04  9  2 21 31 14.9990000  0  7G19G 3G 8G13G16G23G27
  -1184541.87547   -914838.90243  23850648.7694   23850647.4254
      3280.9694
  -2092289.72746  -2606777.22742  22892817.2304   22892817.9214
      1671.0784
  -6533862.75448  -5078689.09043  22743300.8314   22743300.5814
      3188.8024
  -2456333.21949  -1905371.84047  20053247.6284   20053244.5814
       808.0604
   4696760.18845   3639043.69542  23982233.6514   23982233.0114
     -2672.0704
   2433911.73049   1885737.73845  21337051.0654   21337046.7924
     -1657.5424
  -4106379.15249  -3198493.98046  21332790.5654   21332789.4094
      1959.3864
 04  9  2 21 31 29.9990000  0  7G19G 3G 8G13G16G23G27
  -1233710.78547   -953152.29742  23841292.3474   23841289.9444
      3277.9274
  -2117227.79347  -2626209.47742  22888072.8314   22888071.8864
      1662.5384
  -6581653.77048  -5115928.83243  22734207.3004   22734206.3354
      3186.0684
  -2468342.75849  -1914729.92647  20050962.3474   20050959.4684
       800.6364
   4736887.16845   3670311.48441  23989869.1904   23989868.4294
     -2675.1324
   2458865.86349   1905182.50845  21341799.1674   21341795.4294
     -1663.6094
  -4135725.19149  -3221361.01246  21327205.7534   21327204.5774
      1956.4034
 04  9  2 21 31 44.9990000  0  7G19G 3G 8G13G16G23G27
  -1282832.20747   -991428.67242  23831944.9174   23831943.4294
      3274.7614
  -2142036.23846  -2645540.69142  22883351.5504   22883351.9334
      1653.8964
  -6629402.19148  -5153135.36743  22725121.0974   22725120.8154
      3183.2284
  -2480239.51649  -1924000.12547  20048698.3864   20048695.3864
       793.1174
   4777061.21945   3701615.87941  23997514.5654   23997513.0424
     -2678.2704
   2483912.24649   1924699.15245  21346565.7374   21346561.5154
     -1669.7594
  -4165025.03549  -3244192.06246  21321630.3004   21321628.6874
      1953.3234
 04  9  2 21 31 59.9990000  0  7G19G 3G 8G13G16G23G27
  -1331907.15646  -1029668.79742  23822605.5654   23822605.3084
      3271.6634
  -2166716.21546  -2664771.82042  22878654.2694   22878656.0424
      1645.3324
  -6677109.59448  -5190309.95343  22716042.4644   22716041.5114
      3180.4934
  -2492024.63749  -1933183.34847  20046455.3864   20046453.1124
       785.6754
   4817280.66845   3732955.67641  24005167.0734   24005166.3864
     -2681.2974
   2509049.51649   1944286.61345  21351349.1284   21351344.8474
     -1675.8184
  -4194280.15649  -3266988.24646  21316063.1204   21316062.0544
      1950.3414
 04  9  2 21 32 14.9990000  0  7G19G 3G 8G13G16G23G27
  -1380936.89547  -1067873.69542  23813275.1984   23813274.5464
      3268.6494
  -2191269.07846  -2683903.88742  22873981.9404   22873982.6714
      1636.8584
  -6724777.29348  -5227453.59443  22706971.4724   22706970.9604
      3177.8474
  -2503699.55149  -1942280.68446  20044234.1054   20044231.2764
       778.3284
   4857543.52346   3764329.35242  24012829.6904   24012828.6834
     -2684.1904
   2534275.94149   1963943.55145  21356149.4804   21356145.3004
     -1681.7624
  -4223492.08649  -3289750.78546  21310504.5034   21310503.6984
      1947.4624
 04  9  2 21 32 29.9990000  0  7G19G 3G 8G13G16G23G27
  -1429918.07446  -1106040.78542  23803954.0584   23803953.5074
      3265.4124
  -2215691.52746  -2702934.34042  22869335.0034   22869334.9404
      1628.1634
  -6772402.42648  -5264564.07043  22697908.8624   22697907.9684
      3175.0094
  -2515261.18049  -1951289.75047  20042033.7064   20042031.0154
       770.7754
   4897852.55546   3795738.93842  24020500.5194   24020499.2724
     -2687.2694
   2559594.51249   1983672.29745  21360967.3554   21360963.3314
     -1687.9054
  -4252657.94149  -3312477.40646  21304954.4954   21304953.2064
      1944.3904
 04  9  2 21 32 44.9990000  0  7G19G 3G 8G13G16G23G27
  -1478855.00446  -1144173.39143  23794641.9954   23794641.3084
      3262.4624
  -2239988.13347  -2721866.74642  22864711.3474   22864711.0694
      1619.7744
  -6819989.45348  -5301644.84843  22688853.0974   22688852.6204
      3172.4684
  -2526713.99249  -1960214.02347  20039854.4644   20039851.7414
       763.5214
   4938202.78546   3827180.68042  24028178.2144   24028177.0464
     -2690.0154
   2585000.39548   2003469.07045  21365801.8394   21365798.2654
     -1693.7264
  -4281782.35549  -3335171.75846  21299411.9954   21299411.0154
      1941.6284
 04  9  2 21 32 59.9990000  0  7G19G 3G 8G13G16G23G27
  -1527744.45746  -1182269.01643  23785338.8314   23785338.3194
      3259.2974
  -2264155.68446  -2740698.57442  22860112.1594   22860111.9174
      1611.1704
  -6867535.53548  -5338693.73843  22679805.3784   22679804.8474
      3169.7394
  -2538055.28549  -1969051.39147  20037696.4404   20037694.0264
       756.0864
   4978596.78145   3858656.50442  24035865.5424   24035864.1204
     -2692.9334
   2610496.33249   2023336.00445  21370653.9874   21370649.9174
     -1699.7294
  -4310862.50049  -3357831.60246  21293878.5264   21293876.9684
      1938.6764
 04  9  2 21 33 14.9990000  0  7G19G 3G 8G13G16G23G27
  -1576587.00846  -1220328.12543  23776045.2144   23776043.9994
      3256.1704
  -2288195.12547  -2759430.55942  22855538.0894   22855538.2414
      1602.6294
  -6915041.88748  -5375711.64544  22670765.0264   22670764.6944
      3167.0904
  -2549285.62149  -1977802.31247  20035559.2304   20035556.5584
       748.6894
   5019033.13746   3890165.35542  24043560.7144   24043559.7264
     -2695.7574
   2636081.19148   2043272.24645  21375522.2374   21375518.4954
     -1705.6574
  -4339899.46149  -3380457.80146  21288352.8004   21288351.3744
      1935.7974
 04  9  2 21 33 29.9990000  0  7G19G 3G 8G13G16G23G27
  -1625384.76646  -1258352.30942  23766758.4724   23766757.8744
      3253.1844
  -2312108.66047  -2778064.48442  22850987.6754   22850988.0934
      1594.2364
  -6962510.75048  -5412700.34443  22661732.3554   22661732.4374
      3164.5914
  -2560407.43449  -1986468.66047  20033442.6754   20033440.2724
       741.4544
   5059509.06346   3921705.00042  24051262.4954   24051262.2264
     -2698.3954
   2661752.42648   2063275.78545  21380407.5974   21380403.3974
     -1711.4164
  -4368895.74249  -3403052.28946  21282834.8704   21282833.6474
      1933.0854
 04  9  2 21 33 44.9990000  0  7G19G 3G 8G13G16G23G27
  -1674134.12946  -1296338.75442  23757481.1984   23757480.3124
      3249.9584
  -2335892.99647  -2796597.70742  22846461.6514   22846462.2844
      1585.6224
  -7009938.86748  -5449657.29343  22652706.6364   22652706.3974
      3161.8744
  -2571417.54349  -1995047.97347  20031347.8314   20031344.9804
       734.0074
   5100027.44146   3953277.73042  24058972.6904   24058972.4294
     -2701.2254
   2687513.11748   2083349.03545  21385309.3624   21385306.3944
     -1717.3794
  -4397848.03949  -3425612.52046  21277325.4404   21277323.8744
      1930.1534
 04  9  2 21 33 59.9990000  0  7G19G 3G 8G13G16G23G27
  -1722839.87946  -1334291.21542  23748212.9644   23748212.5424
      3247.0504
  -2359552.99247  -2815034.03142  22841959.0504   22841959.0114
      1577.3334
  -7057331.45748  -5486586.56643  22643688.2534   22643687.7304
      3159.5064
  -2582320.82849  -2003544.03547  20029272.8944   20029270.2304
       726.8864
   5140582.80546   3984879.30142  24066689.9014   24066689.7494
     -2703.6914
   2713358.02049   2103487.89145  21390227.8784   21390224.0224
     -1722.9934
  -4426761.55549  -3448142.52746  21271823.5114   21271821.8744
      1927.5684
 04  9  2 21 34 14.9990000  0  7G19G 3G 8G13G16G23G27
  -1771497.83646  -1372206.43042  23738953.7064   23738953.4254
      3243.8644
  -2383084.58648  -2833370.32843  22837481.4254   22837481.2804
      1568.7734
  -7104685.00048  -5523485.41043  22634677.7764   22634677.0814
      3156.9034
  -2593113.52049  -2011953.93047  20027219.2924   20027216.4174
       719.5134
   5181178.60546   4016512.34042  24074415.3944   24074414.9174
     -2706.3874
   2739290.69549   2123695.16045  21395162.6364   21395158.4874
     -1728.8454
  -4455632.74649  -3470639.55946  21266329.5654   21266327.8274
      1924.7464
 04  9  2 21 34 29.9990000  0  7G19G 3G 8G13G16G23G27
  -1820109.76646  -1410085.79742  23729703.4874   23729702.1594
      3240.7954
  -2406489.77747  -2851608.10542  22833027.1674   22833027.4254
      1560.3464
  -7152001.10248  -5560355.07043  22625673.1054   22625672.7924
      3154.4074
  -2603797.41849  -2020279.04747  20025185.9804   20025183.4374
       712.2604
   5221812.49645   4048175.08242  24082148.2614   24082146.9994
     -2708.9264
   2765308.92649   2143969.08645  21400114.1674   21400110.4334
     -1734.5494
  -4484463.54349  -3493105.10546  21260843.0974   21260841.6404
      1922.0534
 04  9  2 21 34 44.9990000  0  7G19G 3G 8G13G16G23G27
  -1868674.60946  -1447928.46142  23720461.5504   23720460.2264
      3237.6564
  -2429767.66847  -2869746.73443  22828598.1054   22828597.8234
      1551.8594
  -7199279.17648  -5597195.12943  22616676.5504   22616676.1514
      3151.8724
  -2614371.75449  -2028518.78547  20023173.8234   20023171.2804
       704.9564
   5262484.87546   4079867.85542  24089887.1984   24089887.0114
     -2711.4924
   2791413.53949   2164310.31645  21405081.6364   21405077.9174
     -1740.3084
  -4513253.13349  -3515538.54346  21255364.5584   21255362.8904
      1919.3064
 04  9  2 21 34 59.9990000  0  6G19G 3G 8G13G23G27
  -1917189.51645  -1485732.23042  23711228.9014   23711227.6284
      3234.3274
  -2452915.47748  -2887783.94943  22824193.3474   22824192.6984
      1543.1874
  -7246516.59848  -5634003.47744  22607687.2534   22607687.3744
      3149.1614
  -2624833.89149  -2036671.10547  20021182.9254   20021180.7144
       697.4764
   2817606.74649   2184720.60245  21410065.8944   21410061.5894
     -1746.2144
  -4541999.22349  -3537938.09446  21249894.5264   21249892.9804
      1916.4064
 04  9  2 21 35 14.9990000  0  6G19G 3G 8G13G23G27
  -1965653.50045  -1523496.30142  23702005.5584   23702005.8194
      3230.9324
  -2475932.42248  -2905719.21943  22819812.5424   22819812.6244
      1534.4634
  -7293712.81248  -5670779.73043  22598706.2454   22598706.0114
      3146.4144
  -2635183.21149  -2044735.52047  20019213.4954   20019210.9874
       689.9554
   2843889.13349   2205200.37545  21415067.1054   21415063.7374
     -1752.1594
  -4570701.18449  -3560303.24646  21244432.5894   21244431.0074
      1913.4644
 04  9  2 21 35 29.9990000  0  6G19G 3G 8G13G23G27
  -2014066.78946  -1561220.92242  23692793.7844   23692792.6984
      3227.5534
  -2498818.93448  -2923552.86343  22815457.8864   22815457.4954
      1525.7674
  -7340868.32448  -5707524.27043  22589732.4484   22589731.5304
      3143.7014
  -2645420.17249  -2052712.37147  20017265.4804   20017263.2374
       682.4644
   2870259.89549   2225748.97745  21420085.9254   21420081.4254
     -1758.0514
  -4599359.62949  -3582634.48846  21238979.5424   21238977.7804
      1910.5634
 04  9  2 21 35 44.9990000  0  6G19G 3G 8G13G23G27
  -2062431.92247  -1598907.99642  23683590.4564   23683588.8624
      3224.3424
  -2521577.65648  -2941286.90643  22811127.0734   22811126.7304
      1517.2484
  -7387986.01648  -5744239.34443  22580766.8154   22580766.0934
      3141.1794
  -2655547.57849  -2060603.86347  20015338.4334   20015335.7764
       675.1604
   2896716.09448   2246364.19945  21425119.4174   21425115.9524
     -1763.7474
  -4627977.51649  -3604934.13746  21233533.1594   21233531.9764
      1907.8594
 04  9  2 21 35 59.9990000  0  6G19G 3G 8G13G23G27
  -2110739.26646  -1636550.03142  23674397.8154   23674397.1204
      3220.4904
  -2544199.09048  -2958913.99643  22806822.6834   22806821.7724
      1508.0964
  -7435056.60948  -5780917.71143  22571809.5584   22571809.1404
      3138.0404
  -2665555.92249  -2068402.57047  20013433.6124   20013431.0504
       667.2234
   2923267.00848   2267053.20745  21430172.4954   21430168.7844
     -1770.0614
  -4656545.50849  -3627194.90646  21228096.8704   21228095.4134
      1904.5334
 04  9  2 21 36 14.9990000  0  6G19G 3G 8G13G23G27
  -2158991.83246  -1674149.36342  23665216.2144   23665214.4094
      3216.8384
  -2566686.44547  -2976436.58643  22802542.4804   22802542.9294
      1499.1574
  -7482083.60948  -5817562.10943  22562860.5974   22562859.5894
      3135.1334
  -2675448.58249  -2076111.14546  20011551.2144   20011548.3744
       659.5114
   2949908.99249   2287813.16045  21435242.0504   21435238.5894
     -1776.1324
  -4685067.16849  -3649419.57046  21222669.5034   21222667.9524
      1901.4444
 04  9  2 21 36 29.9990000  0  6G19G 3G 8G13G23G27
  -2207186.94547  -1711703.91042  23656044.6984   23656043.1634
      3213.0084
  -2589037.27748  -2993852.78942  22798289.9254   22798289.5224
      1490.0554
  -7529064.85548  -5854170.84443  22553920.6054   22553919.4724
      3132.0834
  -2685223.15649  -2083727.69147  20009691.2224   20009688.3784
       651.6384
   2976644.19949   2308645.76245  21440329.4874   21440325.6444
     -1782.3474
  -4713540.14849  -3671606.30946  21217251.3084   21217249.5624
      1898.1994
 04  9  2 21 36 44.9990000  0  6G19G 3G 8G13G23G27
  -2255325.62147  -1749214.51242  23646884.8314   23646882.5894
      3209.2454
  -2611252.69147  -3011163.49243  22794062.2374   22794061.9374
      1481.0284
  -7576001.41048  -5890744.76244  22544988.7534   22544988.2024
      3129.1044
  -2694880.82449  -2091253.14547  20007853.3554   20007850.6904
       643.8454
   3003471.15649   2329549.87145  21445434.7534   21445431.4914
     -1788.4644
  -4741965.84049  -3693756.20746  21211842.2924   21211840.4524
      1895.0464
 04  9  2 21 36 59.9990000  0  6G19G 3G 8G13G23G27
  -2303411.92647  -1786684.32842  23637734.1984   23637732.7264
      3205.7544
  -2633337.09848  -3028372.09043  22789859.3154   22789860.2924
      1472.2944
  -7622897.72748  -5927287.32044  22536064.6204   22536064.1674
      3126.4214
  -2704425.97749  -2098690.93447  20006037.0344   20006034.7334
       636.3434
   3030385.28149   2350521.90645  21450555.8944   21450552.5464
     -1794.2754
  -4770348.77349  -3715872.77046  21206440.9954   21206439.3474
      1892.1964
 04  9  2 21 37 14.9990000  0  6G19G 3G 8G13G23G27
  -2351444.67246  -1824112.38342  23628593.0424   23628592.6014
      3202.1834
  -2655289.44148  -3045477.78943  22785682.3944   22785682.3194
      1463.4904
  -7669753.10248  -5963797.97744  22527148.0344   22527148.1284
      3123.6924
  -2713857.79349  -2106040.41047  20004242.5734   20004239.9524
       628.7884
   3057387.33649   2371562.44145  21455694.3704   21455691.7494
     -1800.1374
  -4798688.03149  -3737955.30546  21201048.3004   21201046.3514
      1889.2844
 04  9  2 21 37 29.9990000  0  6G19G 3G 8G13G23G27
  -2399420.19547  -1861495.88342  23619463.5424   23619463.1794
      3198.3684
  -2677106.23448  -3062477.88743  22781531.0264   22781530.1444
      1454.4534
  -7716564.03548  -6000273.99244  22518240.5584   22518240.2454
      3120.7294
  -2723172.73449  -2113298.80946  20002469.6054   20002467.1754
       620.9964
   3084480.46149   2392673.92645  21460850.2224   21460846.6054
     -1806.2084
  -4826980.39549  -3760001.29746  21195664.3864   21195662.7334
      1886.1584
 04  9  2 21 37 44.9990000  0  6G19G 3G 8G13G23G27
  -2447341.09847  -1898836.77742  23610344.7764   23610343.0774
      3194.7274
  -2698790.26248  -3079374.51643  22777404.8314   22777404.1244
      1445.6024
  -7763333.41848  -6036717.64544  22509341.0264   22509340.1834
      3117.9594
  -2732373.64549  -2120468.34846  20000718.9644   20000716.0154
       613.3944
   3111661.62949   2413854.05145  21466022.9174   21466018.4404
     -1812.0784
  -4855228.75449  -3782013.00846  21190288.6834   21190287.1204
      1883.2244
 04  9  2 21 37 59.9990000  0  6G19G 3G 8G13G23G27
  -2495207.92647  -1936135.54742  23601236.4724   23601234.0584
      3191.1224
  -2720342.11348  -3096168.14143  22773303.8314   22773303.4524
      1436.7904
  -7810062.03948  -6073129.54344  22500448.0734   22500447.9014
      3115.2414
  -2741461.30149  -2127549.63746  19998989.2844   19998986.8154
       605.8444
   3138929.93049   2435102.06645  21471211.7064   21471207.2724
     -1817.8874
  -4883434.04749  -3803991.15646  21184921.6754   21184919.7694
      1880.3534
 04  9  2 21 38 14.9990000  0  6G19G 3G 8G13G23G27
  -2543018.91046  -1973390.80142  23592136.6674   23592136.4524
      3187.3994
  -2741760.18748  -3112857.53143  22769226.7694   22769227.4524
      1427.8724
  -7856748.57448  -6109508.64144  22491564.0344   22491564.0384
      3112.4364
  -2750434.16449  -2134541.48046  19997281.8234   19997279.5304
       598.1914
   3166286.49248   2456418.85945  21476417.5034   21476413.6244
     -1823.7714
  -4911595.01249  -3825934.75446  21179562.6444   21179561.1204
      1877.3984
 04  9  2 21 38 29.9990000  0  6G19G 3G 8G13G23G27
  -2590770.93447  -2010600.10942  23583050.7924   23583050.1204
      3183.4684
  -2763041.71948  -3129440.53543  22765177.7304   22765176.8824
      1418.7694
  -7903390.37548  -6145852.88744  22482688.5344   22482688.2614
      3109.4534
  -2759289.36749  -2141441.64846  19995596.6904   19995594.5114
       590.3474
   3193733.96148   2477806.46944  21481640.3624   21481637.2334
     -1829.8314
  -4939708.89849  -3847841.67246  21174213.0264   21174211.3514
      1874.2594
 04  9  2 21 38 44.9990000  0  6G19G 3G 8G13G23G27
  -2638470.60547  -2047768.63342  23573973.7144   23573972.4834
      3179.9784
  -2784193.50848  -3145922.45743  22761152.9874   22761152.4834
      1410.1194
  -7949994.40648  -6182167.70344  22473820.2844   22473819.9874
      3106.9354
  -2768033.94949  -2148255.60547  19993933.1364   19993930.5854
       582.9724
   3221265.16848   2499259.32445  21486879.9254   21486875.9444
     -1835.4144
  -4967782.77749  -3869717.41446  21168870.4724   21168868.6674
      1871.5924
 04  9  2 21 38 59.9990000  0  6G19G 3G 8G13G23G27
  -2686118.44947  -2084896.76242  23564906.6754   23564905.0194
      3176.5234
  -2805216.18748  -3162303.71543  22757152.5344   22757152.2844
      1401.5124
  -7996561.46548  -6218453.68044  22464958.5504   22464958.4094
      3104.4714
  -2776668.66049  -2154983.95747  19992289.6364   19992287.1944
       575.6474
   3248879.27748   2520776.78945  21492134.8234   21492130.3394
     -1840.9414
  -4995817.39549  -3891562.56646  21163535.5194   21163534.0464
      1868.9744
 04  9  2 21 39 14.9990000  0  6G19G 3G 8G13G23G27
  -2733714.45346  -2121984.50042  23555849.5974   23555848.1944
      3173.0674
  -2826109.84448  -3178584.47343  22753176.4564   22753176.0974
      1392.9104
  -8043092.06247  -6254711.26644  22456104.2144   22456103.3974
      3102.0404
  -2785193.68049  -2161626.82046  19990667.5194   19990664.5654
       568.3354
   3276575.71548   2542358.42245  21497404.8394   21497400.9014
     -1846.4294
  -5023813.14149  -3913377.44146  21158208.1674   21158206.9014
      1866.3834
 04  9  2 21 39 29.9990000  0  6G19G 3G 8G13G23G27
  -2781256.77747  -2159030.39842  23546802.6594   23546800.3124
      3169.4884
  -2846873.09048  -3194763.59843  22749225.7144   22749224.5934
      1384.2164
  -8089584.45748  -6290939.09444  22447257.0584   22447256.3744
      3099.4934
  -2793607.53149  -2168183.07047  19989066.3004   19989063.6714
       560.9234
   3304355.75848   2564005.18045  21502691.1284   21502686.9134
     -1852.0034
  -5051768.73049  -3935161.00846  21152888.5344   21152887.0154
      1863.7064
 04  9  2 21 39 44.9990000  0  6G19G 3G 8G13G23G27
  -2828742.64547  -2196032.35542  23537766.5344   23537763.6634
      3165.7244
  -2867503.21148  -3210838.99243  22745299.9404   22745298.7534
      1375.3414
  -8136036.34448  -6327135.34444  22438417.5344   22438416.4564
      3096.7924
  -2801907.63749  -2174650.68746  19987486.4874   19987484.3554
       553.3404
   3332221.70748   2585718.89845  21507993.9724   21507989.4764
     -1857.7304
  -5079681.67649  -3956911.35546  21147576.8474   21147575.1944
      1860.8634
 04  9  2 21 39 59.9990000  0  6G19G 3G 8G13G23G27
  -2876172.43447  -2232990.54342  23528740.1124   23528738.4914
      3161.9864
  -2888000.70348  -3226811.03143  22741398.9404   22741398.5194
      1366.4994
  -8182448.24648  -6363300.44544  22429585.9954   22429584.5034
      3094.1274
  -2810094.48449  -2181030.05946  19985929.3234   19985926.4054
       545.7904
   3360172.84848   2607498.99244  21513313.1834   21513309.3434
     -1863.4094
  -5107552.66449  -3978629.01646  21142273.2694   21142271.9374
      1858.0664
 04  9  2 21 40 14.9990000  0  6G19G 3G 8G13G23G27
  -2923548.44147  -2269906.87142  23519724.3474   23519723.2614
      3158.4014
  -2908368.03948  -3242681.65243  22737523.4174   22737522.2414
      1357.8224
  -8228822.84048  -6399436.47344  22420760.7064   22420759.8784
      3091.6404
  -2818170.67249  -2187323.18746  19984392.0584   19984389.5774
       538.4134
   3388206.32448   2629343.23445  21518647.5584   21518643.6364
     -1868.8984
  -5135384.49249  -4000316.14146  21136976.9724   21136976.1514
      1855.4554
 04  9  2 21 40 29.9990000  0  6G19G 3G 8G13G23G27
  -2970870.90247  -2306781.48442  23510720.0584   23510718.0304
      3154.8314
  -2928605.66448  -3258451.22743  22733672.6124   22733670.5694
      1349.1754
  -8275160.85248  -6435543.99644  22411942.7844   22411941.9374
      3089.2014
  -2826136.83249  -2193530.59047  19982876.3004   19982873.5934
       531.0774
   3416321.40248   2651251.06345  21523997.3624   21523994.1984
     -1874.3394
  -5163177.62549  -4021973.12946  21131687.8554   21131687.3474
      1852.8764
 04  9  2 21 40 44.9990000  0  6G19G 3G 8G13G23G27
  -3018136.37146  -2343611.67242  23501725.2844   23501724.0034
      3151.0314
  -2948710.48448  -3274117.29343  22729846.4644   22729845.1984
      1340.3214
  -8321459.21147  -6471620.61344  22403132.4094   22403132.0074
      3086.5574
  -2833989.82049  -2199649.80547  19981381.3314   19981379.5854
       523.5334
   3444520.96148   2673224.71545  21529363.9254   21529360.9214
     -1879.9714
  -5190929.21149  -4043597.73046  21126406.9014   21126406.2184
      1850.1064
 04  9  2 21 40 59.9990000  0  6G19G 3G 8G13G23G27
  -3065347.06247  -2380399.16042  23492741.3084   23492739.7844
      3147.3794
  -2968684.66847  -3289681.57843  22726044.7924   22726043.9214
      1331.6124
  -8367720.14148  -6507668.05944  22394329.6904   22394328.3554
      3084.0624
  -2841731.98449  -2205682.66047  19979908.9484   19979905.9644
       516.1444
   3472802.52748   2695262.28145  21534745.7064   21534742.2064
     -1885.4384
  -5218641.59849  -4065191.78946  21121133.5344   21121132.5694
      1847.4924
 04  9  2 21 41 14.9990000  0  6G19G 3G 8G13G23G27
  -3112502.48846  -2417143.55942  23483768.5894   23483766.3904
      3143.6954
  -2988528.05147  -3305143.91843  22722268.6834   22722268.9374
      1322.8924
  -8413943.86348  -6543686.52744  22385533.3234   22385532.5504
      3081.5824
  -2849363.12549  -2211629.00447  19978456.5424   19978453.9054
       508.7434
   3501165.90648   2717363.58245  21540143.3084   21540139.8044
     -1890.8924
  -5246314.84449  -4086755.35546  21115867.5734   21115866.2494
      1844.8834
 04  9  2 21 41 29.9990000  0  6G19G 3G 8G13G23G27
  -3159603.37147  -2453845.48043  23474805.4334   23474802.4484
      3140.0594
  -3008241.75048  -3320505.21543  22718517.3474   22718517.9994
      1314.2474
  -8460131.39148  -6579676.78144  22376744.6364   22376743.3624
      3079.1684
  -2856884.42649  -2217489.75846  19977025.2304   19977022.6124
       501.4204
   3529609.77048   2739527.60945  21545556.0654   21545552.4684
     -1896.2584
  -5273950.10949  -4108289.31646  21110608.7374   21110607.3744
      1842.3514
 04  9  2 21 41 44.9990000  0  6G19G 3G 8G13G23G27
  -3206650.53946  -2490505.53943  23465852.0344   23465851.0504
      3136.4784
  -3027826.64148  -3335766.15243  22714790.8084   22714790.6904
      1305.6594
  -8506283.75048  -6615639.64144  22367961.1204   22367961.0544
      3076.8244
  -2864296.83249  -2223265.66447  19975614.7534   19975612.1474
       494.1604
   3558132.93848   2761753.42645  21550983.8944   21550980.0694
     -1901.5454
  -5301548.58649  -4129794.61746  21105357.2694   21105355.6594
      1839.8984
 04  9  2 21 41 59.9990000  0  6G19G 3G 8G13G23G27
  -3253640.00047  -2527120.60543  23456910.1674   23456909.3314
      3132.6314
  -3047278.79748  -3350923.64543  22711089.5974   22711089.1084
      1296.8104
  -8552397.25848  -6651572.20744  22359186.2844   22359186.5854
      3074.2344
  -2871596.37549  -2228953.62147  19974225.7694   19974222.8744
       486.6364
   3586739.02048   2784043.85945  21556427.4014   21556423.4604
     -1907.0724
  -5329106.58649  -4151268.38746  21100112.7304   21100111.6674
      1837.2004
 04  9  2 21 42 14.9990000  0  6G19G 3G 8G13G23G27
  -3300568.45346  -2563688.18442  23447980.4094   23447978.7724
      3128.5644
  -3066595.14848  -3365975.32443  22707413.1594   22707412.1364
      1287.7574
  -8598469.05948  -6687472.30544  22350419.1364   22350419.0544
      3071.4534
  -2878780.45349  -2234551.60247  19972858.4404   19972856.0774
       478.9394
   3615430.60248   2806400.92245  21561886.8704   21561883.8514
     -1912.7724
  -5356621.20749  -4172708.34046  21094877.3704   21094875.3624
      1834.3084
 04  9  2 21 42 29.9990000  0  6G19G 3G 8G13G23G27
  -3347438.41446  -2600210.20342  23439061.3554   23439059.2574
      3124.6644
  -3085778.66048  -3380923.50442  22703762.4254   22703761.9014
      1278.9014
  -8644502.00848  -6723342.11744  22341659.5814   22341658.6284
      3068.8634
  -2885851.71149  -2240061.66847  19971512.9094   19971510.6284
       471.4174
   3644204.71548   2828822.27345  21567362.9644   21567359.4334
     -1918.2744
  -5384095.48849  -4194116.86746  21089648.8154   21089647.4994
      1831.6194
 04  9  2 21 42 44.9990000  0  6G19G 3G 8G13G23G27
  -3394249.39146  -2636686.22742  23430152.4804   23430151.7614
      3120.7324
  -3104828.72748  -3395767.69143  22700137.4254   22700137.0814
      1270.0044
  -8690495.78548  -6759181.40644  22332906.9404   22332906.8194
      3066.2524
  -2892809.84449  -2245483.60547  19970188.7374   19970186.2224
       463.8764
   3673061.56349   2851308.08645  21572854.1204   21572850.0304
     -1923.7904
  -5411529.18449  -4215493.76646  21084428.3474   21084427.0194
      1828.9134
 04  9  2 21 42 59.9990000  0  6G19G 3G 8G13G23G27
  -3440998.85546  -2673114.32442  23421256.1514   23421255.2844
      3116.6314
  -3123743.26648  -3410506.27343  22696538.3704   22696537.3314
      1260.9694
  -8736448.56648  -6794988.74244  22324162.3944   22324161.6984
      3063.5194
  -2899652.62949  -2250815.64847  19968886.6514   19968884.3514
       456.1864
   3702003.08249   2873859.92645  21578361.4724   21578357.5264
     -1929.4354
  -5438920.06649  -4236837.29746  21079216.3784   21079214.8274
      1826.0594
 04  9  2 21 43 14.9990000  0  6G19G 3G 8G13G23G27
  -3487687.63746  -2709495.16042  23412372.1594   23412371.2654
      3112.5854
  -3142523.19948  -3425139.96943  22692964.4804   22692964.1674
      1251.9964
  -8782361.44948  -6830764.99644  22315425.8624   22315424.5654
      3060.8594
  -2906381.07449  -2256058.59447  19967606.4174   19967603.8974
       448.5634
   3731027.91449   2896476.64545  21583884.4804   21583880.6554
     -1934.9894
  -5466269.38349  -4258148.44546  21074011.7694   21074010.2374
      1823.2884
 04  9  2 21 43 29.9990000  0  6G19G 3G 8G13G23G27
  -3534313.41846  -2745826.89143  23403500.2374   23403498.2144
      3108.3854
  -3161166.41848  -3439667.14843  22689416.7844   22689416.3274
      1242.8814
  -8828232.32848  -6866508.52344  22306696.5264   22306696.3354
      3058.0594
  -2912993.23449  -2261210.92246  19966348.1674   19966345.4994
       440.8114
   3760137.87548   2919159.72345  21589423.4254   21589419.8584
     -1940.6644
  -5493575.32049  -4279425.79746  21068815.1834   21068813.9014
      1820.3964
 04  9  2 21 43 44.9990000  0  6G19G 3G 8G13G23G27
  -3580877.10246  -2782110.22742  23394638.3084   23394637.2574
      3104.2464
  -3179673.98048  -3454088.60243  22685894.7924   22685894.6634
      1233.8384
  -8874062.12148  -6902220.03544  22297975.3314   22297974.3084
      3055.3204
  -2919490.16449  -2266273.47347  19965111.5734   19965109.1404
       433.1294
   3789331.62949   2941908.06644  21594979.8624   21594975.6244
     -1946.2504
  -5520838.92649  -4300670.16446  21063627.7454   21063626.0344
      1817.5744
 04  9  2 21 43 59.9990000  0  6G19G 3G 8G13G23G27
  -3627380.56246  -2818346.60542  23385788.5584   23385788.1244
      3100.2314
  -3198048.03948  -3468406.03543  22682398.3234   22682398.2494
      1224.9374
  -8919853.31248  -6937901.46144  22289261.5344   22289261.0074
      3052.7464
  -2925874.14149  -2271248.00847  19963897.0584   19963894.5114
       425.5984
   3818606.64849   2964719.75445  21600550.4954   21600546.4444
     -1951.6684
  -5548062.66449  -4321883.45346  21058446.8394   21058445.7534
      1814.9164
 04  9  2 21 44 14.9990000  0  6G19G 3G 8G13G23G27
  -3673822.95347  -2854535.46143  23376952.2454   23376950.5854
      3096.1594
  -3216287.96948  -3482618.95343  22678927.9174   22678927.0734
      1215.9954
  -8965605.48848  -6973552.47744  22280555.5034   22280554.6754
      3050.1454
  -2932144.54349  -2276134.03547  19962703.6514   19962701.3474
       418.0274
   3847963.37948   2987595.10945  21606136.8314   21606132.9804
     -1957.1154
  -5575246.05149  -4343065.30146  21053273.8474   21053273.0774
      1812.2264
 04  9  2 21 44 29.9990000  0  6G19G 3G 8G13G23G27
  -3720202.58247  -2890675.38343  23368126.4254   23368124.3044
      3091.9754
  -3234392.32448  -3496726.23843  22675482.5654   22675482.7104
      1206.9574
  -9011317.34048  -7009172.07444  22271856.8394   22271855.8394
      3047.4574
  -2938300.05149  -2280930.53147  19961532.0584   19961530.0584
       410.3674
   3877403.04748   3010535.07444  21611739.3234   21611735.5114
     -1962.6454
  -5602387.78949  -4364214.70346  21048109.2454   21048108.1984
      1809.4494
 04  9  2 21 44 44.9990000  0  6G19G 3G 8G13G23G27
  -3766515.99647  -2926763.67243  23359313.1834   23359311.1514
      3087.5614
  -3252357.74248  -3510725.23843  22672064.1124   22672063.2304
      1197.6954
  -9056985.41848  -7044757.56644  22263166.3624   22263165.2724
      3044.5394
  -2944337.29349  -2285634.88347  19960383.4094   19960381.0424
       402.4834
   3906928.66848   3033542.04744  21617357.3394   21617353.6944
     -1968.3754
  -5629484.66849  -4385329.14146  21042952.6364   21042951.7334
      1806.4594
 04  9  2 21 44 59.9990000  0  6G19G 3G 8G13G23G27
  -3812762.73446  -2962800.06643  23350512.5814   23350510.7024
      3083.1164
  -3270184.12148  -3524615.91443  22668671.4014   22668670.7764
      1188.4254
  -9102609.85248  -7080309.07044  22254484.2374   22254483.5584
      3041.6294
  -2950256.22349  -2290247.04347  19959257.2614   19959254.6054
       394.5954
   3936540.14149   3056615.86745  21622992.8314   21622988.6164
     -1974.0984
  -5656536.72749  -4406408.65646  21037804.8314   21037803.7924
      1803.4714
 04  9  2 21 45 14.9990000  0  6G19G 3G 8G13G23G27
  -3858946.51647  -2998787.35243  23341723.9174   23341721.8824
      3078.9194
  -3287875.25048  -3538401.20743  22665304.9174   22665304.6284
      1179.4094
  -9148194.67648  -7115829.68444  22245810.1284   22245809.0464
      3038.9884
  -2956060.77049  -2294770.06647  19958152.5894   19958150.1284
       386.9704
   3966233.18049   3079753.28945  21628643.1594   21628638.5654
     -1979.5364
  -5683547.92249  -4427456.33646  21032664.8004   21032663.3974
      1800.7464
 04  9  2 21 45 29.9990000  0  6G19G 3G 8G13G23G27
  -3905066.25046  -3034724.76642  23332947.2304   23332945.5974
      3074.6494
  -3305430.32848  -3552080.48443  22661964.5194   22661964.0034
      1170.3394
  -9193739.22748  -7151318.91444  22237142.6364   22237141.9484
      3036.3034
  -2961750.19949  -2299203.39847  19957069.9404   19957067.3314
       379.2954
   3996008.40248   3102954.73044  21634309.2764   21634304.7374
     -1985.0154
  -5710517.65649  -4448471.70746  21027532.6514   21027531.1944
      1797.9824
 04  9  2 21 45 44.9990000  0  6G19G 3G 8G13G23G27
  -3951119.03945  -3070609.98442  23324183.4094   23324182.5894
      3070.1864
  -3322846.65248  -3565651.60243  22658650.0194   22658649.4764
      1161.0884
  -9239240.77348  -7186774.65644  22228483.9874   22228483.4994
      3033.4364
  -2967321.66049  -2303544.78947  19956009.9954   19956007.1444
       371.4314
   4025868.35548   3126222.20344  21639991.2924   21639987.2764
     -1990.6644
  -5737443.30549  -4469452.71946  21022409.3084   21022407.4134
      1795.0434
 04  9  2 21 45 59.9990000  0  6G19G 3G 8G13G23G27
  -3997104.01245  -3106442.39142  23315433.4334   23315431.0544
      3065.6654
  -3340123.64548  -3579114.18443  22655362.2534   22655362.2454
      1151.7994
  -9284698.80948  -7222196.49244  22219833.9484   22219833.0224
      3030.5364
  -2972774.82449  -2307794.01247  19954972.2144   19954969.4374
       363.5444
   4055813.19549   3149555.80945  21645689.9564   21645685.4874
     -1996.3234
  -5764324.52049  -4490399.10946  21017293.7454   21017292.1874
      1792.0814
 04  9  2 21 46 14.9990000  0  6G19G 3G 8G13G23G27
  -4043019.56245  -3142220.69142  23306694.9254   23306693.8354
      3061.0374
  -3357260.07448  -3592467.22343  22652101.4014   22652100.9294
      1142.4294
  -9330112.09447  -7257583.45344  22211191.8864   22211191.0694
      3027.5524
  -2978108.36749  -2311950.02047  19953957.0654   19953954.6164
       355.5704
   4085844.09448   3172956.50844  21651404.0424   21651399.9214
     -2002.0604
  -5791160.14149  -4511309.98046  21012187.0034   21012185.2694
      1789.0414
 04  9  2 21 46 29.9990000  0  6G19G 3G 8G13G23G27
  -4088870.18745  -3177948.39543  23297970.3084   23297968.8584
      3056.7084
  -3374260.41048  -3605714.25443  22648866.7534   22648865.9684
      1133.3564
  -9375485.35548  -7292939.22344  22202557.6674   22202557.0154
      3024.8844
  -2983326.88749  -2316016.40247  19952963.9254   19952961.8084
       347.9014
   4115956.12148   3196420.39544  21657134.1514   21657130.4484
     -2007.4684
  -5817954.81649  -4532188.93446  21007087.9174   21007086.6834
      1786.3124
 04  9  2 21 46 44.9990000  0  6G19G 3G 8G13G23G27
  -4134653.30546  -3213623.48042  23289258.0344   23289256.7144
      3052.2084
  -3391122.59848  -3618853.59843  22645657.9254   22645657.6204
      1124.1464
  -9420816.57048  -7328262.21944  22193931.5504   22193930.8514
      3022.0814
  -2988428.30149  -2319991.53147  19951993.0734   19951990.5224
       340.0944
   4146151.29748   3219949.06344  21662880.4094   21662875.9014
     -2013.0124
  -5844706.56649  -4553034.44546  21001997.4174   21001995.9834
      1783.4504
 04  9  2 21 46 59.9990000  0  6G19G 3G 8G13G23G27
  -4180369.62146  -3249246.54343  23280558.8554   23280557.4564
      3047.7544
  -3407847.15248  -3631885.73043  22642475.6514   22642474.6124
      1114.9704
  -9466106.61348  -7363553.13744  22185313.4174   22185311.9764
      3019.3364
  -2993413.36749  -2323876.00447  19951044.6054   19951042.1984
       332.3384
   4176428.54348   3243541.69544  21668641.8474   21668637.9724
     -2018.4834
  -5871416.31249  -4573847.23046  20996914.9094   20996913.6554
      1780.6504
 04  9  2 21 47 14.9990000  0  6G19G 3G 8G13G23G27
  -4226016.82447  -3284815.78543  23271872.4404   23271870.9374
      3043.1474
  -3424432.31648  -3644809.22343  22639318.9484   22639319.0584
      1105.6784
  -9511353.59848  -7398810.52344  22176702.6364   22176701.6514
      3016.4664
  -2998280.24249  -2327668.37547  19950118.5654   19950115.9174
       324.4584
   4206789.39148   3267199.48445  21674419.0894   21674415.7574
     -2024.0574
  -5898082.03549  -4594625.70346  20991840.1054   20991838.9134
      1777.7154
 04  9  2 21 47 29.9990000  0  6G19G 3G 8G13G23G27
  -4271596.81647  -3320332.63342  23263198.4644   23263195.9914
      3038.6664
  -3440879.98447  -3657625.57043  22636188.7844   22636188.6634
      1096.5114
  -9556559.90648  -7434036.20344  22168099.6984   22168099.0654
      3013.7544
  -3003030.86749  -2331370.16847  19949214.5344   19949211.9294
       316.7084
   4237231.71548   3290920.73045  21680212.4174   21680208.2844
     -2029.4884
  -5924706.15649  -4615371.77046  20986774.0264   20986772.2764
      1774.9414
 04  9  2 21 47 44.9990000  0  6G19G 3G 8G13G23G27
  -4317105.98046  -3355794.26242  23254538.2064   23254536.2374
      3033.9444
  -3457186.89547  -3670332.24243  22633085.8314   22633085.7924
      1087.1274
  -9601722.07848  -7469227.48844  22159506.7534   22159505.5074
      3010.8114
  -3007662.03149  -2334978.86747  19948333.3784   19948331.1474
       308.7444
   4267758.46148   3314707.79345  21686022.0424   21686017.4564
     -2035.1164
  -5951285.43749  -4636082.88346  20981715.8154   20981714.8124
      1771.9524
 04  9  2 21 47 59.9990000  0  6G19G 3G 8G13G23G27
  -4362545.82846  -3391201.88742  23245891.7224   23245889.8664
      3029.3234
  -3473354.73047  -3682930.55143  22630009.4484   22630009.5194
      1077.8564
  -9646841.85248  -7504385.73844  22150919.7764   22150919.0624
      3007.9854
  -3012175.64549  -2338495.96547  19947474.2614   19947472.1124
       300.9084
   4298367.69148   3338559.11744  21691845.9954   21691842.4804
     -2040.6154
  -5977821.65649  -4656760.46146  20976666.1904   20976664.7804
      1769.0814
 04  9  2 21 48 14.9990000  0  6G19G 3G 8G13G23G27
  -4407917.89547  -3426556.68443  23237257.9014   23237255.9564
      3024.8044
  -3489385.30947  -3695421.89843  22626958.8624   22626958.9294
      1068.7054
  -9691921.13748  -7539512.43444  22142342.0424   22142341.0974
      3005.2864
  -3016573.33649  -2341922.73847  19946637.6364   19946635.1054
       293.1794
   4329057.44148   3362473.17645  21697686.7694   21697682.7454
     -2045.9834
  -6004316.81249  -4677406.02346  20971624.5814   20971622.8234
      1766.3444
 04  9  2 21 48 29.9990000  0  6G19G 3G 8G13G23G27
  -4453219.07447  -3461856.25443  23228637.1204   23228635.0934
      3020.0794
  -3505275.68747  -3707804.00443  22623934.5974   22623933.6944
      1059.3594
  -9736957.09448  -7574605.37944  22133771.8004   22133771.3274
      3002.3974
  -3020852.39149  -2345257.07447  19945823.0424   19945820.8314
       285.2704
   4359830.27048   3386451.97744  21703542.0974   21703538.6514
     -2051.5224
  -6030768.10549  -4698017.41446  20966590.9014   20966589.7024
      1763.4204
 04  9  2 21 48 44.9990000  0  6G19G 3G 8G13G23G27
  -4498449.55548  -3497100.73043  23220030.1674   23220028.3824
      3015.3654
  -3521026.33247  -3720077.24243  22620937.2924   22620937.2924
      1050.0434
  -9781950.35948  -7609665.04744  22125209.8784   22125209.4294
      2999.5514
  -3025013.27349  -2348499.32046  19945031.3154   19945028.7494
       277.3924
   4390685.35948   3410494.88744  21709413.6124   21709409.6244
     -2057.0064
  -6057176.03949  -4718595.01646  20961565.5974   20961564.3824
      1760.5294
 04  9  2 21 48 59.9990000  0  6G19G 3G 8G13G23G27
  -4543609.37547  -3532290.14543  23211436.4724   23211434.8974
      3010.6554
  -3536637.45747  -3732241.72343  22617966.4954   22617966.4564
      1040.7424
  -9826901.25448  -7644691.69144  22116655.8154   22116655.4564
      2996.7264
  -3029056.19549  -2351649.65246  19944262.3784   19944259.6244
       269.5284
   4421622.39848   3434601.65244  21715300.7454   21715297.0694
     -2062.4694
  -6083541.05549  -4739139.18046  20956548.4724   20956547.4564
      1757.6684
 04  9  2 21 49 14.9990000  0  6G19G 3G 8G13G23G27
  -4588697.18047  -3567423.43043  23202856.0504   23202854.2804
      3005.8544
  -3552108.20347  -3744296.83643  22615022.5034   22615021.8784
      1031.3834
  -9871808.96148  -7679684.69544  22108110.1124   22108109.5424
      2993.8474
  -3032980.23849  -2354707.35546  19943515.1054   19943512.8234
       261.6034
   4452642.01648   3458772.74645  21721203.8704   21721200.2374
     -2067.9744
  -6109862.37949  -4759649.28946  20951539.9804   20951538.3974
      1754.7554
 04  9  2 21 49 29.9990000  0  6G19G 3G 8G13G23G27
  -4633715.44147  -3602502.52043  23194289.8004   23194287.8744
      3001.2174
  -3567441.13747  -3756244.55143  22612104.9404   22612105.2724
      1022.1964
  -9916676.17248  -7714646.14144  22099572.8314   22099570.9254
      2991.1474
  -3036788.09849  -2357674.51247  19942790.6674   19942788.6874
       253.8574
   4483741.29348   3483005.94144  21727121.7694   21727117.5464
     -2073.2854
  -6136142.73049  -4780127.48846  20946539.1594   20946537.3864
      1752.0234
 04  9  2 21 49 44.9990000  0  6G19G 3G 8G13G23G27
  -4678666.35547  -3637529.14143  23185735.6594   23185734.2104
      2996.7284
  -3582638.60547  -3768086.72743  22609212.8084   22609213.0344
      1013.1654
  -9961505.43448  -7749578.02344  22091041.4484   22091040.6204
      2988.6174
  -3040482.18449  -2360553.02747  19942087.5194   19942085.3864
       246.2724
   4514917.59848   3507299.14844  21733054.1984   21733050.6984
     -2078.4204
  -6162384.59849  -4800575.68046  20941544.9564   20941543.2024
      1749.4584
 04  9  2 21 49 59.9990000  0  6G19G 3G 8G13G23G27
  -4723544.84047  -3672499.31643  23177195.2764   23177193.6984
      2991.8994
  -3597695.81247  -3779819.59042  22606347.5264   22606347.3044
      1003.8144
 -10006291.85948  -7784476.53144  22082518.9484   22082518.0584
      2985.7624
  -3044057.77049  -2363339.19947  19941407.2764   19941405.0034
       238.3724
   4546175.55948   3531655.95744  21739002.3084   21738999.0894
     -2083.8644
  -6188583.27749  -4820990.23846  20936559.6054   20936557.8004
      1746.5794
 04  9  2 21 50 14.9990000  0  6G19G 3G 8G13G23G27
  -4768355.64847  -3707416.77743  23168668.4564   23168666.1444
      2987.3874
  -3612617.65647  -3791446.96943  22603508.1054   22603508.3274
       994.7904
 -10051040.54348  -7819345.60944  22074003.4094   22074002.7574
      2983.2464
  -3047519.90649  -2366036.97347  19940748.4094   19940746.2224
       230.8094
   4577509.95348   3556072.33245  21744965.4404   21744962.0074
     -2088.9604
  -6214743.85249  -4841375.09046  20931581.2924   20931580.0774
      1744.0384
 04  9  2 21 50 29.9990000  0  6G19G 3G 8G13G23G27
  -4813096.90647  -3742280.05143  23160153.6204   23160151.7534
      2982.7514
  -3627402.56247  -3802967.67643  22600695.1364   22600693.9134
       985.6604
 -10095749.92248  -7854184.08244  22065496.0034   22065494.5694
      2980.6254
  -3050867.01249  -2368645.11346  19940111.9724   19940109.1124
       223.1404
   4608921.91448   3580549.15644  21750942.8154   21750939.6944
     -2094.1314
  -6240864.83649  -4861729.09846  20926610.5814   20926609.5694
      1741.3994
 04  9  2 21 50 44.9990000  0  6G19G 3G 8G13G23G27
  -4857764.60947  -3777085.99643  23151653.9644   23151651.6204
      2977.8474
  -3642046.78547  -3814378.74242  22597907.8784   22597907.5934
       976.2824
 -10140416.28948  -7888989.01644  22056996.0034   22056995.1364
      2977.7584
  -3054095.21549  -2371160.59847  19939497.4014   19939494.8824
       215.2144
   4640415.14848   3605089.32044  21756936.0424   21756932.7654
     -2099.5494
  -6266942.64149  -4882049.45746  20921648.5814   20921647.1404
      1738.5204
 04  9  2 21 50 59.9990000  0  6G19G 3G 8G13G23G27
  -4902359.43447  -3811835.14843  23143167.6984   23143166.5544
      2972.9884
  -3656551.20347  -3825680.86342  22595147.7374   22595147.1834
       966.9614
 -10185040.68048  -7923761.25444  22048504.2224   22048503.4484
      2974.9594
  -3057205.64149  -2373584.30947  19938905.3234   19938903.0894
       207.3624
   4671988.34848   3629691.77344  21762944.0894   21762941.1874
     -2104.8804
  -6292978.27049  -4902336.95746  20916693.8234   20916692.5894
      1735.7094
 04  9  2 21 51 14.9990000  0  6G19G 3G 8G13G23G27
  -4946882.67247  -3846528.52043  23134694.9804   23134693.8664
      2968.2164
  -3670917.34447  -3836875.23843  22592414.1364   22592413.6874
       957.7434
 -10229624.57048  -7958501.93044  22040020.3944   22040018.9914
      2972.2594
  -3060199.83249  -2375917.44546  19938335.4644   19938333.0224
       199.6134
   4703639.84448   3654355.24644  21768967.3154   21768963.5584
     -2110.1004
  -6318973.25449  -4922592.78146  20911747.3474   20911745.6944
      1732.9994
 04  9  2 21 51 29.9990000  0  6G19G 3G 8G13G23G27
  -4991333.08247  -3881165.08643  23126235.9874   23126234.0934
      2963.3614
  -3685144.30547  -3847961.19543  22589706.8864   22589706.0934
       948.4644
 -10274167.38748  -7993210.60544  22031544.0034   22031542.8514
      2969.5214
  -3063076.89149  -2378159.31246  19937787.9334   19937785.4524
       191.8044
   4735370.30948   3679080.26244  21775005.1904   21775001.7534
     -2115.3644
  -6344926.88349  -4942816.37946  20906808.5734   20906807.0264
      1730.2424
 04  9  2 21 51 44.9990000  0  6G19G 3G 8G13G23G27
  -5035707.59847  -3915742.60543  23117792.7064   23117789.9834
      2958.3014
  -3699229.36747  -3858936.55142  22587026.5344   22587025.5384
       939.0044
 -10318666.34048  -8027885.10544  22023075.6124   22023074.9134
      2966.5974
  -3065834.07449  -2380307.77346  19937263.4174   19937260.9684
       183.8124
   4767182.14148   3703868.68444  21781059.0194   21781055.3864
     -2120.7894
  -6370836.59049  -4963005.75046  20901878.0264   20901876.4254
      1727.3144
 04  9  2 21 51 59.9990000  0  6G19G 3G 8G13G23G27
  -5080007.49647  -3950261.94943  23109362.7454   23109359.9054
      2953.3274
  -3713173.92247  -3869802.44943  22584373.1444   22584371.6124
       929.6374
 -10363123.07048  -8062526.69144  22014616.4404   22014615.1554
      2963.7824
  -3068472.74249  -2382363.87947  19936761.0894   19936758.5774
       175.9114
   4799073.80948   3728719.30144  21787127.3084   21787124.1874
     -2126.1114
  -6396703.89849  -4983162.09446  20896955.5654   20896954.5384
      1724.4874
 04  9  2 21 52 14.9990000  0  6G19G 3G 8G13G23G27
  -5124232.71547  -3984723.09443  23100946.3784   23100944.1014
      2948.3484
  -3726978.09847  -3880558.93443  22581745.9954   22581745.7144
       920.2784
 -10407537.67648  -8097135.45344  22006164.4874   22006163.4954
      2960.9744
  -3070993.25849  -2384327.92646  19936281.4404   19936278.7024
       168.0344
   4831044.91048   3753631.81344  21793211.5034   21793207.8554
     -2131.4074
  -6422528.97749  -5003285.52046  20892041.4094   20892039.9214
      1721.6724
 04  9  2 21 52 29.9990000  0  6G19G 3G 8G13G23G27
  -5168383.15647  -4019125.98043  23092545.1054   23092542.1904
      2943.3634
  -3740642.05147  -3891206.17242  22579145.9644   22579145.4294
       910.9304
 -10451910.41848  -8131711.60244  21997720.6834   21997719.4834
      2958.1834
  -3073395.75049  -2386199.99247  19935824.5814   19935821.9334
       160.1664
   4863094.87948   3778605.80144  21799310.5654   21799307.1204
     -2136.6654
  -6448312.08649  -5023376.24646  20887134.9564   20887133.3514
      1718.8744
 04  9  2 21 52 44.9990000  0  6G19G 3G 8G13G23G27
  -5212455.80546  -4053468.21942  23084158.4094   23084155.9174
      2938.1774
  -3754163.21946  -3901742.13742  22576571.9564   22576573.0624
       901.4114
 -10496238.71948  -8166253.12144  21989285.3004   21989284.5814
      2955.2204
  -3075677.60249  -2387978.07047  19935390.4254   19935387.8354
       152.1234
   4895226.12548   3803643.10244  21805424.8944   21805421.7804
     -2142.0834
  -6474050.80949  -5043432.38346  20882236.9724   20882235.4254
      1715.9154
 04  9  2 21 52 59.9990000  0  6G19G 3G 8G13G23G27
  -5256450.34846  -4087749.66042  23075785.6124   23075784.3274
      2932.9704
  -3767541.50846  -3912166.75042  22574026.2694   22574026.3864
       891.8864
 -10540522.55548  -8200759.99244  21980858.4954   21980857.7104
      2952.2564
  -3077838.79349  -2389662.10947  19934978.8784   19934977.0584
       144.0794
   4927438.47348   3828743.60244  21811554.4724   21811551.6874
     -2147.4904
  -6499745.07849  -5063453.89546  20877347.9954   20877345.2694
      1712.9514
 04  9  2 21 53 14.9990000  0  6G19G 3G 8G13G23G27
  -5300368.89547  -4121971.84842  23067428.3234   23067426.4054
      2927.9034
  -3780779.14146  -3922481.78142  22571507.3314   22571506.9834
       882.5094
 -10584764.21148  -8235233.98044  21972439.2534   21972438.2374
      2949.4444
  -3079881.52749  -2391253.85946  19934590.1984   19934587.7184
       136.1824
   4959729.48848   3853905.38744  21817699.6054   21817696.6874
     -2152.7344
  -6525397.27049  -5083442.60546  20872465.9254   20872464.4804
      1710.1464
 04  9  2 21 53 29.9990000  0  6G19G 3G 8G13G23G27
  -5344211.59047  -4156134.93042  23059085.7064   23059083.3154
      2922.8464
  -3793876.45747  -3932687.48042  22569015.8474   22569015.0694
       873.1544
 -10628964.17248  -8269675.48444  21964028.0034   21964027.1904
      2946.6644
  -3081806.42249  -2392753.77746  19934224.0424   19934221.5974
       128.3264
   4992098.48048   3879127.98044  21823859.5344   21823855.3234
     -2157.9334
  -6551008.02349  -5103399.02746  20867592.5034   20867590.5654
      1707.3844
 04  9  2 21 53 44.9990000  0  6G19G 3G 8G13G23G27
  -5387977.16847  -4190237.91443  23050757.2374   23050755.1754
      2917.7054
  -3806832.45747  -3942783.04742  22566549.6054   22566550.4604
       863.7334
 -10673121.47348  -8304083.76244  21955625.0424   21955623.9764
      2943.8204
  -3083612.40649  -2394161.03147  19933880.2614   19933877.8154
       120.3994
   5024546.32448   3904411.97744  21830033.7304   21830030.6554
     -2163.1904
  -6576576.19149  -5123322.27046  20862726.8624   20862725.4014
      1704.5454
 04  9  2 21 53 59.9990000  0  6G19G 3G 8G13G23G27
  -5431665.03547  -4224280.33243  23042444.1754   23042442.2144
      2912.5244
  -3819646.94947  -3952768.35243  22564112.1514   22564112.1164
       854.2994
 -10717236.12948  -8338458.78944  21947230.3474   21947230.0154
      2940.9774
  -3085299.24649  -2395475.46147  19933559.0734   19933556.6904
       112.4564
   5057072.80148   3929757.25044  21836223.8944   21836220.3084
     -2168.4324
  -6602101.80949  -5143212.34446  20857869.4174   20857868.0894
      1701.7084
 04  9  2 21 54 14.9990000  0  6G19G 3G 8G13G23G27
  -5475271.80947  -4258259.58243  23034145.8704   23034144.0974
      2907.1184
  -3832316.72747  -3962640.89543  22561700.5814   22561700.2024
       844.6524
 -10761304.73048  -8372797.93744  21938844.4484   21938843.9724
      2937.9074
  -3086863.86749  -2396694.66046  19933261.8704   19933259.2024
       104.3084
   5089680.95348   3955166.17244  21842428.5974   21842425.2964
     -2173.8774
  -6627581.65649  -5163066.77346  20853020.8784   20853019.4764
      1698.6574
 04  9  2 21 54 29.9990000  0  6G19G 3G 8G13G23G27
  -5518802.92646  -4292179.89543  23025862.1364   23025860.1634
      2902.0744
  -3844847.45747  -3972405.10943  22559316.0194   22559315.3124
       835.3824
 -10805333.27048  -8407105.87144  21930466.1674   21930465.2844
      2935.2364
  -3088311.82849  -2397822.94146  19932986.1514   19932983.3744
        96.5314
   5122364.82448   3980634.09844  21848648.5034   21848644.8004
     -2178.9254
  -6653021.59049  -5182890.09046  20848180.1124   20848178.5074
      1695.9964
 04  9  2 21 54 44.9990000  0  6G19G 3G 8G13G23G27
  -5562256.35246  -4326039.68043  23017593.9564   23017591.1674
      2896.8954
  -3857237.52047  -3982059.68443  22556958.3944   22556958.1244
       826.0044
 -10849320.13748  -8441381.32044  21922095.8154   21922095.1794
      2932.4584
  -3089641.57049  -2398859.10247  19932733.3154   19932730.4874
        88.6494
   5155125.96548   4006162.24244  21854882.4564   21854878.5654
     -2184.0764
  -6678420.02349  -5202681.07046  20843346.5194   20843344.9804
      1693.2294
 04  9  2 21 54 59.9990000  0  6G19G 3G 8G13G23G27
  -5605630.35546  -4359837.55143  23009339.1444   23009337.2144
      2891.6004
  -3869485.30547  -3991603.41843  22554627.2454   22554626.8354
       816.5194
 -10893263.56248  -8475622.93444  21913733.6904   21913732.8474
      2929.5624
  -3090851.57449  -2399801.96146  19932502.8624   19932500.4994
        80.6674
   5187965.74248   4031751.66844  21861131.4404   21861127.7924
     -2189.3184
  -6703775.43749  -5222438.53146  20838521.7924   20838519.7374
      1690.3614
 04  9  2 21 55 14.9990000  0  6G19G 3G 8G13G23G27
  -5648924.68046  -4393573.34843  23001100.9404   23001098.6834
      2886.2884
  -3881590.76647  -4001036.26642  22552323.8154   22552323.9994
       807.0314
 -10937163.59048  -8509830.72744  21905380.0974   21905378.5304
      2926.6684
  -3091941.85549  -2400651.53546  19932295.1904   19932293.0504
        72.6854
   5220883.70348   4057401.99644  21867395.3864   21867392.8624
     -2194.5314
  -6729087.93749  -5242162.54746  20833705.0034   20833703.2184
      1687.5004
 04  9  2 21 55 29.9990000  0  6G19G 3G 8G13G23G27
  -5692140.06647  -4427247.64543  22992877.0814   22992874.7654
      2881.0264
  -3893555.09047  -4010359.11742  22550047.7844   22550047.6834
       797.6224
 -10981021.47348  -8544005.68744  21897034.1054   21897032.7694
      2923.8594
  -3092913.59049  -2401408.73446  19932110.1674   19932107.9564
        64.7824
   5253878.56648   4083112.23844  21873674.7144   21873671.4134
     -2199.6584
  -6754358.76649  -5261854.10546  20828896.1204   20828894.6164
      1684.7224
 04  9  2 21 55 44.9990000  0  6G19G 3G 8G13G23G27
  -5735273.09046  -4460857.77743  22984669.1124   22984666.8664
      2875.5354
  -3905375.10247  -4019569.50442  22547798.2924   22547797.7224
       788.0014
 -11024834.10948  -8578145.37944  21888696.9334   21888694.9994
      2920.8424
  -3093763.59049  -2402071.07447  19931948.6054   19931946.0154
        56.6674
   5286953.37948   4108884.81344  21879968.6514   21879965.3944
     -2204.9874
  -6779584.69149  -5281510.65646  20824095.7224   20824094.4914
      1681.7284
 04  9  2 21 55 59.9990000  0  6G19G 3G 8G13G23G27
  -5778325.28946  -4494404.91443  22976476.3864   22976473.6364
      2870.1474
  -3917052.43047  -4028668.71942  22545575.9564   22545575.6944
       778.4894
 -11068603.41448  -8612251.32444  21880367.6124   21880366.3004
      2917.9544
  -3094493.62549  -2402639.93446  19931809.3784   19931807.3394
        48.6694
   5320106.09048   4134718.05144  21886277.0974   21886273.4404
     -2210.1814
  -6804767.62549  -5301133.70746  20819303.5344   20819302.0504
      1678.8624
 04  9  2 21 56 14.9990000  0  6G19G 3G 8G13G23G27
  -5821296.85547  -4527889.20743  22968299.1754   22968296.5504
      2864.7714
  -3928587.68747  -4037657.26643  22543381.2614   22543380.6714
       769.0174
 -11112329.91448  -8646323.89144  21872047.0974   21872045.6514
      2915.1004
  -3095104.21149  -2403115.71946  19931693.3394   19931691.0814
        40.7064
   5353335.87548   4160611.36744  21892600.4724   21892597.6754
     -2215.3194
  -6829908.20349  -5320723.75446  20814519.3084   20814517.3784
      1676.0394
 04  9  2 21 56 29.9990000  0  6G19G 3G 8G13G23G27
  -5864188.83247  -4561311.50443  22960136.7844   22960134.6164
      2859.4654
  -3939982.23846  -4046536.11342  22541211.8704   22541212.1714
       759.6374
 -11156014.83648  -8680364.07444  21863733.3704   21863732.1474
      2912.3284
  -3095596.78149  -2403499.54746  19931600.0344   19931597.1794
        32.8384
   5386641.16848   4186563.48444  21898938.9334   21898935.6244
     -2220.3534
  -6855007.84449  -5340281.91846  20809743.1204   20809741.0224
      1673.3094
 04  9  2 21 56 44.9990000  0  6G19G 3G 8G13G23G27
  -5906999.16448  -4594670.19943  22951990.5734   22951988.6714
      2854.0224
  -3951234.18047  -4055303.85542  22539071.2694   22539071.4954
       750.1294
 -11199656.35948  -8714370.43444  21855428.7764   21855427.8744
      2909.4354
  -3095969.50049  -2403789.96947  19931529.2144   19931526.4954
        24.8484
   5420023.52048   4212575.68844  21905291.0654   21905288.1554
     -2225.4904
  -6880064.69949  -5359806.73446  20804975.1204   20804973.0304
      1670.4574
 04  9  2 21 56 59.9990000  0  6G19G 3G 8G13G23G27
  -5949727.00047  -4627964.54343  22943859.2534   22943858.0734
      2848.5224
  -3962342.85547  -4063959.98843  22536957.6054   22536957.5584
       740.5784
 -11243254.02349  -8748342.60944  21847132.6204   21847131.5344
      2906.5114
  -3096221.69949  -2403986.49247  19931480.9954   19931478.7024
        16.8134
   5453483.54348   4238648.41044  21911658.0814   21911654.2724
     -2230.6684
  -6905078.32849  -5379297.86346  20800215.0504   20800213.2724
      1667.5754
 04  9  2 21 57 14.9990000  0  6G19G 3G 8G13G23G27
  -5992376.13746  -4661197.59043  22935743.7694   22935740.5654
      2843.2764
  -3973312.44147  -4072507.71543  22534870.1444   22534869.7844
       731.3064
 -11286812.29348  -8782284.09444  21838843.9564   21838842.8904
      2903.8854
  -3096357.62149  -2404092.39847  19931455.3474   19931452.7534
         9.0614
   5487016.82048   4264778.19144  21918039.1124   21918035.6324
     -2235.5524
  -6930052.83249  -5398758.50846  20795462.3624   20795460.7964
      1664.9674
 04  9  2 21 57 29.9990000  0  6G19G 3G 8G13G23G27
  -6034942.65648  -4694366.27743  22927643.9334   22927641.3044
      2837.7684
  -3984139.35247  -4080944.26243  22532809.9954   22532809.5974
       721.7944
 -11330327.33648  -8816191.89544  21830563.1284   21830562.0774
      2901.0034
  -3096373.59449  -2404104.84847  19931451.6834   19931449.6164
         1.0654
   5520626.60548   4290967.62544  21924434.6284   21924432.0814
     -2240.6524
  -6954984.75449  -5418185.96946  20790718.0194   20790716.8084
      1662.1284
 04  9  2 21 57 44.9990000  0  6G19G 3G 8G13G23G27
  -6077427.52748  -4727471.32043  22919559.1284   22919556.9254
      2832.3254
  -3994824.78546  -4089270.54743  22530775.7764   22530776.0074
       712.3624
 -11373800.21548  -8850066.84044  21822290.0504   21822289.6364
      2898.1924
  -3096270.88749  -2404024.81647  19931471.5034   19931468.8434
        -6.8474
   5554311.54348   4317215.58244  21930845.4724   21930841.7844
     -2245.6624
  -6979875.34849  -5437581.22346  20785981.7454   20785979.7184
      1659.3734
 04  9  2 21 57 59.9990000  0  6G19G 3G 8G13G23G27
  -6119832.85247  -4760514.37543  22911489.6514   22911487.6014
      2827.0224
  -4005371.05547  -4097488.41442  22528769.1284   22528769.6714
       703.0854
 -11417233.66048  -8883911.05944  21814025.0424   21814024.0974
      2895.5634
  -3096051.95349  -2403854.21947  19931513.2614   19931510.7184
       -14.5964
   5588068.97748   4343520.05944  21937268.5814   21937264.8624
     -2250.4964
  -7004727.05949  -5456946.19546  20781252.7454   20781251.1474
      1656.7814
 04  9  2 21 58 14.9990000  0  6G19G 3G 8G13G23G27
  -6162155.26247  -4793492.84443  22903436.1754   22903433.5584
      2821.4944
  -4015775.01646  -4105595.42643  22526789.9014   22526789.6634
       693.5974
 -11460624.28948  -8917721.91044  21805768.1054   21805767.3124
      2892.7094
  -3095713.73449  -2403590.68446  19931577.5424   19931574.8554
       -22.5484
   5621901.81648   4369883.30944  21943707.3234   21943704.0934
     -2255.5234
  -7029536.83649  -5476278.48046  20776531.3554   20776529.5854
      1653.9854
 04  9  2 21 58 29.9990000  0  6G19G 3G 8G13G23G27
  -6204393.79348  -4826405.95743  22895398.1904   22895395.9644
      2815.9024
  -4026035.98447  -4113591.00042  22524837.7374   22524836.7304
       684.0654
 -11503971.59848  -8951499.01644  21797519.5424   21797518.7964
      2889.8214
  -3095255.51649  -2403233.63746  19931664.8704   19931662.0654
       -30.5484
   5655810.43448   4396305.56344  21950160.0584   21950157.2304
     -2260.5744
  -7054304.00449  -5495577.56646  20771818.2534   20771816.5624
      1651.1454
 04  9  2 21 58 44.9990000  0  6G19G 3G 8G13G23G27
  -6246549.54747  -4859254.57843  22887375.5424   22887373.8474
      2810.3844
  -4036155.44946  -4121476.25842  22522911.2844   22522910.8584
       674.6314
 -11547277.03148  -8985243.47744  21789279.0814   21789277.8394
      2887.0294
  -3094678.60949  -2402784.09447  19931774.1514   19931771.9954
       -38.4604
   5689793.34048   4422785.72344  21956626.6364   21956623.2804
     -2265.5274
  -7079030.12149  -5514844.66046  20767112.9014   20767111.3154
      1648.4084
 04  9  2 21 58 59.9990000  0  6G19G 3G 8G13G23G27
  -6288622.08647  -4892038.34043  22879369.6834   22879367.7494
      2804.8364
  -4046133.40247  -4129251.27742  22521012.3704   22521012.3474
       665.1974
 -11590540.73048  -9018955.43744  21781046.0734   21781045.4484
      2884.2474
  -3093982.99249  -2402242.05946  19931906.7064   19931904.8904
       -46.3744
   5723850.28548   4449323.57444  21963107.6054   21963103.0694
     -2270.4634
  -7103715.19949  -5534079.77346  20762415.5034   20762414.0694
      1645.6724
 04  9  2 21 59 14.9990000  0  6G19G 3G 8G13G23G27
  -6330608.23447  -4924754.79743  22871379.8624   22871377.2614
      2799.0774
  -4055966.85547  -4136913.70342  22519141.6834   22519140.4524
       655.5644
 -11633759.52748  -9052632.39144  21772821.7534   21772821.4054
      2881.2534
  -3093165.74649  -2401605.23846  19932062.2694   19932059.8864
       -54.4834
   5757984.04748   4475921.28544  21969602.8314   21969599.3554
     -2275.5844
  -7128356.20749  -5553280.55546  20757726.2694   20757724.9874
      1642.7344
 04  9  2 21 59 29.9990000  0  6G19G 3G 8G13G23G27
  -6372508.86747  -4957404.58642  22863406.0654   22863403.6794
      2793.3764
  -4065656.81247  -4144464.30543  22517297.8784   22517296.8234
       645.9974
 -11676934.60948  -9086275.29344  21764605.4094   21764604.3154
      2878.3394
  -3092228.09849  -2400874.60947  19932241.0814   19932238.5384
       -62.5104
   5792193.24248   4502577.77044  21976112.2224   21976109.3394
     -2280.6134
  -7152954.45749  -5572448.02046  20753045.6984   20753044.2694
      1639.8834
 04  9  2 21 59 44.9990000  0  6G19G 3G 8G13G23G27
  -6414324.45347  -4989988.11742  22855448.1904   22855446.4914
      2787.7064
  -4075204.14547  -4151903.78943  22515480.8864   22515480.2024
       636.4894
 -11720066.82048  -9119884.78144  21756397.7064   21756397.1084
      2875.4814
  -3091170.78549  -2400050.73846  19932441.9484   19932439.7024
       -70.4874
   5826476.82848   4529292.20744  21982636.7614   21982633.3434
     -2285.5724
  -7177510.69949  -5591582.75046  20748372.9404   20748370.9994
      1637.0834
 04  9  2 21 59 59.9990000  0  6G19G 3G 8G13G23G27
  -6456049.56647  -5022501.14143  22847508.8554   22847507.1054
      2781.6744
  -4084603.55948  -4159227.98843  22513692.0034   22513691.5894
       626.6284
 -11763150.96548  -9153456.82444  21748199.0424   21748198.1674
      2872.2764
  -3089988.63349  -2399129.57446  19932667.1284   19932664.5074
       -78.8104
   5860839.81348   4556068.52344  21989175.3314   21989172.1714
     -2290.8664
  -7202019.86749  -5610680.79746  20743708.7924   20743707.1554
      1633.9454
 04  9  2 22  0 14.9990000  0  6G19G 3G 8G13G23G27
  -6497690.24648  -5054948.40243  22839585.7534   22839582.4954
      2776.0454
  -4093861.36748  -4166441.88343  22511930.6284   22511930.0224
       617.1874
 -11806193.22748  -9186996.21945  21740008.8234   21740007.0694
      2869.4844
  -3088688.16049  -2398116.22746  19932914.3234   19932911.9684
       -86.6984
   5895275.69948   4582901.64144  21995728.9564   21995725.8124
     -2295.7264
  -7226488.22349  -5629747.04346  20739052.6204   20739051.0544
      1631.2244
 04  9  2 22  0 29.9990000  0  7G19G 3G 8G13G10G23G27
  -6539246.29347  -5087329.71943  22831677.2694   22831674.5774
      2770.4034
  -4102977.66448  -4173545.46943  22510196.3784   22510195.1164
       607.7534
 -11849193.96548  -9220503.26644  21731825.9644   21731824.5854
      2866.7164
  -3087269.46549  -2397010.75447  19933184.5194   19933181.7654
       -94.5804
   -121544.52056    -87597.44152  23760430.4804   23760430.9054

   5929784.10248   4609791.28944  22002295.1204   22002292.5694
     -2300.5604
  -7250916.15249  -5648781.78946  20734404.2454   20734402.8514
      1628.5294
 04  9  2 22  0 44.9990000  0  7G19G 3G 8G13G10G23G27
  -6580717.66047  -5119644.99243  22823785.5424   22823782.2654
      2764.7584
  -4111952.82047  -4180539.09043  22508488.0734   22508487.1794
       598.3444
 -11892153.33648  -9253978.08244  21723651.0264   21723650.2374
      2863.9584
  -3085732.59049  -2395813.19547  19933476.8624   19933474.3124
      -102.4584
   -164116.58645   -120770.46142  23752330.1754   23752329.5114
      2838.1384
   5964364.67648   4636737.15644  22008875.9724   22008872.5224
     -2305.3724
  -7275303.74249  -5667785.09446  20729763.1754   20729761.9374
      1625.8394
 04  9  2 22  0 59.9990000  0  7G19G 3G 8G13G10G23G27
  -6622105.22347  -5151895.00843  22815909.4254   22815906.8274
      2759.1714
  -4120788.05548  -4187423.68743  22506806.9874   22506805.5034
       589.0164
 -11935072.80148  -9287421.79744  21715483.3704   21715482.8554
      2861.2984
  -3084078.83249  -2394524.54347  19933791.6984   19933789.0344
      -110.2514
   -206577.13746   -153856.55942  23744249.8154   23744249.2844
      2830.7034
   5999015.94948   4663738.10244  22015469.5194   22015466.9174
     -2310.0854
  -7299652.31249  -5686758.00846  20725130.1364   20725128.4724
      1623.2384
 04  9  2 22  1 14.9990000  0  7G19G 3G 8G13G10G23G27
  -6663409.09448  -5184079.77343  22808049.4334   22808047.5774
      2753.5914
  -4129483.68447  -4194199.47743  22505151.6054   22505151.1124
       579.7094
 -11977952.64548  -9320834.63344  21707323.3704   21707323.2024
      2858.6564
  -3082308.54349  -2393145.10946  19934128.2064   19934126.1404
      -118.0194
   -248926.23046   -186855.84442  23736190.8554   23736189.8744
      2823.2734
   6033737.30548   4690793.66044  22022076.7764   22022074.2694
     -2314.7574
  -7323962.25449  -5705700.81246  20720503.8314   20720502.2534
      1620.6634
 04  9  2 22  1 29.9990000  0  7G19G 3G 8G13G10G23G27
  -6704628.52348  -5216198.78143  22800206.2924   22800203.8744
      2747.9624
  -4138039.31247  -4200866.15642  22503523.7224   22503522.9954
       570.3754
 -12020792.31648  -9354216.17244  21699171.7224   21699170.6794
      2855.9784
  -3080421.45349  -2391674.64846  19934487.5974   19934484.9994
      -125.8064
   -291163.31646   -219767.82042  23728154.6674   23728151.9994
      2815.8064
   6068528.85548   4717903.91844  22028697.7224   22028693.8234
     -2319.4374
  -7348233.20749  -5724613.22746  20715885.4724   20715883.7104
      1618.0644
 04  9  2 22  1 44.9990000  0  7G19G 3G 8G13G10G23G27
  -6745762.89548  -5248251.48443  22792378.3864   22792376.6554
      2742.2914
  -4146454.52747  -4207423.46142  22501922.1444   22501921.3864
       561.0144
 -12063591.45748  -9387566.14845  21691026.9874   21691025.9484
      2853.2764
  -3078417.04749  -2390112.78146  19934869.2534   19934866.7184
      -133.6274
   -333287.75045   -252592.02742  23720137.5814   23720136.6944
      2808.2964
   6103390.85948   4745069.10944  22035331.6904   22035327.3124
     -2324.1344
  -7372464.74249  -5743494.93746  20711274.0654   20711272.3824
      1615.4364
 04  9  2 22  1 59.9990000  0  7G19G 3G 8G13G10G23G27
  -6786813.60548  -5280239.00043  22784566.9254   22784564.8824
      2736.7144
  -4154731.07447  -4213872.68742  22500346.8314   22500346.4994
       551.7704
 -12106351.89848  -9420885.94544  21682890.1204   21682889.2724
      2850.6964
  -3076297.18449  -2388460.94146  19935272.2614   19935269.8864
      -141.3244
   -375301.12946   -285329.69542  23712143.0734   23712141.8784
      2800.8924
   6138321.36748   4772287.66444  22041978.9724   22041976.3554
     -2328.7014
  -7396658.79749  -5762347.44946  20706670.3084   20706668.4604
      1612.9374
 04  9  2 22  2 14.9990000  0  7G19G 3G 8G13G10G23G27
  -6827775.24648  -5312157.13743  22776772.4334   22776769.6554
      2730.7764
  -4162863.74247  -4220209.82442  22498799.2614   22498798.2964
       542.1784
 -12149068.37949  -9454171.50444  21674761.6124   21674760.3904
      2847.7654
  -3074056.53549  -2386714.98446  19935698.7144   19935696.2964
      -149.3774
   -417198.01246   -317976.59442  23704170.3784   23704170.0464
      2793.1264
   6173325.26248   4799563.37144  22048640.0974   22048637.4134
     -2333.5934
  -7420810.15249  -5781166.68746  20702074.5734   20702072.5974
      1610.0904
 04  9  2 22  2 29.9990000  0  7G19G 3G 8G13G10G23G27
  -6868647.36347  -5344005.48043  22768993.3704   22768991.1904
      2724.8084
  -4170852.30147  -4226434.65243  22497279.3864   22497277.5264
       532.5714
 -12191740.73848  -9487422.67644  21666641.0654   21666639.9334
      2844.8244
  -3071695.02749  -2384874.85246  19936148.2694   19936145.8394
      -157.4344
   -458978.00046   -350532.40642  23696219.0194   23696218.2964
      2785.3334
   6208402.66048   4826896.35944  22055315.6444   22055311.7374
     -2338.4934
  -7444918.57049  -5799952.46546  20697486.7224   20697484.8624
      1607.2284
 04  9  2 22  2 44.9990000  0  7G19G 3G 8G13G10G23G27
  -6909430.77347  -5375784.71543  22761232.8554   22761231.6904
      2718.8944
  -4178698.04348  -4232548.21143  22495786.8394   22495785.6054
       523.0494
 -12234370.43048  -9520640.60544  21658529.3234   21658528.1244
      2841.9794
  -3069213.93749  -2382941.53946  19936620.2844   19936617.8474
      -165.4064
   -500642.18746   -382997.98842  23688291.3624   23688289.5344
      2777.6134
   6243552.01248   4854285.43444  22062003.4804   22062000.2654
     -2343.2904
  -7468985.52349  -5818705.92246  20692907.0504   20692905.2104
      1604.4644
 04  9  2 22  2 59.9990000  0  7G19G 3G 8G13G10G23G27
  -6950127.15647  -5407496.13743  22753488.6054   22753486.8864
      2713.0924
  -4186402.90648  -4238551.98443  22494319.9644   22494320.3704
       513.6584
 -12276959.23448  -9553826.67644  21650424.2614   21650423.7654
      2839.2544
  -3066615.22349  -2380916.55947  19937115.0264   19937112.3474
      -173.2484
   -542192.26845   -415374.59842  23680384.0264   23680383.7804
      2770.0054
   6278771.05948   4881728.83244  22068705.8084   22068702.3154
     -2347.9364
  -7493012.75449  -5837428.42646  20688334.3554   20688333.1014
      1601.8154
 04  9  2 22  3 14.9990000  0  7G19G 3G 8G13G10G23G27
  -6990735.91047  -5439139.31243  22745761.2534   22745758.3314
      2707.2504
  -4193966.52348  -4244445.71143  22492881.5504   22492880.0584
       504.2414
 -12319506.68048  -9586980.50444  21642327.8084   21642327.6054
      2836.4964
  -3063898.57049  -2378799.68747  19937631.5034   19937629.3044
      -181.1104
   -583627.57446   -447661.85542  23672499.0654   23672499.1474
      2762.3544
   6314059.99248   4909226.68444  22075421.0194   22075417.6674
     -2352.5964
  -7517000.15649  -5856119.91046  20683769.9094   20683768.5464
      1599.1604
 04  9  2 22  3 29.9990000  0  7G19G 3G 8G13G10G23G27
  -7031252.09848  -5470710.30944  22738051.9874   22738049.5504
      2701.0794
  -4201384.35548  -4250225.83643  22491469.8234   22491468.7924
       494.5224
 -12362008.23448  -9620098.59045  21634240.5424   21634239.3864
      2833.4374
  -3061059.30149  -2376587.27346  19938172.2064   19938169.6834
      -189.2854
   -624943.36346   -479855.91842  23664636.2304   23664636.6474
      2754.3864
   6349423.29748   4936782.46944  22082150.8784   22082146.6944
     -2357.5544
  -7540942.99249  -5874776.65646  20679213.9954   20679212.3354
      1596.1894
 04  9  2 22  3 44.9990000  0  7G19G 3G 8G13G10G23G27
  -7071676.91047  -5502210.10944  22730358.5894   22730356.8864
      2694.9884
  -4208657.71948  -4255893.38743  22490085.9014   22490084.9914
       484.8914
 -12404465.37148  -9653182.06244  21626161.2304   21626160.3554
      2830.4764
  -3058098.88748  -2374280.46146  19938735.1284   19938733.3044
      -197.3614
   -666140.85946   -511957.85242  23656797.4804   23656797.0854
      2746.5004
   6384859.43448   4964395.01244  22088894.1204   22088889.8234
     -2362.4094
  -7564842.74249  -5893399.84046  20674665.9254   20674664.3784
      1593.3174
 04  9  2 22  3 59.9990000  0  7G19G 3G 8G13G10G23G27
  -7112010.55547  -5533638.90644  22722683.5974   22722682.0424
      2688.9104
  -4215787.34848  -4261448.92643  22488728.3084   22488728.2184
       475.3094
 -12446878.63748  -9686231.34844  21618090.0734   21618088.6754
      2827.5514
  -3055018.02749  -2371879.80147  19939321.7844   19939319.7454
      -205.3914
   -707220.60946   -543968.04342  23648980.0194   23648979.7144
      2738.6504
   6420367.39148   4992063.52344  22095650.9094   22095647.3474
     -2367.1974
  -7588700.14849  -5911990.02346  20670126.2844   20670124.5264
      1590.4944
 04  9  2 22  4 14.9990000  0  7G19G 3G 8G13G10G23G27
  -7152258.60947  -5565000.98444  22715024.9564   22715022.2724
      2683.2044
  -4222779.17647  -4266897.05543  22487397.6984   22487398.1594
       466.1224
 -12489254.12148  -9719251.19144  21610026.0814   21610024.8004
      2825.0324
  -3051822.46549  -2369389.75447  19939929.6204   19939927.3784
      -213.0374
   -748188.09046   -575890.75442  23641184.0194   23641183.8314
      2731.1654
   6455941.35548   5019783.44144  22102420.2694   22102416.8154
     -2371.5984
  -7612521.03149  -5930551.74646  20665592.8154   20665591.2924
      1588.0594
 04  9  2 22  4 29.9990000  0  7G19G 3G 8G13G10G23G27
  -7192414.94147  -5596291.60543  22707383.1754   22707380.3274
      2677.0894
  -4229627.40648  -4272233.31643  22486094.9484   22486094.6874
       456.5494
 -12531585.70748  -9752236.82444  21601970.6514   21601969.3944
      2822.1064
  -3048506.64549  -2366806.00447  19940560.7924   19940558.2694
      -221.0554
   -789037.30547   -607721.28542  23633410.8474   23633410.1834
      2723.2814
   6491586.64848   5047558.96544  22109203.4484   22109199.4014
     -2376.3534
  -7636299.63749  -5949080.50846  20661068.2614   20661066.5074
      1585.2404
 04  9  2 22  4 44.9990000  0  7G19G 3G 8G13G10G23G27
  -7232479.33648  -5627510.56243  22699759.2694   22699756.8974
      2670.9604
  -4236331.73848  -4277457.46943  22484818.5584   22484818.3864
       446.9554
 -12573873.54748  -9785188.37144  21593923.6514   21593922.3154
      2819.1894
  -3045070.23849  -2364128.27747  19941214.5504   19941211.9014
      -229.0944
   -829768.02746   -639459.47742  23625660.4724   23625659.0264
      2715.3824
   6527303.19947   5075390.00844  22116000.0264   22115996.3864
     -2381.1034
  -7660035.91049  -5967576.30146  20656551.1754   20656549.0624
      1582.4184
 04  9  2 22  4 59.9990000  0  7G19G 3G 8G13G10G23G27
  -7272450.93047  -5658657.22743  22692152.5034   22692149.5114
      2664.7734
  -4242891.71548  -4282569.12143  22483570.8394   22483570.1284
       437.3324
 -12616117.00048  -9818105.32844  21585884.8154   21585883.9134
      2816.2304
  -3041512.74249  -2361356.20747  19941891.6514   19941889.4174
      -237.1664
   -870379.42246   -671104.69942  23617931.8004   23617931.7884
      2707.4264
   6563091.43048   5103276.89544  22122810.2064   22122807.0074
     -2385.8824
  -7683729.35949  -5986038.72346  20652042.5584   20652040.4604
      1579.5634
 04  9  2 22  5 14.9990000  0  7G19G 3G 8G13G10G23G27
  -7312333.80147  -5689734.75043  22684563.2844   22684561.1514
      2658.8584
  -4249311.78548  -4287571.75843  22482349.3554   22482348.9404
       428.0054
 -12658320.35948  -9850991.04345  21577854.3624   21577852.2024
      2813.5574
  -3037838.65649  -2358493.28947  19942590.8084   19942588.3704
      -244.9394
   -910875.88746   -702660.35942  23610225.4644   23610225.7414
      2699.7644
   6598946.61347   5131215.97344  22129633.2764   22129630.0774
     -2390.3464
  -7707384.32049  -6004471.15646  20647541.1754   20647539.7304
      1576.9974
 04  9  2 22  5 29.9990000  0  7G19G 3G 8G13G10G23G27
  -7352122.65647  -5720739.03543  22676991.4334   22676989.0934
      2652.5904
  -4255587.10248  -4292461.60243  22481155.0424   22481155.1204
       418.3544
 -12700478.79748  -9883841.74245  21569831.5114   21569830.0584
      2810.5634
  -3034043.14549  -2355535.75847  19943313.0114   19943310.3704
      -253.0344
   -951252.06246   -734122.29742  23602542.0584   23602542.2334
      2691.7454
   6634873.52748   5159210.94144  22136470.5974   22136467.3864
     -2395.1284
  -7730996.02049  -6022869.87546  20643047.9014   20643046.3354
      1574.1134
 04  9  2 22  5 44.9990000  0  7G19G 3G 8G13G10G23G27
  -7391816.44947  -5751669.22343  22669438.2224   22669435.1944
      2646.2534
  -4261716.79348  -4297237.99243  22479988.9014   22479988.3704
       408.6464
 -12742591.53549  -9916656.85944  21561817.5894   21561816.1594
      2807.5164
  -3030125.28949  -2352482.87947  19944058.5504   19944055.9214
      -261.1904
   -991506.97745   -765489.72742  23594882.2374   23594881.7104
      2683.6614
   6670872.76247   5187262.26644  22143319.5894   22143317.8944
     -2399.9494
  -7754563.53149  -6041234.16446  20638563.0654   20638561.8434
      1571.1674
 04  9  2 22  5 59.9990000  0  7G19G 3G 8G13G10G23G27
  -7431416.67247  -5782526.52343  22661901.9094   22661899.4094
      2640.0154
  -4267702.73848  -4301902.33643  22478849.5504   22478848.9374
       399.0634
 -12784660.36348  -9949437.75044  21553811.7924   21553810.7964
      2804.5894
  -3026087.00049  -2349336.16047  19944827.0894   19944824.3744
      -269.2194
  -1031642.21146   -796763.90642  23587244.2694   23587244.1634
      2675.6824
   6706942.33647   5215368.35944  22150184.6674   22150181.4834
     -2404.6384
  -7778088.75449  -6059565.50046  20634086.5264   20634084.9764
      1568.3484
 04  9  2 22  6 14.9990000  0  7G19G 3G 8G13G10G23G27
  -7470919.98847  -5813308.27343  22654385.4014   22654381.9174
      2633.5544
  -4273541.64148  -4306452.12942  22477738.2064   22477738.2024
       389.2604
 -12826682.15648  -9982181.98445  21545815.6444   21545814.6474
      2801.4534
  -3021924.96949  -2346093.02746  19945618.9564   19945616.6284
      -277.4694
  -1071654.46146   -827942.27342  23579630.8234   23579629.7144
      2667.4834
   6743085.12547   5243531.57044  22157062.0814   22157059.4804
     -2409.5194
  -7801568.46149  -6077861.37146  20629618.4404   20629616.8044
      1565.3144
 04  9  2 22  6 29.9990000  0  7G19G 3G 8G13G10G23G27
  -7510329.69547  -5844017.10943  22646885.5814   22646882.3084
      2627.3144
  -4279237.39147  -4310890.36742  22476653.8474   22476652.8354
       379.7174
 -12868660.72748 -10014892.52344  21537827.0894   21537825.9444
      2798.5714
  -3017643.15249  -2342756.55146  19946434.0194   19946431.3514
      -285.4544
  -1111547.24247   -859027.54742  23572039.6444   23572038.3004
      2659.5194
   6779297.07847   5271748.65244  22163952.4094   22163950.3784
     -2414.1304
  -7825006.64149  -6096124.87546  20625158.1984   20625156.5894
      1562.5454
 04  9  2 22  6 44.9990000  0  7G19G 3G 8G13G10G23G27
  -7549647.62947  -5874654.42243  22639403.5584   22639401.0384
      2621.1964
  -4284792.05948  -4315218.66843  22475597.3474   22475595.9294
       370.3114
 -12910598.21149 -10047571.07845  21529846.8554   21529845.7574
      2795.8324
  -3013243.53949  -2339328.27746  19947271.0034   19947268.7374
      -293.3084
  -1151322.45346   -890021.19542  23564469.9954   23564470.0544
      2651.6814
   6815576.08247   5300017.95744  22170856.3234   22170853.8154
     -2418.6004
  -7848405.27049  -6114357.56646  20620705.6834   20620704.2694
      1559.9094
 04  9  2 22  6 59.9990000  0  7G19G 3G 8G13G10G23G27
  -7588872.97747  -5905219.60543  22631939.0974   22631937.0424
      2615.0234
  -4290205.02048  -4319436.53943  22474567.0974   22474566.5074
       360.8644
 -12952493.84049 -10080216.99645  21521874.5114   21521873.0974
      2793.0424
  -3008725.64149  -2335807.84447  19948130.8624   19948128.5344
      -301.1934
  -1190979.35246   -920922.63742  23556923.0194   23556923.6474
      2643.7934
   6851922.47747   5328339.78144  22177772.9014   22177770.5034
     -2423.0934
  -7871763.81249  -6132559.02346  20616260.4334   20616259.1874
      1557.2364
 04  9  2 22  7 14.9990000  0  7G19G 3G 8G13G10G23G27
  -7628005.93748  -5935712.78943  22624492.7844   22624489.6444
      2608.8644
  -4295476.80948  -4323544.41043  22473563.2454   22473563.4174
       351.4534
 -12994347.93749 -10112830.57045  21513909.7614   21513908.8434
      2790.2734
  -3004089.95749  -2332195.62547  19949013.3234   19949010.7454
      -309.0464
  -1230518.09046   -951732.04742  23549399.6984   23549399.1444
      2635.9164
   6888335.53146   5356713.56343  22184702.1204   22184699.2614
     -2427.5374
  -7895082.75449  -6150729.61346  20611823.0264   20611821.7414
      1554.5964
 04  9  2 22  7 29.9990000  0  7G19G 3G 8G13G10G23G27
  -7667038.07848  -5966127.40643  22617065.5504   22617062.7414
      2602.1434
  -4300599.41448  -4327536.06242  22472588.7534   22472588.0224
       341.5074
 -13036152.77749 -10145405.74245  21505954.8394   21505953.8554
      2786.9894
  -2999328.41849  -2328485.33647  19949919.0734   19949916.7534
      -317.4364
  -1269930.51646   -982442.99242  23541899.5264   23541898.8084
      2627.4954
   6924823.00047   5385145.34044  22191645.3474   22191643.4094
     -2432.4984
  -7918354.07449  -6168863.10546  20607394.6904   20607393.5384
      1551.4214
 04  9  2 22  7 44.9990000  0  7G19G 3G 8G13G10G23G27
  -7705974.20348  -5996467.19943  22609655.3554   22609653.7454
      2595.7424
  -4305578.02348  -4331415.47343  22471641.9564   22471641.6714
       331.9074
 -13077913.26649 -10177946.35245  21498008.3864   21498007.2304
      2784.0334
  -2994446.24649  -2324681.04746  19950848.2844   19950845.9874
      -325.4784
  -1309221.55946  -1013059.34042  23534422.6054   23534422.0154
      2619.4034
   6961379.73847   5413631.04344  22198602.1594   22198599.8154
     -2437.1164
  -7941582.79349  -6186963.39146  20602974.4014   20602973.3944
      1548.5814
 04  9  2 22  7 59.9990000  0  7G19G 3G 8G13G10G23G27
  -7744817.25847  -6026734.48443  22602264.1834   22602261.0114
      2589.5374
  -4310415.77748  -4335185.15643  22470721.1514   22470720.5544
       322.5174
 -13119632.69549 -10210454.98845  21490068.5974   21490067.9014
      2781.2954
  -2989446.60949  -2320785.23446  19951799.6904   19951797.4054
      -333.3094
  -1348394.23846  -1043583.50042  23526968.5654   23526967.7144
      2611.5124
   6998002.24248   5442168.03944  22205571.6754   22205568.8664
     -2441.5004
  -7964772.32849  -6205033.15246  20598561.6364   20598560.3944
      1545.9694
 04  9  2 22  8 14.9990000  0  7G19G 3G 8G13G10G23G27
  -7783562.95747  -6056925.92243  22594890.8624   22594886.6754
      2583.0474
  -4315108.76648  -4338842.00443  22469828.6284   22469827.7574
       312.8664
 -13161306.98848 -10242928.44145  21482138.7304   21482137.4834
      2778.2864
  -2984325.48449  -2316794.75447  19952774.1834   19952771.4804
      -341.4084
  -1387444.34046  -1074012.10242  23519537.6054   23519536.7494
      2603.3404
   7034694.30948   5470759.20743  22212553.7454   22212550.2224
     -2446.1384
  -7987918.62949  -6223069.22346  20594157.5584   20594155.7264
      1543.0874
 04  9  2 22  8 29.9990000  0  7G19G 3G 8G13G10G23G27
  -7822213.02048  -6087042.82043  22587535.7614   22587533.2454
      2576.6714
  -4319658.92248  -4342387.58243  22468962.4014   22468961.5544
       303.3444
 -13202938.14849 -10275368.28545  21474216.6204   21474215.0504
      2775.4114
  -2979085.00049  -2312711.25847  19953771.4174   19953768.8354
      -349.3664
  -1426373.46946  -1104346.44942  23512129.5654   23512129.1554
      2595.2754
   7071453.67648   5499402.85244  22219548.9804   22219545.6944
     -2450.6244
  -8011023.61749  -6241073.09846  20589760.5894   20589758.8744
      1540.3334
 04  9  2 22  8 44.9990000  0  7G19G 3G 8G13G10G23G27
  -7860765.94547  -6117084.03143  22580199.3084   22580197.7264
      2570.1954
  -4324065.11748  -4345820.95743  22468123.8784   22468122.7224
       293.7464
 -13244524.87149 -10307773.49244  21466302.3944   21466301.7304
      2772.4484
  -2973723.80149  -2308533.70346  19954791.3944   19954789.0114
      -357.4134
  -1465180.28546  -1134585.52042  23504745.0424   23504744.1474
      2587.1214
   7108281.36748   5528099.73044  22226557.0584   22226553.3974
     -2455.1794
  -8034086.20349  -6259043.93746  20585371.8084   20585370.5424
      1537.5064
 04  9  2 22  8 59.9990000  0  8G19G 3G 8G13G10G28G23G27
  -7899221.30547  -6147049.21943  22572882.3554   22572879.2104
      2563.6914
  -4328327.32847  -4349142.16043  22467312.7454   22467311.3974
       284.1474
 -13286067.06249 -10340144.00845  21458397.4564   21458396.1984
      2769.4794
  -2968241.91849  -2304262.09846  19955834.6754   19955831.9684
      -365.4594
  -1503864.58645  -1164729.07042  23497383.4484   23497382.8234
      2578.9534
   -170930.70357   -123330.35952  23806208.0344   23806208.4914

   7145177.27047   5556849.75444  22233578.0034   22233575.2884
     -2459.7274
  -8057106.20749  -6276981.60546  20580991.0034   20580989.6754
      1534.6674
 04  9  2 22  9 14.9990000  0  8G19G 3G 8G13G10G28G23G27
  -7937581.05547  -6176939.91843  22565582.7454   22565578.6014
      2557.3174
  -4332447.75848  -4352352.86742  22466528.6444   22466528.1904
       274.6954
 -13327567.10548 -10372481.67645  21450500.0584   21450499.0264
      2766.6704
  -2962641.50849  -2299898.14847  19956900.3624   19956897.8434
      -373.3614
  -1542428.35945  -1194778.74642  23490044.8394   23490044.6474
      2570.9184
   -230988.39546   -170128.52042  23794779.8154   23794780.4834
      4003.8464
   7182139.01247   5585651.06343  22240611.5034   22240608.9564
     -2464.1164
  -8080085.85549  -6294887.80946  20576618.1754   20576616.6514
      1531.9774
 04  9  2 22  9 29.9990000  0  8G19G 3G 8G13G10G28G23G27
  -7975847.32047  -6206757.74643  22558300.1984   22558297.2724
      2551.0844
  -4336428.79748  -4355454.97343  22465771.0344   22465770.9994
       265.4034
 -13369027.35549 -10404788.35245  21442610.1834   21442608.9094
      2764.0174
  -2956925.00049  -2295443.73847  19957988.2614   19957985.6124
      -381.1014
  -1580873.88346  -1224736.24642  23482728.7764   23482728.3624
      2563.0354
   -291013.91446   -216901.59441  23783356.4254   23783357.2304
      4001.7014
   7219163.96948   5614501.63344  22247657.0264   22247654.0154
     -2468.3304
  -8103027.63749  -6312764.52046  20572252.8784   20572251.3704
      1529.4524
 04  9  2 22  9 44.9990000  0  8G19G 3G 8G13G10G28G23G27
  -8014016.72346  -6236500.10943  22551036.3704   22551033.8664
      2544.6274
  -4340267.48448  -4358446.12943  22465040.6594   22465040.1714
       255.9134
 -13410444.61749 -10437061.52345  21434729.4094   21434727.6284
      2761.1514
  -2951089.52749  -2290896.62147  19959098.7614   19959096.2574
      -389.0324
  -1619197.74645  -1254599.02342  23475436.0814   23475434.8514
      2554.9244
   -351004.02346   -263647.08241  23771941.5584   23771940.6984
      3999.3414
   7256254.96548   5643403.66444  22254715.3554   22254712.7454
     -2472.7334
  -8125928.44548  -6330609.30146  20567894.8944   20567893.1204
      1526.7214
 04  9  2 22  9 59.9990000  0  8G19G 3G 8G13G10G28G23G27
  -8052089.75047  -6266167.37943  22543791.7844   22543788.7224
      2538.2024
  -4343964.60248  -4361326.99643  22464336.8154   22464336.4134
       246.4744
 -13451819.91849 -10469302.00445  21426855.3394   21426854.0854
      2758.3534
  -2945135.74649  -2286257.30947  19960231.8554   19960229.3124
      -396.9194
  -1657400.69546  -1284367.49642  23468166.2064   23468165.4374
      2546.8634
   -410959.37147   -310365.48841  23760532.2694   23760532.1754
      3997.0234
   7293410.98848   5672356.38343  22261786.0424   22261782.6754
     -2477.0684
  -8148789.11349  -6348422.79746  20563544.6594   20563542.9094
      1524.0454
 04  9  2 22 10 14.9990000  0  8G19G 3G 8G13G10G28G23G27
  -8090067.66447  -6295760.54343  22536564.6754   22536561.3274
      2531.8614
  -4347521.64848  -4364098.72743  22463659.9804   22463659.3824
       237.1364
 -13493154.69949 -10501510.89845  21418990.0194   21418988.4404
      2755.6524
  -2939065.32049  -2281527.10546  19961386.6514   19961384.4834
      -404.6954
  -1695484.09446  -1314042.85942  23460919.6364   23460918.1474
      2538.8934
   -470881.27046   -357057.80142  23749129.2224   23749130.6594
      3994.7934
   7330630.21547   5701358.35944  22268868.3084   22268865.9994
     -2481.2824
  -8171611.29748  -6366206.30946  20559201.2304   20559199.8474
      1521.4794
 04  9  2 22 10 29.9980000  0  8G19G 3G 8G13G10G28G23G27
  -8127943.09047  -6325273.82442  22529357.4754   22529354.0294
      2525.0284
  -4350933.98048  -4366757.66043  22463010.5844   22463010.2444
       227.4894
 -13534441.45349 -10533682.37945  21411133.2644   21411132.2364
      2752.4504
  -2932874.09049  -2276702.77746  19962564.9434   19962562.6194
      -412.7494
  -1733440.48445  -1343619.21542  23453696.8654   23453694.5224
      2530.4264
   -530761.10946   -403717.29741  23737734.5374   23737735.7644
      3991.9894
   7367914.63347   5730411.10944  22275963.7324   22275960.5644
     -2485.6284
  -8194388.78148  -6383954.99646  20554867.0764   20554865.2564
      1518.4994
 04  9  2 22 10 44.9980000  0  8G19G 3G 8G13G10G28G23G27
  -8165724.55947  -6354713.92243  22522167.4284   22522164.0764
      2518.7654
  -4354205.82448  -4369307.17642  22462388.5844   22462387.3504
       218.1234
 -13575689.53149 -10565823.70745  21403284.1864   21403282.8504
      2749.8724
  -2926565.10949  -2271786.68746  19963765.4204   19963763.0644
      -420.5994
  -1771278.62546  -1373103.45342  23446496.4984   23446494.4284
      2522.5434
   -590610.45746   -450353.06642  23726345.0294   23726346.3544
      3989.9574
   7405265.14148   5759515.39844  22283071.2014   22283068.6114
     -2490.0344
  -8217128.35249  -6401674.12546  20550540.0534   20550538.1504
      1515.9714
 04  9  2 22 10 59.9980000  0  8G19G 3G 8G13G10G28G23G27
  -8203405.76647  -6384075.86743  22514997.1234   22514992.9634
      2512.0804
  -4357333.59448  -4371744.36742  22461793.0614   22461792.7724
       208.5184
 -13616892.64849 -10597930.03145  21395443.1394   21395442.4394
      2746.8744
  -2920135.06649  -2266776.27347  19964989.4284   19964986.5684
      -428.6704
  -1808992.21546  -1402490.66042  23439319.3504   23439318.2874
      2514.2394
   -650421.63345   -496959.09842  23714963.4984   23714963.5924
      3987.4124
   7442682.57048   5788671.81643  22290191.6474   22290188.9164
     -2494.4954
  -8239825.21148  -6419359.98046  20546220.7724   20546219.2254
      1513.1244
 04  9  2 22 11 14.9980000  0  8G19G 3G 8G13G10G28G23G27
  -8240987.77748  -6413360.51243  22507845.7404   22507842.3034
      2505.4674
  -4360318.43048  -4374070.21142  22461224.7324   22461224.2994
       198.9894
 -13658052.03149 -10630002.25045  21387610.9984   21387610.0724
      2743.9594
  -2913585.63349  -2261672.81647  19966235.6234   19966233.1584
      -436.6294
  -1846582.41046  -1431781.71942  23432166.4984   23432165.0924
      2506.0134
   -710195.68745   -543536.24241  23703588.3574   23703588.8694
      3984.9374
   7480165.37947   5817879.17243  22297324.1474   22297321.3144
     -2498.8544
  -8262480.50849  -6437013.45746  20541909.8734   20541908.0844
      1510.3534
 04  9  2 22 11 29.9980000  0  8G19G 3G 8G13G10G28G23G27
  -8278467.79748  -6442565.70343  22500714.0924   22500709.4474
      2498.6684
  -4363157.96948  -4376282.82843  22460684.5224   22460684.3854
       189.3034
 -13699165.35249 -10662038.58244  21379787.1314   21379785.7994
      2740.8884
  -2906914.20749  -2256474.30547  19967505.1864   19967502.4204
      -444.7624
  -1884046.62146  -1460974.56242  23425037.0684   23425035.7914
      2497.6144
   -769930.13746   -590082.46141  23692221.2014   23692221.9794
      3982.2974
   7517715.93447   5847139.32043  22304470.0294   22304466.3614
     -2503.3704
  -8285091.78548  -6454632.62546  20537606.6004   20537605.1234
      1507.4184
 04  9  2 22 11 44.9980000  0  8G19G 3G 8G13G10G28G23G27
  -8315844.73447  -6471690.58643  22493601.1004   22493597.8304
      2491.7964
  -4365851.51248  -4378381.70343  22460172.4904   22460171.5844
       179.5704
 -13740231.78549 -10694038.37945  21371972.2564   21371971.2834
      2737.7624
  -2900120.06248  -2251180.16446  19968797.5924   19968795.4944
      -452.9434
  -1921383.75446  -1490068.40242  23417932.3424   23417931.0764
      2489.1424
   -829623.82446   -636596.96141  23680862.5844   23680862.2604
      3979.5794
   7555334.67647   5876452.60243  22311628.2324   22311625.2684
     -2507.9164
  -8307658.27048  -6472216.89146  20533312.4434   20533310.4364
      1504.4324
 04  9  2 22 11 59.9980000  0  8G19G 3G 8G13G10G28G23G27
  -8353117.90647  -6500734.57443  22486508.4514   22486505.6314
      2484.8784
  -4368398.67648  -4380366.50043  22459687.1624   22459686.1584
       169.8114
 -13781250.86349 -10726001.27345  21364166.6154   21364165.1624
      2734.6054
  -2893202.77748  -2245790.07846  19970114.3894   19970111.8574
      -461.1524
  -1958593.25047  -1519062.80142  23410851.3814   23410850.6234
      2480.6334
   -889276.30946   -683079.33641  23669511.3424   23669510.8574
      3976.8324
   7593021.84047   5905819.18043  22318799.8734   22318797.0104
     -2512.4784
  -8330179.55148  -6489765.91846  20529026.8654   20529025.2054
      1501.4194
 04  9  2 22 12 14.9980000  0  8G19G 3G 8G13G10G28G23G27
  -8390291.57847  -6529701.03943  22479433.8504   22479430.0644
      2478.2454
  -4370803.95747  -4382240.71942  22459229.2174   22459228.5024
       160.3524
 -13822227.27049 -10757930.92645  21356369.2174   21356367.7404
      2731.7604
  -2886166.97348  -2240307.64146  19971453.1314   19971450.9084
      -469.0544
  -1995679.50446  -1547961.14142  23403793.6314   23403793.2724
      2472.4174
   -948891.86745   -729532.96541  23658166.2724   23658166.6044
      3974.3714
   7630772.69147   5935235.37943  22325983.6934   22325981.1274
     -2516.7234
  -8352660.21548  -6507283.32446  20524749.1234   20524747.3734
      1498.7114
 04  9  2 22 12 29.9980000  0  8G19G 3G 8G13G10G28G23G27
  -8427361.38347  -6558586.58243  22472380.1934   22472376.7954
      2471.3204
  -4373063.34048  -4384001.30143  22458800.2254   22458798.0574
       150.6264
 -13863156.77049 -10789824.03145  21348580.2404   21348579.3464
      2728.6334
  -2879008.62149  -2234729.70346  19972815.1934   19972812.9164
      -477.2234
  -2032638.23046  -1576760.12542  23396761.2564   23396760.5024
      2463.9154
  -1008466.35546   -775954.56641  23646829.0534   23646829.7174
      3971.6334
   7668591.11347   5964704.23444  22333180.6474   22333178.2014
     -2521.2284
  -8375096.27748  -6524765.95746  20520479.3894   20520477.9394
      1495.7384
 04  9  2 22 12 44.9980000  0  8G19G 3G 8G13G10G28G23G27
  -8464327.91047  -6587391.64543  22465345.2564   22465341.9434
      2464.4354
  -4375177.79748  -4385648.93742  22458397.6784   22458395.7644
       140.9644
 -13904040.11749 -10821681.16045  21340800.4434   21340799.2794
      2725.5574
  -2871728.48849  -2229056.87946  19974200.3814   19974198.3264
      -485.3424
  -2069469.99246  -1605460.17642  23389752.0924   23389752.0254
      2455.4514
  -1068000.31246   -822344.62942  23635500.8424   23635500.5924
      3968.9304
   7706475.99247   5994224.86744  22340390.0764   22340387.8264
     -2525.6594
  -8397488.54349  -6542214.46946  20516218.6934   20516216.5294
      1492.8184
 04  9  2 22 12 59.9980000  0  8G19G 3G 8G13G10G28G23G27
  -8501189.94547  -6616115.29743  22458330.7644   22458328.0684
      2457.4694
  -4377146.45748  -4387182.93743  22458022.9364   22458022.3184
       131.2444
 -13944876.48849 -10853501.69945  21333029.7094   21333028.9944
      2722.4254
  -2864325.79349  -2223288.54746  19975609.2484   19975606.6074
      -493.5134
  -2106173.82846  -1634060.55142  23382767.4514   23382767.2444
      2446.9224
  -1127492.88746   -868702.35242  23624179.1394   23624179.1544
      3966.1724
   7744428.00047   6023797.82043  22347611.9674   22347608.7994
     -2530.1344
  -8419835.93049  -6559628.01646  20511965.4984   20511964.1274
      1489.8264
 04  9  2 22 13 14.9980000  0  8G19G 3G 8G13G10G28G23G27
  -8537949.25047  -6644758.87943  22451335.6704   22451333.3344
      2450.6204
  -4378971.38348  -4388604.97742  22457675.4674   22457674.5684
       121.6624
 -13985667.82849 -10885287.13745  21325267.3184   21325266.4164
      2719.4234
  -2856802.60949  -2217426.32446  19977041.0224   19977038.1584
      -501.5464
  -2142751.52746  -1662562.61742  23375806.7014   23375806.2834
      2438.5134
  -1186945.75846   -915029.20741  23612865.7174   23612866.0534
      3963.5254
   7782445.02347   6053421.43043  22354845.9124   22354842.9944
     -2534.4684
  -8442140.57048  -6577008.24646  20507721.2564   20507719.6784
      1486.9764
 04  9  2 22 13 29.9980000  0  8G19G 3G 8G13G10G28G23G27
  -8574605.21548  -6673321.91843  22444360.6544   22444357.4984
      2443.7314
  -4380652.42648  -4389914.85943  22457355.9754   22457354.4634
       112.0704
 -14026414.00449 -10917037.38345  21317513.9364   21317512.7524
      2716.4124
  -2849158.72749  -2211470.04747  19978495.5374   19978493.1864
      -509.5924
  -2179202.68746  -1690966.10542  23368870.5454   23368869.9944
      2430.0774
  -1246358.56246   -961324.84042  23601559.9204   23601559.9864
      3960.8544
   7820526.93447   6083095.61743  22362092.7404   22362089.6274
     -2538.7944
  -8464402.33649  -6594355.06246  20503484.9594   20503483.2994
      1484.1184
 04  9  2 22 13 44.9980000  0  8G19G 3G 8G13G10G28G23G27
  -8611156.97747  -6701803.78543  22437405.2174   22437401.3424
      2436.7844
  -4382188.98447  -4391112.16042  22457063.3034   22457061.9754
       102.4374
 -14067114.24649 -10948751.84445  21309768.9904   21309767.7094
      2713.3494
  -2841393.50849  -2205419.23446  19979973.0684   19979970.5224
      -517.6814
  -2215526.45346  -1719270.30542  23361958.0294   23361957.6154
      2421.5844
  -1305730.52047  -1007588.62542  23590261.9364   23590262.2524
      3958.1304
   7858674.18847   6112820.71943  22369352.4434   22369348.9324
     -2543.1504
  -8486620.48449  -6611667.89846  20499257.2794   20499255.3504
      1481.2104
 04  9  2 22 13 59.9980000  0  8G19G 3G 8G13G10G28G23G27
  -8647606.74247  -6730206.17243  22430468.4904   22430464.3854
      2429.9844
  -4383583.51247  -4392198.78942  22456797.2954   22456796.3384
        92.9684
 -14107770.91449 -10980432.34845  21302031.9124   21302030.9514
      2710.4454
  -2833509.40249  -2199275.78146  19981473.6394   19981470.9164
      -525.6074
  -2251725.05146  -1747476.99242  23355069.9204   23355068.7834
      2413.2404
  -1365063.85947  -1053822.34842  23578970.8814   23578970.5764
      3955.5564
   7896884.06647   6142594.62143  22376623.7724   22376620.5224
     -2547.3254
  -8508797.46149  -6628948.65246  20495037.1784   20495035.2914
      1478.4654
 04  9  2 22 14 14.9980000  0  8G19G 3G 8G13G10G28G23G27
  -8683951.91847  -6758527.07043  22423552.1784   22423548.1824
      2423.0124
  -4384833.91448  -4393173.11742  22456559.5534   22456558.2644
        83.3604
 -14148381.84849 -11012077.21545  21294303.9904   21294302.1784
      2707.3964
  -2825504.38349  -2193038.09846  19982997.0534   19982994.3344
      -533.6684
  -2287796.18046  -1775584.35542  23348205.2564   23348205.0804
      2404.7424
  -1424356.30147  -1100024.16442  23567688.6474   23567687.0924
      3952.8294
   7935158.64547   6172418.94943  22383906.8654   22383903.6894
     -2551.6394
  -8530931.23449  -6646195.74246  20490825.4124   20490823.6394
      1475.5854
 04  9  2 22 14 29.9980000  0  8G19G 3G 8G13G10G28G23G27
  -8720189.10546  -6786763.81243  22416656.1704   22416653.6394
      2415.8134
  -4385936.76648  -4394032.48842  22456350.4364   22456348.4634
        73.5234
 -14188943.92249 -11043684.01245  21286584.7794   21286583.9864
      2704.1384
  -2817375.03149  -2186703.54747  19984543.8114   19984541.2484
      -541.9574
  -2323736.43046  -1803589.71542  23341366.8574   23341366.1744
      2396.0174
  -1483604.20347  -1146191.32042  23556413.4044   23556412.1584
      3949.8604
   7973501.11747   6202296.16843  22391203.1784   22391200.2644
     -2556.1654
  -8553018.32049  -6663406.44546  20486622.0064   20486620.5684
      1472.4724
 04  9  2 22 14 44.9980000  0  8G19G 3G 8G13G10G28G23G27
  -8756323.64147  -6814920.54743  22409779.7174   22409776.5764
      2408.9694
  -4386897.96947  -4394781.46942  22456166.8114   22456164.9904
        64.0804
 -14229462.66049 -11075257.03145  21278874.7174   21278873.7644
      2701.2494
  -2809127.09448  -2180276.58646  19986113.2954   19986111.0144
      -549.8624
  -2359551.06247  -1831497.18742  23334551.3814   23334550.6274
      2387.6424
  -1542813.11747  -1192328.07842  23545146.9904   23545145.6154
      3947.2614
   8011905.53947   6232221.66844  22398511.0144   22398508.8264
     -2560.2954
  -8575064.34049  -6680585.16446  20482426.9204   20482425.4124
      1469.7354
 04  9  2 22 14 59.9980000  0  8G19G 3G 8G13G10G28G23G27
  -8792354.50047  -6842996.53143  22402923.7954   22402918.8034
      2402.0574
  -4387716.84448  -4395419.52342  22456010.8034   22456009.3894
        54.5924
 -14269937.30949 -11106795.69945  21271172.6074   21271171.6434
      2698.3104
  -2800760.09449  -2173756.84846  19987705.3424   19987703.0684
      -557.8004
  -2395239.34047  -1859306.21942  23327760.1394   23327759.8694
      2379.2184
  -1601982.32847  -1238433.91442  23533886.7484   23533886.9324
      3944.6144
   8050372.27046   6262195.70344  22405830.9434   22405828.7994
     -2564.4494
  -8597068.77748  -6697731.47346  20478239.8264   20478238.5064
      1466.9634
 04  9  2 22 15 14.9980000  0  8G19G 3G 8G13G10G28G23G27
  -8828283.38746  -6870993.03143  22396087.0144   22396082.7134
      2395.2594
  -4388395.39147  -4395948.28542  22455881.9044   22455881.5454
        45.2364
 -14310369.57449 -11138301.35245  21263478.7254   21263477.7684
      2695.4844
  -2792275.93748  -2167145.82446  19989319.9514   19989317.5964
      -565.6104
  -2430802.95347  -1887018.09442  23320991.6864   23320991.7054
      2370.9084
  -1661113.46947  -1284510.05942  23522634.5454   23522635.2524
      3942.0764
   8088899.23447   6292216.66844  22413162.8574   22413160.6894
     -2568.4644
  -8619033.55148  -6714846.87146  20474059.5454   20474058.2564
      1464.3184
 04  9  2 22 15 29.9980000  0  8G19G 3G 8G13G10G28G23G27
  -8864107.97746  -6898908.26643  22389269.8034   22389266.2724
      2388.3064
  -4388931.79348  -4396366.24643  22455779.7724   22455779.3654
        35.7604
 -14350757.68449 -11169772.59045  21255793.4284   21255791.8774
      2692.5414
  -2783672.49648  -2160441.84446  19990957.0844   19990954.4904
      -573.5634
  -2466239.83646  -1914631.25042  23314248.7724   23314247.9594
      2362.4594
  -1720204.36747  -1330554.82842  23511389.4984   23511389.8574
      3939.3934
   8127488.11347   6322285.88343  22420505.6544   22420502.7524
     -2572.5924
  -8640956.63748  -6731929.78946  20469887.6234   20469886.4324
      1461.5394
 04  9  2 22 15 44.9980000  0  8G19G 3G 8G13G10G28G23G27
  -8899827.48847  -6926741.66043  22382472.4904   22382469.9394
      2381.3014
  -4389325.54348  -4396673.06643  22455705.2644   22455704.5844
        26.2504
 -14391101.19149 -11201209.06645  21248116.2724   21248114.5534
      2689.5674
  -2774949.45348  -2153644.67646  19992617.0144   19992614.4284
      -581.5364
  -2501549.27047  -1942145.07842  23307530.0534   23307528.9164
      2353.9624
  -1779254.37947  -1376567.77342  23500152.8814   23500153.0804
      3936.6674
   8166139.24647   6352403.62544  22427861.7874   22427858.2254
     -2576.7424
  -8662837.51248  -6748979.82046  20465723.8814   20465722.4324
      1458.7254
 04  9  2 22 15 59.9980000  0  8G19G 3G 8G13G10G28G23G27
  -8935445.95746  -6954496.27343  22375694.2794   22375692.6504
      2374.5654
  -4389580.85248  -4396872.00843  22455656.4204   22455656.0224
        17.0214
 -14431404.18449 -11232613.98845  21240446.6314   21240445.2794
      2686.8664
  -2766110.90648  -2146757.49246  19994298.7724   19994296.5804
      -589.2364
  -2536735.27346  -1969562.70342  23300833.8974   23300833.4164
      2345.7344
  -1838267.49646  -1422551.96542  23488922.9044   23488923.5924
      3934.2084
   8204848.22347   6382566.44144  22435227.3894   22435223.6504
     -2580.5984
  -8684680.44548  -6766000.28146  20461567.4514   20461565.6044
      1456.1964
 04  9  2 22 16 14.9980000  0  8G19G 3G 8G13G10G28G23G27
  -8970957.11346  -6982167.26243  22368935.7094   22368934.0684
      2367.4104
  -4389691.88348  -4396958.53943  22455635.1394   22455634.5534
         7.4024
 -14471660.48449 -11263982.52045  21232785.8344   21232784.6154
      2683.7534
  -2757151.23448  -2139775.93046  19996003.6864   19996001.4824
      -597.3114
  -2571791.72746  -1996879.39842  23294162.5684   23294162.4324
      2337.0974
  -1897237.89146  -1468502.80942  23477701.2954   23477701.7914
      3931.3604
   8243620.77747   6412778.77744  22442605.6784   22442602.3934
     -2584.8374
  -8706479.39148  -6782986.46546  20457419.4044   20457417.8384
      1453.2634
 04  9  2 22 16 29.9980000  0  8G19G 3G 8G13G10G28G23G27
  -9006361.78946  -7009755.28943  22362199.4284   22362196.2054
      2360.3124
  -4389659.80547  -4396933.52343  22455641.5064   22455640.9984
        -2.1394
 -14511871.69549 -11295315.89545  21225134.0844   21225133.0964
      2680.7474
  -2748071.53549  -2132700.84446  19997731.4904   19997729.6354
      -605.3134
  -2606719.44946  -2024095.80142  23287516.2724   23287515.4984
      2328.5154
  -1956166.34846  -1514421.02042  23466487.1784   23466487.7214
      3928.5644
   8282455.47747   6443039.54744  22449995.8504   22449992.7254
     -2588.9804
  -8728235.59449  -6799939.34446  20453279.1544   20453277.8974
      1450.4144
 04  9  2 22 16 44.9980000  0  8G19G 3G 8G13G10G28G23G27
  -9041657.81646  -7037258.66843  22355483.1704   22355480.5024
      2353.0684
  -4389482.85948  -4396795.64143  22455674.9124   22455674.7324
       -11.7964
 -14552035.92249 -11326612.68045  21217491.0614   21217490.1744
      2677.6154
  -2738869.89848  -2125530.75446  19999482.6314   19999480.5804
      -613.4424
  -2641516.59046  -2051210.43042  23280894.5684   23280893.7054
      2319.8094
  -2015050.75847  -1560304.93442  23455282.2644   23455282.2954
      3925.6274
   8321354.07446   6473350.09443  22457397.0224   22457394.5964
     -2593.2404
  -8749947.08648  -6816857.37946  20449147.7014   20449146.1934
      1447.4334
 04  9  2 22 16 59.9980000  0  8G19G 3G 8G13G10G28G23G27
  -9076848.78146  -7064680.16443  22348786.4514   22348783.4324
      2346.0644
  -4389164.93048  -4396547.89142  22455735.5374   22455734.4594
       -21.1954
 -14592156.73849 -11357875.62945  21209856.6074   21209855.3814
      2674.7214
  -2729550.28149  -2118268.71546  20001255.9364   20001253.9364
      -621.3084
  -2676186.80546  -2078226.14542  23274296.8814   23274296.6154
      2311.3484
  -2073894.72346  -1606157.31641  23444083.6624   23444083.7994
      3922.9314
   8360312.49246   6503707.27043  22464811.0454   22464808.2564
     -2597.2284
  -8771617.77748  -6833743.62946  20445023.9824   20445022.1194
      1444.7134
 04  9  2 22 17 14.9980000  0  8G19G 3G 8G13G10G28G23G27
  -9111933.63347  -7092019.00043  22342109.8814   22342106.4984
      2338.9904
  -4388705.25848  -4396189.69142  22455822.8814   22455822.0574
       -30.6454
 -14632233.18449 -11389104.00845  21202230.0144   21202228.7214
      2671.7634
  -2720112.00049  -2110914.20746  20003052.3574   20003049.9394
      -629.2194
  -2710729.12947  -2105142.21942  23267724.4984   23267723.8774
      2302.8224
  -2132697.42646  -1651977.51641  23432893.9044   23432894.7564
      3920.1804
   8399331.24247   6534111.44943  22472235.9514   22472233.1194
     -2601.2504
  -8793246.82849  -6850597.42646  20440907.9204   20440906.6744
      1441.9374
 04  9  2 22 17 29.9980000  0  8G19G 3G 8G13G10G28G23G27
  -9146912.35246  -7119275.11343  22335452.8814   22335450.0224
      2331.9154
  -4388104.17248  -4395721.31643  22455937.5224   22455937.1354
       -40.0724
 -14672265.70349 -11420298.16845  21194612.2254   21194610.8854
      2668.8354
  -2710555.39849  -2103467.51646  20004870.8424   20004868.4794
      -637.1074
  -2745143.62546  -2131958.70742  23261174.8184   23261174.0644
      2294.3004
  -2191459.07446  -1697765.70741  23421712.6314   23421712.8694
      3917.4434
   8438409.93847   6564562.34843  22479672.0764   22479669.8974
     -2605.2464
  -8814834.55149  -6867419.02346  20436800.0924   20436798.7174
      1439.1824
 04  9  2 22 17 44.9980000  0  8G19G 3G 8G13G10G28G23G27
  -9181780.69546  -7146445.20743  22328817.5844   22328815.5844
      2324.5564
  -4387357.71947  -4395139.66443  22456079.4984   22456079.6974
       -49.7644
 -14712250.13349 -11451454.83645  21187003.1934   21187001.8974
      2665.6294
  -2700876.35249  -2095925.40246  20006712.7014   20006709.9284
      -645.2704
  -2779426.21146  -2158672.36742  23254650.6704   23254650.7564
      2285.5064
  -2250175.35946  -1743518.58642  23410539.8344   23410538.9284
      3914.4194
   8477552.34847   6595062.87943  22487121.0224   22487118.5064
     -2609.4944
  -8836376.84849  -6884205.21946  20432700.9364   20432699.1974
      1436.1534
 04  9  2 22 17 59.9980000  0  8G19G 3G 8G13G10G28G23G27
  -9216538.47346  -7173529.14143  22322203.6784   22322201.1974
      2317.1854
  -4386466.06248  -4394444.86743  22456249.0064   22456248.9514
       -59.4444
 -14752186.46549 -11482574.03945  21179403.3114   21179402.5574
      2662.4224
  -2691075.01649  -2088287.99646  20008577.6864   20008575.1624
      -653.4224
  -2813576.62547  -2185283.05542  23248153.1314   23248152.5724
      2276.6944
  -2308846.14546  -1789235.98842  23399374.1784   23399374.0184
      3911.3864
   8516758.06347   6625612.75443  22494582.0374   22494579.2134
     -2613.7144
  -8857873.81249  -6900956.09446  20428609.7724   20428608.0884
      1433.1314
 04  9  2 22 18 14.9980000  0  8G19G 3G 8G13G10G28G23G27
  -9251187.62547  -7200528.45343  22315610.1394   22315607.1894
      2309.9434
  -4385431.64548  -4393638.81643  22456445.8894   22456445.3574
       -68.9614
 -14792077.21149 -11513657.72345  21171812.6394   21171811.7134
      2659.3834
  -2681153.77349  -2080557.16046  20010466.0844   20010463.1234
      -661.4164
  -2847597.00046  -2211792.44142  23241678.9904   23241678.6434
      2268.0254
  -2367473.59046  -1834919.62941  23388217.4364   23388217.5494
      3908.4964
   8556024.65247   6656210.04743  22502054.2724   22502051.9474
     -2617.7734
  -8879327.74649  -6917673.43446  20424527.0614   20424525.4554
      1430.2624
 04  9  2 22 18 29.9980000  0  8G19G 3G 8G13G10G28G23G27
  -9285728.28546  -7227443.23443  22309036.9594   22309034.3224
      2302.7114
  -4384254.85947  -4392721.85243  22456669.5684   22456669.6784
       -78.4524
 -14831922.67249 -11544706.11345  21164230.5924   21164229.4004
      2656.3644
  -2671113.03149  -2072733.20746  20012376.4124   20012373.6974
      -669.3834
  -2881487.62947  -2238200.71542  23235229.9984   23235229.2994
      2259.3754
  -2426057.73447  -1880569.56242  23377069.6624   23377068.6704
      3905.6104
   8595351.57047   6686854.38343  22509538.6394   22509536.1114
     -2621.7954
  -8900739.04749  -6934357.55146  20420452.8814   20420451.3344
      1427.4204
 04  9  2 22 18 44.9980000  0  8G19G 3G 8G13G10G28G23G27
  -9320158.28546  -7254271.77743  22302485.2954   22302482.7484
      2295.3334
  -4382933.96148  -4391692.57043  22456921.0224   22456920.7954
       -88.0604
 -14871720.85949 -11575717.65645  21156656.8264   21156655.6584
      2653.2134
  -2660951.05549  -2064814.77346  20014310.5144   20014307.5724
      -677.4654
  -2915246.61347  -2264506.39542  23228805.4674   23228804.6504
      2250.5994
  -2484596.77347  -1926184.30142  23365929.8974   23365930.0924
      3902.6034
   8634740.36747   6717546.91843  22517033.1784   22517030.1664
     -2625.9204
  -8922105.77049  -6951006.93746  20416386.8034   20416385.4124
      1424.4484
 04  9  2 22 18 59.9980000  0  8G19G 3G 8G13G10G28G23G27
  -9354476.92647  -7281013.52343  22295954.7564   22295951.9754
      2287.9094
  -4381468.47348  -4390550.62543  22457199.9754   22457199.1974
       -97.6994
 -14911471.17249 -11606691.91445  21149092.6784   21149090.9474
      2650.0214
  -2650667.19149  -2056801.38346  20016266.9904   20016264.6234
      -685.5914
  -2948873.01246  -2290708.75842  23222406.6314   23222405.9244
      2241.7604
  -2543089.85947  -1971763.29342  23354799.1394   23354799.3184
      3899.5394
   8674191.43448   6748287.99243  22524540.9824   22524538.1074
     -2630.0714
  -8943427.40249  -6967621.18746  20412329.3974   20412327.7914
      1421.4424
 04  9  2 22 19 14.9980000  0  8G19G 3G 8G13G10G28G23G27
  -9388687.28947  -7307670.90643  22289444.9514   22289441.8504
      2280.6914
  -4379861.91848  -4389298.74243  22457506.2254   22457504.8034
      -107.1044
 -14951177.16449 -11637631.61745  21141536.7484   21141535.5964
      2647.0664
  -2640265.09449  -2048695.86346  20018246.6624   20018244.1314
      -693.4734
  -2982370.12947  -2316810.39842  23216031.6934   23216031.7564
      2233.1414
  -2601540.39847  -2017309.08642  23343676.1314   23343676.7254
      3896.7034
   8713700.98447   6779074.59043  22532059.8504   22532056.7524
     -2633.9704
  -8964707.46949  -6984203.05546  20408279.8814   20408278.2754
      1418.6714
 04  9  2 22 19 29.9980000  0  8G19G 3G 8G13G10G28G23G27
  -9422786.65647  -7334241.78943  22282956.0224   22282952.9634
      2273.2914
  -4378111.80947  -4387935.01243  22457838.8424   22457837.6434
      -116.6744
 -14990836.16049 -11668534.71545  21133989.8264   21133988.2644
      2643.9334
  -2629742.13749  -2040496.15646  20020249.1474   20020246.9364
      -701.5304
  -3015735.30946  -2342809.22342  23209682.7404   23209682.6274
      2224.3454
  -2659945.53547  -2062819.51642  23332562.0764   23332561.7994
      3893.6764
   8753271.49647   6809908.74243  22539588.7174   22539586.6824
     -2638.0344
  -8985943.26249  -7000750.41446  20404238.7564   20404237.2794
      1415.7204
 04  9  2 22 19 44.9980000  0  8G19G 3G 8G13G10G28G23G27
  -9456774.50447  -7360725.80944  22276488.1784   22276485.7684
      2265.8574
  -4376218.08648  -4386459.38743  22458199.5144   22458198.2134
      -126.2484
 -15030447.97749 -11699401.03945  21126452.1474   21126450.9634
      2640.7884
  -2619098.35249  -2032202.29746  20022274.8034   20022272.4284
      -709.5864
  -3048968.33246  -2368705.06242  23203358.8894   23203358.6154
      2215.5354
  -2718305.06247  -2108294.40642  23321456.4984   23321455.6504
      3890.6354
   8792902.93846   6840790.34843  22547130.6154   22547128.4634
     -2642.0964
  -9007134.67249  -7017263.19146  20400206.1864   20400205.0224
      1412.7614
 04  9  2 22 19 59.9980000  0  8G19G 3G 8G13G10G28G23G27
  -9490650.75047  -7387122.83643  22270041.9204   22270039.5414
      2258.4164
  -4374181.01247  -4384872.06643  22458586.5224   22458585.8854
      -135.8054
 -15070012.92249 -11730230.84445  21118923.0534   21118921.8304
      2637.6634
  -2608333.91849  -2023814.43746  20024323.1394   20024320.5574
      -717.6294
  -3082069.02747  -2394497.78942  23197060.1004   23197059.7524
      2206.7134
  -2776618.84047  -2153733.66442  23310359.8424   23310358.7644
      3887.5854
   8832594.85247   6871719.05942  22554683.6544   22554681.6544
     -2646.1284
  -9028281.82849  -7033741.48846  20396182.0764   20396180.7604
      1409.8104
 04  9  2 22 20 14.9980000  0  8G19G 3G 8G13G10G28G23G27
  -9524416.63347  -7413433.85543  22263616.4434   22263614.2484
      2251.0594
  -4372002.04347  -4383174.14843  22459000.8894   22458999.9594
      -145.2654
 -15109532.21149 -11761025.07045  21111403.1314   21111401.8694
      2634.6194
  -2597450.41049  -2015333.78547  20026394.2254   20026391.6544
      -725.5674
  -3115038.80146  -2420188.50442  23190786.2724   23190785.6234
      2197.9854
  -2834888.28947  -2199138.38742  23299271.8654   23299270.5454
      3884.6304
   8872345.59447   6902693.61342  22562247.8424   22562245.7484
     -2650.0494
  -9049386.20749  -7050186.45746  20392166.3654   20392164.3424
      1406.9594
 04  9  2 22 20 29.9980000  0  8G19G 3G 8G13G10G28G23G27
  -9558068.43447  -7439656.00044  22257213.3034   22257209.8184
      2243.4534
  -4369677.90647  -4381363.14142  22459443.3734   22459442.3814
      -154.9424
 -15149002.34449 -11791781.00045  21103891.6474   21103890.4754
      2631.3424
  -2586444.35249  -2006757.63746  20028488.7954   20028486.0844
      -733.7374
  -3147874.06646  -2445774.40242  23184536.9284   23184537.2914
      2189.0184
  -2893109.72347  -2244505.67242  23288192.4824   23288192.0144
      3881.4294
   8912158.26247   6933716.42642  22569825.1704   22569822.0724
     -2654.1784
  -9070444.35549  -7066595.39546  20388158.9044   20388157.4984
      1403.8774
 04  9  2 22 20 44.9980000  0  8G19G 3G 8G13G10G28G23G27
  -9591608.92247  -7465791.39143  22250829.8264   22250827.0104
      2236.0334
  -4367211.62147  -4379441.37543  22459912.6074   22459912.0684
      -164.4194
 -15188426.34849 -11822500.97745  21096389.3814   21096388.6824
      2628.2674
  -2575318.69949  -1998088.30146  20030605.7404   20030603.2754
      -741.7104
  -3180577.63347  -2471257.68442  23178314.0224   23178314.5024
      2180.2384
  -2951285.93448  -2289837.73842  23277121.9984   23277121.5614
      3878.4144
   8952029.78947   6964785.09442  22577412.0684   22577409.5644
     -2658.1024
  -9091459.19549  -7082970.59446  20384159.9284   20384158.4004
      1400.9894
 04  9  2 22 20 59.9980000  0  8G19G 3G 8G13G10G28G23G27
  -9625032.12947  -7491835.41843  22244469.8424   22244466.1274
      2228.2144
  -4364597.75047  -4377404.59843  22460410.4754   22460410.0144
      -174.2584
 -15227798.68049 -11853180.69145  21088897.1314   21088896.3074
      2624.8224
  -2564068.05149  -1989321.55946  20032746.5614   20032743.9754
      -750.0434
  -3213143.65247  -2496633.77042  23172117.4514   23172117.0254
      2171.0684
  -3009411.15647  -2335130.08642  23266060.8424   23266060.9754
      3875.0154
   8991965.44546   6995903.75042  22585010.6624   22585008.5924
     -2662.3774
  -9112425.15249  -7099307.69546  20380170.0454   20380168.4554
      1397.7304
 04  9  2 22 21 14.9980000  0  8G19G 3G 8G13G10G28G23G27
  -9658342.41847  -7517791.43743  22238131.3574   22238127.2484
      2220.6864
  -4361840.74647  -4375256.27043  22460935.2404   22460934.9554
      -183.8004
 -15267123.80949 -11883823.62945  21081413.9204   21081412.9394
      2621.6754
  -2552696.84449  -1980460.88346  20034910.2954   20034907.7134
      -758.0804
  -3245576.52147  -2521906.16442  23165945.6624   23165944.8894
      2162.1914
  -3067489.83647  -2380386.13742  23255008.7794   23255008.9324
      3871.9124
   9031960.57047   7027068.75042  22592622.3974   22592619.2484
     -2666.3424
  -9133346.73849  -7115610.21546  20376188.9124   20376187.2724
      1394.7724
 04  9  2 22 21 29.9980000  0  8G19G 3G 8G13G10G28G23G27
  -9691540.87947  -7543660.32443  22231813.7174   22231811.2994
      2213.2314
  -4358942.19948  -4372997.66443  22461486.8034   22461485.9794
      -193.2364
 -15306403.14849 -11914430.88345  21073939.3504   21073938.5534
      2618.6234
  -2541206.85249  -1971507.64546  20037097.0294   20037094.1074
      -765.9994
  -3277877.69947  -2547075.84442  23159798.6154   23159797.7364
      2153.4124
  -3125523.36348  -2425607.01242  23243965.4284   23243965.2364
      3868.9024
   9072013.39847   7058278.71942  22600243.9364   22600240.9044
     -2670.1894
  -9154225.44149  -7131879.33646  20372215.8974   20372214.3734
      1391.9144
 04  9  2 22 21 44.9980000  0  8G19G 3G 8G13G10G28G23G27
  -9724625.98447  -7569440.89142  22225517.9904   22225513.8304
      2205.6744
  -4355900.94947  -4370627.85243  22462065.3654   22462064.3144
      -202.7504
 -15345635.24649 -11945001.32045  21066473.6394   21066472.4944
      2615.4734
  -2529596.62149  -1962460.71546  20039306.2724   20039303.5884
      -774.0154
  -3310045.43047  -2572141.60542  23153677.4824   23153676.6474
      2144.5154
  -3183510.11748  -2470791.41842  23232931.0374   23232930.7954
      3865.7844
   9112125.16847   7089534.59042  22607877.1234   22607873.7324
     -2674.1184
  -9175059.91849  -7148113.98046  20368251.1624   20368249.8344
      1388.9654
 04  9  2 22 21 59.9980000  0  8G19G 3G 8G13G10G28G23G27
  -9757597.30547  -7595132.77743  22219243.7014   22219240.0024
      2198.0884
  -4352716.89148  -4368146.78143  22462671.3504   22462671.3574
      -212.2714
 -15384819.93049 -11975534.83245  21059016.9904   21059015.9514
      2612.3124
  -2517866.05949  -1953320.03146  20041538.4984   20041535.8894
      -782.0374
  -3342079.48447  -2597103.19942  23147581.5764   23147581.1474
      2135.6044
  -3241449.62948  -2515939.03542  23221905.4514   23221905.3304
      3862.6344
   9152295.86747   7120836.40242  22615521.6074   22615518.9904
     -2678.0474
  -9195849.79349  -7164313.87146  20364295.2724   20364293.1394
      1385.9924
 04  9  2 22 22 14.9980000  0  8G19G 3G 8G13G10G28G23G27
  -9790457.10546  -7620737.76642  22212990.6234   22212987.0884
      2190.6534
  -4349392.62548  -4365556.43043  22463303.6624   22463304.1584
      -221.6184
 -15423959.60249 -12006033.24645  21051569.0454   21051567.8384
      2609.3114
  -2506017.75449  -1944087.57446  20043792.8894   20043790.6004
      -789.8874
  -3373982.23847  -2621962.48442  23141510.8344   23141510.1474
      2126.8504
  -3299344.34448  -2561051.77042  23210887.7174   23210888.0374
      3859.6484
   9192522.66447   7152181.91042  22623176.0924   22623173.0254
     -2681.7864
  -9216597.74649  -7180481.09446  20360346.6544   20360344.6584
      1383.1974
 04  9  2 22 22 29.9980000  0  8G19G 3G 8G13G10G28G23G27
  -9823204.50448  -7646255.17643  22206758.5844   22206755.4514
      2183.1604
  -4345927.74247  -4362856.48443  22463963.1544   22463963.2994
      -230.9924
 -15463053.85949 -12036496.28545  21044129.7254   21044128.8504
      2606.2844
  -2494051.32049  -1934763.09046  20046070.5454   20046067.5064
      -797.7624
  -3405753.05147  -2646718.94942  23135465.5534   23135464.3854
      2118.0544
  -3357193.55147  -2606129.03542  23199879.4674   23199879.5614
      3856.6144
   9232805.93847   7183571.46942  22630842.4984   22630838.8034
     -2685.5524
  -9237303.16449  -7196615.18746  20356407.0614   20356404.7724
      1380.3614
 04  9  2 22 22 44.9980000  0  8G19G 3G 8G13G10G28G23G27
  -9855837.75847  -7671683.66443  22200549.2094   22200546.1544
      2175.5504
  -4342320.78547  -4360045.88742  22464649.5374   22464649.5884
      -240.4644
 -15502101.02749 -12066922.62545  21036699.0064   21036697.9634
      2603.1454
  -2481965.23849  -1925345.36346  20048370.1154   20048367.9554
      -805.7394
  -3437390.09847  -2671371.16042  23129443.9204   23129443.9944
      2109.1364
  -3414995.58647  -2651169.51642  23188880.4754   23188879.8854
      3853.4694
   9273146.80547   7215005.85942  22638518.8504   22638516.1704
     -2689.3914
  -9257964.51649  -7212714.93446  20352474.9674   20352473.4864
      1377.4234
 04  9  2 22 22 59.9980000  0  8G19G 3G 8G13G10G28G23G27
  -9888357.56247  -7697023.71142  22194360.3654   22194356.8544
      2167.9874
  -4338572.80148  -4357125.36743  22465362.7324   22465362.0924
      -249.8664
 -15541102.00849 -12097312.97745  21029277.7174   21029276.3384
      2600.0654
  -2469760.50449  -1915835.19547  20050692.4824   20050690.5804
      -813.6494
  -3468894.30547  -2695919.88342  23123448.9594   23123449.2364
      2100.2804
  -3472751.18448  -2696173.84042  23177889.9434   23177889.4324
      3850.3734
   9313544.30147   7246484.37942  22646206.7954   22646203.5294
     -2693.1664
  -9278582.79749  -7228781.11346  20348551.5614   20348550.0064
      1374.5524
 04  9  2 22 23 14.9980000  0  8G19G 3G 8G13G10G28G23G27
  -9920763.43047  -7722275.02742  22188193.9824   22188189.8384
      2160.3914
  -4334683.67247  -4354094.90642  22466102.4594   22466101.8654
      -259.2754
 -15580056.63749 -12127667.20745  21021864.7174   21021863.3424
      2596.9754
  -2457436.94949  -1906232.42646  20053037.7014   20053035.1274
      -821.5704
  -3500265.32447  -2720364.79742  23117479.5224   23117479.5924
      2091.4014
  -3530459.91047  -2741141.64542  23166907.4044   23166907.3774
      3847.2484
   9353998.38347   7278006.98842  22653904.6004   22653900.7254
     -2696.9394
  -9299157.64849  -7244813.46146  20344636.1394   20344634.4904
      1371.6574
 04  9  2 22 23 29.9980000  0  8G19G 3G 8G13G10G28G23G27
  -9953052.61747  -7747435.39542  22182049.4364   22182046.7524
      2152.6134
  -4330650.93048  -4350952.51243  22466870.1154   22466870.2994
      -268.8494
 -15618962.21949 -12157983.22745  21014461.3574   21014460.0844
      2593.7054
  -2444992.06249  -1896535.11346  20055405.9204   20055403.4164
      -829.6594
  -3531500.52347  -2744703.90242  23111536.2564   23111535.7094
      2082.3474
  -3588119.10947  -2786070.81242  23155935.5684   23155936.2954
      3843.9474
   9394511.30947   7309575.48042  22661613.8424   22661610.1704
     -2700.8624
  -9319686.57049  -7260810.00846  20340729.5684   20340727.6664
      1368.5954
 04  9  2 22 23 44.9980000  0  8G19G 3G 8G13G10G28G23G27
  -9985227.79746  -7772506.92642  22175926.2794   22175924.4794
      2145.0124
  -4326477.58648  -4347700.57043  22467664.6934   22467663.9554
      -278.2234
 -15657821.70749 -12188263.33245  21007066.3344   21007065.0644
      2590.6334
  -2432428.92649  -1886745.66046  20057796.6314   20057794.1824
      -837.5424
  -3562602.59847  -2768939.27742  23105617.4124   23105616.8424
      2073.4724
  -3645731.64847  -2830963.67242  23144973.1314   23144973.1744
      3840.8364
   9435079.85247   7341187.28542  22669333.5764   22669330.7914
     -2704.5704
  -9340172.46149  -7276773.03546  20336831.1544   20336829.7994
      1365.7264
 04  9  2 22 23 59.9980000  0  8G19G 3G 8G13G10G28G23G27
 -10017287.76646  -7797488.65642  22169825.6394   22169822.4944
      2137.3314
  -4322162.93447  -4344338.51643  22468485.4824   22468484.8384
      -287.6434
 -15696634.19949 -12218506.81645  20999680.5454   20999679.6474
      2587.4994
  -2419746.68749  -1876863.39546  20060209.8034   20060207.5844
      -845.4834
  -3593570.46947  -2793070.06642  23099724.3424   23099724.1074
      2064.5254
  -3703296.39148  -2875819.27042  23134018.5224   23134017.9124
      3837.6494
   9475704.79347   7372843.03142  22677064.3814   22677061.5104
     -2708.3294
  -9360614.46949  -7292701.85946  20332941.3574   20332939.8144
      1362.8014
 04  9  2 22 24 14.9980000  0  8G19G 3G 8G13G10G28G23G27
 -10049230.46146  -7822379.02342  22163747.2644   22163743.8894
      2129.5134
  -4317705.19548  -4340864.95743  22469333.7404   22469333.8814
      -297.1834
 -15735397.99249 -12248712.35245  20992304.0374   20992303.3224
      2584.2534
  -2406943.50849  -1866886.91046  20062646.2484   20062643.4594
      -853.5454
  -3624402.15247  -2817094.73042  23093857.5684   23093856.6114
      2055.4464
  -3760811.19547  -2920635.96142  23123073.2484   23123073.9794
      3834.3204
   9516387.66047   7404543.93442  22684806.4824   22684803.6074
     -2712.1914
  -9381010.61349  -7308594.94546  20329059.9904   20329058.1474
      1359.7434
 04  9  2 22 24 29.9980000  0  8G19G 3G 8G13G10G28G23G27
 -10081054.69947  -7847177.15642  22157691.8574   22157687.5064
      2121.6164
  -4313103.54348  -4337279.25443  22470208.8974   22470209.5494
      -306.7774
 -15774111.94549 -12278879.05945  20984937.4044   20984935.8424
      2580.9304
  -2394018.73449  -1856815.65646  20065105.7564   20065103.2834
      -861.6524
  -3655096.77047  -2841012.59042  23088015.0844   23088015.9984
      2046.3084
  -3818275.23447  -2965413.07042  23112138.7954   23112138.5804
      3830.9364
   9557129.29346   7436290.65242  22692558.0684   22692555.8654
     -2716.1094
  -9401360.13749  -7324451.71546  20325187.4674   20325186.2054
      1356.6354
 04  9  2 22 24 44.9980000  0  8G19G 3G 8G13G10G28G23G27
 -10112764.52346  -7871886.04742  22151657.8184   22151653.2564
      2113.9884
  -4308362.37148  -4333584.82043  22471111.8114   22471111.0614
      -316.0784
 -15812780.49249 -12309010.37546  20977578.8264   20977577.4244
      2577.9034
  -2380976.64149  -1846652.98846  20067587.5454   20067585.1314
      -869.4734
  -3685658.20347  -2864826.67642  23082201.1314   23082200.7754
      2037.4294
  -3875692.48447  -3010153.74642  23101212.2724   23101212.2174
      3827.8174
   9597925.14845   7468079.58642  22700321.0224   22700318.6784
     -2719.7244
  -9421667.18749  -7340275.38746  20321323.7254   20321321.7294
      1353.8034
 04  9  2 22 24 59.9980000  0  8G19G 3G 8G13G10G28G23G27
 -10144357.03946  -7896503.55942  22145645.1314   22145640.7174
      2106.1684
  -4303479.19948  -4329779.74643  22472040.5764   22472040.4754
      -325.5454
 -15851400.86749 -12339104.15645  20970229.5924   20970227.8384
      2574.6924
  -2367814.60549  -1836396.87146  20070092.5294   20070089.7874
      -877.4694
  -3716083.75447  -2888534.87942  23076410.7874   23076410.4434
      2028.3704
  -3933060.16847  -3054855.75042  23090295.3654   23090295.4474
      3824.5124
   9638777.57846   7499912.56642  22708096.2874   22708093.3224
     -2723.4954
  -9441929.14549  -7356063.90646  20317467.3814   20317465.7564
      1350.7974
 04  9  2 22 25 14.9980000  0  8G19G 3G 8G13G10G28G23G27
 -10175832.09046  -7921029.57042  22139656.1154   22139651.3224
      2098.3374
  -4298454.11348  -4325864.08643  22472997.4594   22472996.9164
      -335.0064
 -15889973.16849 -12369160.48445  20962889.8344   20962888.2094
      2571.4874
  -2354532.72749  -1826047.35546  20072620.0374   20072617.3974
      -885.4594
  -3746373.33647  -2912137.18042  23070647.5534   23070645.7404
      2019.3054
  -3990378.19948  -3099519.10942  23079389.2404   23079388.6474
      3821.2024
   9679686.34046   7531789.46942  22715881.2564   22715878.6314
     -2727.2514
  -9462145.94149  -7371817.25046  20313620.5614   20313618.5884
      1347.7864
 04  9  2 22 25 29.9980000  0  8G19G 3G 8G13G10G28G23G27
 -10207194.68046  -7945467.93442  22133687.1624   22133682.8424
      2090.8394
  -4293292.61747  -4321842.14843  22473979.3654   22473979.2604
      -344.1004
 -15928502.37949 -12399183.22345  20955557.4824   20955556.3034
      2568.6144
  -2341136.58649  -1815608.80546  20075168.8504   20075166.5104
      -893.0764
  -3776532.23447  -2935637.58242  23064908.2174   23064906.6154
      2010.5934
  -4047651.69148  -3144147.75842  23068489.3264   23068489.7684
      3818.2334
   9720645.80146   7563705.91042  22723674.6314   22723672.7524
     -2730.6314
  -9482322.97349  -7387539.60947  20309781.0844   20309778.9364
      1345.1354
 04  9  2 22 25 44.9980000  0  8G19G 3G 8G13G10G28G23G27
 -10238439.55946  -7969814.57042  22127741.7954   22127736.2724
      2082.9924
  -4287989.68747  -4317710.00843  22474988.5684   22474988.2754
      -353.5294
 -15966983.42649 -12429168.44545  20948235.1074   20948233.9324
      2565.4034
  -2327621.14149  -1805077.29746  20077740.6704   20077738.9594
      -901.0304
  -3806555.11347  -2959032.01642  23059194.9284   23059192.8614
      2001.5254
  -4104875.34448  -3188737.57442  23057600.6154   23057599.3734
      3814.9104
   9761660.93446   7595665.65642  22731479.2954   22731477.9634
     -2734.3424
  -9502455.03549  -7403226.91446  20305949.9594   20305948.5684
      1342.1384
 04  9  2 22 25 59.9980000  0  8G19G 3G 8G13G10G28G23G27
 -10269566.86346  -7994069.58642  22121818.7324   22121814.2294
      2075.1544
  -4282545.94547  -4313468.10942  22476024.5844   22476023.5684
      -362.9164
 -16005416.72349 -12459116.45345  20940921.5684   20940919.8694
      2562.2204
  -2313986.71949  -1794453.07446  20080335.3504   20080333.3654
      -908.9614
  -3836442.28947  -2982320.71942  23053507.5844   23053505.7054
      1992.4784
  -4162049.43447  -3233288.76642  23046720.0294   23046719.5764
      3811.6064
   9802730.96546   7627668.25042  22739295.6934   22739293.1434
     -2738.0024
  -9522542.64849  -7418879.59446  20302127.1314   20302125.8574
      1339.1744
 04  9  2 22 26 14.9980000  0  8G19G 3G 8G13G10G28G23G27
 -10300575.70346  -8018232.30142  22115917.6154   22115914.7994
      2067.2564
  -4276960.77347  -4309116.00842  22477087.3814   22477085.9124
      -372.3454
 -16043801.63349 -12489026.74645  20933616.5684   20933615.5224
      2558.9944
  -2300232.75049  -1783735.70346  20082952.3734   20082950.8114
      -916.9314
  -3866193.05948  -3005503.12942  23047846.2644   23047844.7834
      1983.3854
  -4219173.18747  -3277800.70742  23035849.6624   23035849.6434
      3808.2504
   9843856.43446   7659714.03141  22747121.3574   22747119.4794
     -2741.6984
  -9542585.06249  -7434497.04747  20298313.2324   20298311.7094
      1336.1614
 04  9  2 22 26 29.9980000  0  8G19G 3G 8G13G10G28G23G27
 -10331465.80946  -8042302.53542  22110040.2094   22110035.6044
      2059.3404
  -4271234.29347  -4304653.80542  22478177.0144   22478175.8304
      -381.7654
 -16082138.42649 -12518899.55545  20926321.4204   20926320.5294
      2555.7864
  -2286359.47349  -1772925.36346  20085592.8114   20085590.8144
      -924.8854
  -3895807.28147  -3028579.10942  23042210.6704   23042209.9364
      1974.2824
  -4276246.51248  -3322273.35942  23024989.5844   23024988.5724
      3804.8884
   9885037.05945   7691802.76241  22754956.4514   22754955.1004
     -2745.3754
  -9562582.37549  -7450079.36346  20294508.0534   20294505.9284
      1333.1544
 04  9  2 22 26 44.9980000  0  8G19G 3G 8G13G10G28G23G27
 -10362236.65646  -8066279.82042  22104184.4204   22104180.0144
      2051.3904
  -4265366.32447  -4300081.37142  22479293.9124   22479292.0374
      -391.1984
 -16120426.35549 -12548734.29345  20919035.7484   20919034.3894
      2552.5294
  -2272366.56649  -1762021.81246  20088255.5294   20088253.5224
      -932.8604
  -3925284.44148  -3051548.29742  23036601.1314   23036600.7484
      1965.1444
  -4333268.77347  -3366706.27742  23014137.8114   23014137.3114
      3801.4844
   9926273.09045   7723934.70341  22762804.5764   22762801.9004
     -2749.0694
  -9582534.10249  -7465626.16446  20290711.6234   20290709.4204
      1330.1154
 04  9  2 22 26 59.9980000  0  8G19G 3G 8G13G10G28G23G27
 -10392891.03546  -8090166.29742  22098350.3814   22098345.5414
      2043.6254
  -4259360.03547  -4295401.13343  22480436.6864   22480436.0644
      -400.4194
 -16158668.42649 -12578533.29346  20911758.3654   20911757.2174
      2549.4714
  -2258257.11749  -1751027.43746  20090940.5374   20090938.8074
      -940.6304
  -3954627.44948  -3074412.96542  23031017.3424   23031017.0844
      1956.2014
  -4390243.02347  -3411101.73842  23003296.1934   23003295.3184
      3798.2834
   9967561.09845   7756107.14841  22770661.2724   22770659.1044
     -2752.5344
  -9602443.30549  -7481139.81646  20286922.8424   20286920.9514
      1327.2804
 04  9  2 22 27 14.9980000  0  8G19G 3G 8G13G10G28G23G27
 -10423422.77747  -8113957.22342  22092540.9984   22092535.9794
      2035.4494
  -4253209.58247  -4290608.57442  22481606.9284   22481606.1584
      -410.0304
 -16196859.04349 -12608292.19945  20904490.9364   20904489.8464
      2546.0414
  -2244025.38749  -1739937.79346  20093648.7094   20093646.7644
      -948.7824
  -3983830.29747  -3097168.43042  23025460.0224   23025460.2834
      1946.8574
  -4447163.13347  -3455455.02342  22992464.4364   22992463.4714
      3794.6744
  10008906.78845   7788324.53941  22778530.3424   22778527.6434
     -2756.3794
  -9622304.08649  -7496615.74646  20283143.5294   20283141.7484
      1324.0524
 04  9  2 22 27 29.9980000  0  8G19G 3G 8G13G10G28G23G27
 -10453838.91446  -8137658.12542  22086752.1934   22086749.4164
      2027.7424
  -4246922.42247  -4285709.49643  22482803.3974   22482801.9364
      -419.1444
 -16235005.14149 -12638016.42646  20897232.0614   20897230.9984
      2543.0734
  -2229678.71149  -1728758.57046  20096378.8814   20096376.3344
      -956.4454
  -4012900.18747  -3119820.30142  23019928.7324   23019928.3304
      1937.9934
  -4504036.17247  -3499771.61742  22981641.6624   22981641.2914
      3791.5364
  10050302.67246   7820581.07041  22786407.3814   22786405.4674
     -2759.7264
  -9642123.61349  -7512059.52747  20279372.0454   20279370.1274
      1321.3024
 04  9  2 22 27 44.9980000  0  8G19G 3G 8G13G10G28G23G27
 -10484133.90247  -8161264.57842  22080987.7174   22080983.9244
      2019.6664
  -4240493.25447  -4280699.73842  22484026.8344   22484025.3224
      -428.6114
 -16273101.35549 -12667701.76246  20889982.3184   20889981.4364
      2539.7484
  -2215211.74249  -1717485.60946  20099131.6934   20099129.2684
      -964.4654
  -4041831.57447  -3142364.21142  23014423.9754   23014422.0844
      1928.7594
  -4560856.53547  -3544047.18442  22970829.0614   22970829.1354
      3788.0244
  10091753.84445   7852880.65241  22794294.9284   22794293.0884
     -2763.4114
  -9661896.57449  -7527467.02346  20275609.2174   20275607.6434
      1318.1974
 04  9  2 22 27 59.9980000  0  8G19G 3G 8G13G10G28G23G27
 -10514309.67647  -8184778.15642  22075245.6154   22075241.7214
      2011.7184
  -4233924.43447  -4275581.17643  22485276.6704   22485275.1974
      -437.9214
 -16311149.82049 -12697349.90645  20882742.3424   20882741.2754
      2536.5644
  -2200626.82849  -1706120.75046  20101907.5764   20101904.7834
      -972.3284
  -4070626.44547  -3164801.74642  23008943.6704   23008942.8694
      1919.6584
  -4617626.34848  -3588283.34042  22960027.0844   22960026.4364
      3784.6544
  10133257.94145   7885221.48841  22802192.6864   22802190.7794
     -2766.9404
  -9681625.04749  -7542839.84846  20271855.2094   20271853.6934
      1315.2324
 04  9  2 22 28 14.9980000  0  8G19G 3G 8G13G10G28G23G27
 -10544367.46146  -8208199.78142  22069525.9594   22069521.5614
      2003.8524
  -4227217.56647  -4270355.03542  22486552.9984   22486551.9514
      -447.1244
 -16349151.94149 -12726961.92246  20875510.6234   20875509.8544
      2533.4754
  -2185925.39149  -1694665.08646  20104704.3504   20104702.3224
      -980.0964
  -4099286.12147  -3187133.96542  23003489.9514   23003489.0064
      1910.6454
  -4674346.85247  -3632481.08642  22949232.9124   22949232.1154
      3781.3674
  10174813.25844   7917602.22741  22810100.9754   22810098.9124
     -2770.3544
  -9701310.53949  -7558179.18446  20268109.2794   20268107.5534
      1312.3664
 04  9  2 22 28 29.9980000  0  8G19G 3G 8G13G10G28G23G27
 -10574308.16846  -8231530.14842  22063827.9904   22063824.9594
      1996.0474
  -4220373.80147  -4265022.23442  22487855.7794   22487855.1314
      -456.2514
 -16387108.86349 -12756538.73846  20868287.6154   20868286.6234
      2530.4614
  -2171108.66449  -1683119.59446  20107524.1074   20107521.5644
      -987.7824
  -4127811.62547  -3209361.62142  22998062.2174   22998060.4434
      1901.7004
  -4731018.98048  -3676641.13742  22938448.8264   22938447.4824
      3778.1424
  10216418.73444   7950021.97741  22818018.1394   22818015.9364
     -2773.6984
  -9720954.11749  -7573485.86746  20264370.8894   20264369.1664
      1309.5724
 04  9  2 22 28 44.9980000  0  8G19G 3G 8G13G10G28G23G27
 -10604127.23046  -8254765.75443  22058154.2014   22058151.1074
      1987.9384
  -4213389.07847  -4259579.62143  22489184.4284   22489184.4754
      -465.6484
 -16425016.23049 -12786076.93045  20861073.9434   20861072.9864
      2527.1584
  -2156172.64149  -1671481.14546  20110366.4754   20110363.8774
      -995.7354
  -4156198.66847  -3231481.39542  22992659.8504   22992658.4244
      1892.4704
  -4787638.39847  -3720760.12542  22927673.8574   22927673.4364
      3774.6284
  10258077.94544   7982483.63341  22825946.1314   22825943.7724
     -2777.2814
  -9740551.46149  -7588756.51246  20260641.9124   20260639.9164
      1306.4904
 04  9  2 22 28 59.9980000  0  8G19G 3G 8G13G10G28G23G27
 -10633822.02746  -8277904.51643  22052502.6074   22052499.0924
      1979.6534
  -4206261.05947  -4254025.30543  22490541.2564   22490540.7724
      -475.2014
 -16462871.42249 -12815574.45745  20853870.3034   20853869.2524
      2523.6794
  -2141114.82849  -1659747.78546  20113231.8654   20113229.0294
     -1003.8544
  -4184444.62547  -3253491.20342  22987284.4204   22987283.2134
      1883.0644
  -4844202.44947  -3764835.96542  22916910.8814   22916909.7724
      3770.9374
                                  22833883.951
     -2780.863
  -9760100.10249  -7603989.21946  20256921.9364   20256919.8654
      1303.2434
 04  9  2 22 29 14.9980000  0  8G19G 3G 8G13G10G28G23G27
 -10663395.96147  -8300949.11343  22046874.9514   22046872.0614
      1971.5964
  -4198993.60547  -4248362.35242  22491923.5294   22491923.0574
      -484.4974
 -16500678.30549 -12845034.34846  20846676.0844   20846674.8184
      2520.4594
  -2125939.10949  -1647922.55946  20116119.3424   20116117.1624
     -1011.7154
  -4212553.14547  -3275393.92642  22981935.5224   22981934.9514
      1873.9014
  -4900714.77047  -3808871.48442  22906156.8574   22906155.5184
      3767.4884
  10341561.059 4                  22841832.061
     -2784.511
  -9779603.75449  -7619186.86346  20253210.3114   20253208.4594
      1300.2434
 04  9  2 22 29 29.9980000  0  8G19G 3G 8G13G10G28G23G27
 -10692850.21947  -8323900.44543  22041270.0064   22041267.7014
      1963.6174
  -4191588.27347  -4242591.94542  22493333.1234   22493331.5414
      -493.6894
 -16538438.31249 -12874457.71945  20839490.3654   20839489.1194
      2517.3344
  -2110646.84449  -1636006.51246  20119029.4044   20119027.3114
     -1019.4844
  -4240525.50047  -3297190.55942  22976612.6704   22976611.4944
      1864.8244
  -4957176.47347  -3852867.58242  22895411.5924   22895410.1154
      3764.1144
  10383379.199 4                  22849791.139
     -2787.876
  -9799063.80549  -7634350.53946  20249507.3734   20249505.3264
      1297.3374
 04  9  2 22 29 44.9980000  0  8G19G 3G 8G13G10G28G23G27
 -10722182.97346  -8346757.15242  22035688.1624   22035684.3464
      1955.5174
  -4184043.64847  -4236713.01242  22494768.3034   22494767.0684
      -502.9754
 -16576149.78149 -12903843.26245  20832314.5064   20832313.0254
      2514.0984
  -2095236.68049  -1623998.59846  20121962.6154   20121960.0684
     -1027.3444
  -4268359.95747  -3318879.73042  22971316.0614   22971315.0374
      1855.6304
  -5013585.98447  -3896822.97342  22884677.5614   22884676.3854
      3760.6344
  10425249.191 5                  22857758.740
     -2791.333
  -9818478.67249  -7649478.99646  20245812.6624   20245810.9514
      1294.3244
 04  9  2 22 29 59.9980000  0  8G19G 3G 8G13G10G28G23G27
 -10751392.10946  -8369517.46142  22030130.0224   22030126.2914
      1947.2764
  -4176357.79347  -4230723.99442  22496231.3974   22496229.7404
      -512.3904
 -16613810.73849 -12933189.44946  20825147.8424   20825146.3424
      2510.7304
  -2079706.62949  -1611897.26246  20124917.3344   20124915.2014
     -1035.3374
  -4296054.35547  -3340459.80142  22966046.3574   22966044.6584
      1846.2934
  -5069941.02748  -3940735.98842  22873953.7484   22873952.2604
      3757.0034
  10467172.832 5                  22865735.139
     -2794.909
  -9837846.24649  -7664570.60947  20242126.8034   20242125.4324
      1291.1724
 04  9  2 22 30 14.9980000  0  8G19G 3G 8G13G10G28G23G27
 -10780480.21147  -8392183.48443  22024594.6784   22024591.1354
      1939.2074
  -4168533.91847  -4224627.49642  22497720.2644   22497719.3264
      -521.5924
 -16651423.90249 -12962498.40246  20817990.5224   20817988.4244
      2507.5444
  -2064059.90649  -1599705.02746  20127895.0224   20127892.6004
     -1043.1154
  -4323611.87547  -3361933.15642  22960801.4044   22960800.7134
      1837.1684
  -5126244.52348  -3984608.80542  22863239.3654   22863238.3114
      3753.5664
  10509146.883 4                  22873722.342
     -2798.270
  -9857169.67649  -7679627.81646  20238450.2324   20238448.3974
      1288.2294
 04  9  2 22 30 29.9980000  0  8G19G 3G 8G13G10G28G23G27
 -10809446.52047  -8414754.61343  22019082.7404   22019079.1704
      1931.0874
  -4160571.58647  -4218423.08243  22499235.1704   22499234.8184
      -530.8224
 -16688988.96549 -12991769.85246  20810841.4984   20810840.5964
      2504.3384
  -2048295.93049  -1587421.41446  20130894.5844   20130892.2324
     -1050.9324
  -4351031.57047  -3383299.14142  22955584.2014   22955582.8074
      1827.9804
  -5182495.77747  -4028440.87142  22852535.3034   22852534.6074
      3750.0844
  10551171.762 4                  22881719.092
     -2801.659
  -9876448.27749  -7694650.09847  20234781.6624   20234779.5644
      1285.2404
 04  9  2 22 30 44.9980000  0  8G19G 3G 8G13G10G28G23G27
 -10838296.53147  -8437235.12143  22013592.7324   22013588.2254
      1923.3344
  -4152476.37547  -4212115.14543  22500776.0294   22500775.0684
      -539.6814
 -16726511.27349 -13021007.98846  20803701.2644   20803699.7994
      2501.4874
  -2032420.38749  -1575050.86346  20133915.4824   20133913.5764
     -1058.3704
  -4378318.89847  -3404561.98042  22950391.3184   22950390.3734
      1819.1554
  -5238700.06247  -4072236.35542  22841839.1934   22841839.3074
      3746.9524
  10593241.691 5                  22889726.186
     -2804.662
  -9895687.39549  -7709641.61347  20231120.3424   20231118.4594
      1282.6084
 04  9  2 22 30 59.9980000  0  8G19G 3G 8G13G10G28G23G27
 -10867020.86747  -8459617.70743  22008126.6074   22008123.2914
      1914.9564
  -4144239.60947  -4205696.86743  22502343.9204   22502342.1074
      -549.1184
 -16763981.88749 -13050205.84846  20796571.0144   20796569.3734
      2498.0414
  -2016424.44149  -1562586.50846  20136959.7014   20136957.5574
     -1066.3964
  -4405464.75047  -3425714.57442  22945226.5064   22945223.8934
      1809.7234
  -5294848.27047  -4115988.17242  22831154.8264   22831154.6474
      3743.2144
  10635365.313 5                  22897741.584
     -2808.241
  -9914878.18749  -7724595.47346  20227468.3894   20227466.4204
      1279.3864
 04  9  2 22 31 14.9980000  0  8G19G 3G 8G13G10G28G23G27
 -10895620.16847  -8481902.81243  22002684.2254   22002681.1314
      1906.6204
  -4135862.14847  -4199168.99243  22503937.7564   22503936.4944
      -558.4974
 -16801401.50049 -13079363.96946  20789450.0224   20789448.8114
      2494.6414
  -2000308.98449  -1550029.00846  20140026.1934   20140023.5574
     -1074.3644
  -4432469.83647  -3446757.48842  22940087.1704   22940086.8974
      1800.3394
  -5350941.03947  -4159696.78942  22820480.7404   22820480.0254
      3739.5184
  10677541.625 5                  22905768.303
     -2811.754
  -9934021.45749  -7739512.28946  20223825.5534   20223823.6234
      1276.2184
 04  9  2 22 31 29.9980000  0  8G19G 3G 8G13G10G28G23G27
 -10924092.89147  -8504089.35543  21997265.8034   21997263.0644
      1898.1824
  -4127342.86347  -4192530.56243  22505558.1864   22505557.6394
      -567.9524
 -16838768.64149 -13108481.21146  20782339.7794   20782338.3034
      2491.1434
  -1984072.68449  -1537377.34846  20143116.1474   20143113.5334
     -1082.4204
  -4459332.73847  -3467689.60242  22934974.6474   22934974.9674
      1790.8604
  -5406976.97347  -4203361.10542  22809817.1154   22809816.6114
      3735.7294
  10719771.723 4                  22913804.732
     -2815.340
  -9953115.70749  -7754390.91846  20220192.0144   20220190.2364
      1272.9504
 04  9  2 22 31 44.9980000  0  8G19G 3G 8G13G10G28G23G27
 -10952442.02047  -8526179.58243  21991871.0454   21991868.3614
      1889.9424
  -4118684.98847  -4185784.17243  22507206.4514   22507206.0104
      -577.1924
 -16876086.62949 -13137560.14845  20775238.0924   20775236.4754
      2487.8664
  -1967718.91449  -1524634.14546  20146227.9754   20146225.6894
     -1090.2514
  -4486056.57447  -3488513.35242  22929889.1864   22929889.4084
      1781.5894
  -5462958.98048  -4246983.39143  22799164.8504   22799164.4244
      3732.1344
  10762052.176 3                  22921849.850
     -2818.697
  -9972164.18749  -7769233.88746  20216567.3114   20216565.4594
      1269.8994
 04  9  2 22 31 59.9980000  0  8G19G 3G 8G13G10G28G23G27
 -10980667.85547  -8548173.69943  21986500.1934   21986497.4084
      1881.7224
  -4109889.28947  -4178930.37943  22508879.5064   22508879.6624
      -586.3804
 -16913355.89149 -13166601.10945  20768145.5224   20768144.3304
      2484.6174
  -1951248.11349  -1511799.78546  20149362.5294   20149360.0374
     -1098.0534
  -4512641.77047  -3509229.05542  22924830.4754   22924829.9514
      1772.3464
  -5518887.43448  -4290563.95743  22788521.8034   22788521.6354
      3728.5644
                                  22929903.818
     -2822.054
  -9991167.39149  -7784041.57446  20212951.0294   20212949.5844
      1266.8804
 04  9  2 22 32 14.9980000  0  8G19G 3G 8G13G10G28G23G27
 -11008773.57447  -8570074.22743  21981151.2484   21981148.1004
      1873.7154
  -4100959.12947  -4171971.80543  22510579.1004   22510578.5064
      -595.3444
 -16950579.62949 -13195606.60246  20761062.3654   20761061.1784
      2481.5834
  -1934663.89549  -1498877.01646  20152518.2954   20152515.6394
     -1105.6154
  -4539091.44947  -3529839.18042  22919797.4204   22919796.9714
      1763.3124
  -5574765.46548  -4334105.23043  22777888.3114   22777888.1544
      3725.2024
  10846758.742 3                  22937967.990
     -2825.093
 -10010128.48849  -7798816.44946  20209342.8974   20209340.9044
      1264.0734
 04  9  2 22 32 29.9980000  0  8G19G 3G 8G13G10G28G23G27
 -11036758.39847  -8591880.54743  21975826.2564   21975822.5964
      1865.6554
  -4091894.18748  -4164908.21543  22512304.4434   22512303.4674
      -604.3294
 -16987757.27049 -13224576.18046  20753987.9984   20753986.5614
      2478.5094
  -1917965.79349  -1485865.51646  20155695.9594   20155693.6394
     -1113.2074
  -4565405.08247  -3550343.29742  22914790.0534   22914789.1584
      1754.2424
  -5630592.55948  -4377606.82843  22767264.5614   22767264.2684
      3721.8064
  10889181.406 3                  22946040.092
     -2828.178
 -10029047.00849  -7813558.14546  20205742.7404   20205740.9754
      1261.2354
 04  9  2 22 32 44.9980000  0  8G19G 3G 8G13G10G28G23G27
 -11064614.54747  -8613586.62943  21970524.8654   21970521.4004
      1857.0774
  -4082687.10547  -4157733.85943  22514056.1314   22514055.6974
      -613.8054
 -17024881.25449 -13253503.94546  20746923.4754   20746921.8264
      2474.9324
  -1901146.44149  -1472759.52746  20158896.4904   20158894.2794
     -1121.2904
  -4591575.00047  -3570735.42642  22909809.2954   22909808.9594
      1744.6614
  -5686361.02348  -4421062.69943  22756652.4044   22756651.9754
      3717.8984
  10931657.820 4                  22954123.928
     -2831.761
 -10047915.46949  -7828260.83246  20202152.3654   20202150.4164
      1257.8974
 04  9  2 22 32 59.9980000  0  8G19G 3G 8G13G10G28G23G27
 -11092345.09447  -8635194.83643  21965248.3654   21965244.4434
      1848.7034
  -4073341.43448  -4150451.52043  22515834.8424   22515833.2214
      -623.0454
 -17061954.84049 -13282392.43746  20739868.4124   20739867.4004
      2471.5724
  -1884209.19949  -1459561.67646  20162119.3344   20162117.2054
     -1129.1494
  -4617604.41847  -3591018.09442  22904856.6394   22904855.9204
      1735.2954
  -5742073.93747  -4464475.30543  22746050.1234   22746050.3224
      3714.1944
  10974184.336 4                  22962217.373
     -2835.101
 -10066737.14549  -7842927.06246  20198570.5374   20198569.1314
      1254.7784
 04  9  2 22 33 14.9980000  0  8G19G 3G 8G13G10G28G23G27
 -11119954.41047  -8656708.56643  21959994.6234   21959991.4164
      1840.6214
  -4063861.70747  -4143064.73042  22517638.6704   22517637.5574
      -631.9824
 -17098982.46949 -13311245.11346  20732822.3894   20732821.1394
      2468.5094
  -1867158.73849  -1446275.62546  20165364.1154   20165361.5844
     -1136.6974
  -4643497.76247  -3611194.71542  22899929.5614   22899929.0724
      1726.2234
  -5797735.66047  -4507848.03942  22735458.1934   22735457.4474
      3710.7824
  11016756.082 4                  22970319.397
     -2838.116
 -10085516.43749  -7857560.27047  20194997.1154   20194995.7364
      1251.9534
 04  9  2 22 33 29.9980000  0  8G19G 3G 8G13G10G28G23G27
 -11147439.76247  -8678125.69543  21954764.1934   21954761.1274
      1832.3574
  -4054245.55947  -4135571.60942  22519467.9984   22519467.4164
      -641.0774
 -17135961.71949 -13340060.09846  20725785.4044   20725784.2524
      2465.2834
  -1849992.68449  -1432899.47346  20168630.4984   20168628.3264
     -1144.4044
  -4669252.44547  -3631263.26242  22895028.9044   22895027.8894
      1716.9794
  -5853343.61348  -4551178.85942  22724877.0844   22724875.9084
      3707.1974
  11059375.438 4                  22978427.639
     -2841.290
 -10104250.82449  -7872158.49247  20191432.0064   20191429.7724
      1248.9594
 04  9  2 22 33 44.9980000  0  8G19G 3G 8G13G10G28G23G27
 -11174798.78147  -8699444.40243  21949557.9594   21949554.6274
      1823.9354
  -4044490.99648  -4127970.64543  22521324.6234   22521323.6544
      -650.3044
 -17172890.37549 -13368835.66046  20718758.3034   20718756.5614
      2461.9104
  -1832708.84849  -1419431.55146  20171919.4754   20171917.8614
     -1152.2564
  -4694866.25447  -3651222.05542  22890154.9754   22890153.8384
      1707.5874
  -5908895.45748  -4594465.96543  22714305.0144   22714304.8074
      3703.4564
  11102044.340 4                  22986547.561
     -2844.593
 -10122938.14549  -7886720.03547  20187876.0614   20187874.1234
      1245.8214
 04  9  2 22 33 59.9980000  0  8G19G 3G 8G13G10G28G23G27
 -11202035.09047  -8720667.46543  21944375.4824   21944371.1004
      1815.7544
  -4034602.09847  -4120265.01643  22523206.4514   22523205.5184
      -659.2604
 -17209772.23049 -13397574.74646  20711739.9434   20711738.6004
      2458.7904
  -1815311.30149  -1405875.03546  20175229.9904   20175228.3694
     -1159.8364
  -4720342.87147  -3671073.94142  22885305.9514   22885305.6234
      1698.4414
  -5964394.80948  -4637712.15243  22703743.9204   22703743.5844
      3699.9574
  11144758.727 4                  22994675.912
     -2847.626
 -10141582.10249  -7901247.78147  20184328.4514   20184326.3464
      1242.9304
 04  9  2 22 34 14.9980000  0  8G19G 3G 8G13G10G28G23G27
 -11229147.65647  -8741794.14543  21939215.8264   21939211.9004
      1807.5044
  -4024578.16048  -4112454.14543  22525114.2174   22525113.2134
      -668.2624
 -17246606.49649 -13426276.75846  20704730.7324   20704728.9164
      2455.6184
  -1797799.29349  -1392229.32046  20178562.7404   20178560.8614
     -1167.4674
  -4745681.35947  -3690818.21142  22880484.3344   22880483.7724
      1689.2334
  -6019840.79348  -4680916.74242  22693193.0614   22693192.4824
      3696.3994
  11187519.211 4                  23002813.928
     -2850.699
 -10160182.05149  -7915741.23846  20180788.4754   20180786.7564
      1239.9974
 04  9  2 22 34 29.9980000  0  8G19G 3G 8G13G10G28G23G27
 -11256133.66047  -8762822.17243  21934080.9984   21934077.2564
      1799.0674
  -4014416.73048  -4104536.17243  22527047.8734   22527045.9474
      -677.4294
 -17283390.29749 -13454939.45346  20697730.9284   20697729.0454
      2452.2534
  -1780170.34849  -1378492.47746  20181917.2174   20181915.2794
     -1175.2634
  -4770879.07447  -3710452.78542  22875689.5764   22875688.9474
      1679.8484
  -6075230.53548  -4724077.55142  22682653.1314   22682651.7444
      3692.6494
  11230328.078 4                  23010960.639
     -2853.924
 -10178735.22349  -7930198.25047  20177258.2644   20177255.9794
      1236.8784
 04  9  2 22 34 44.9980000  0  8G19G 3G 8G13G10G28G23G27
 -11282993.94547  -8783752.26643  21928969.4514   21928965.4044
      1790.6864
  -4004119.09848  -4096512.02043  22529007.3034   22529005.9394
      -686.5094
 -17320124.78549 -13483563.71545  20690740.4284   20690738.6744
      2448.9664
  -1762425.56649  -1364665.40246  20185294.6784   20185292.1114
     -1182.9854
  -4795936.90247  -3729978.34842  22870921.5614   22870920.1114
      1670.5224
  -6130564.98048  -4767195.23842  22672122.7174   22672121.8654
      3688.9634
  11273184.23413                  23019117.209
     -2857.150
 -10197242.55949  -7944619.55146  20173736.4754   20173734.4514
      1233.8224
 04  9  2 22 34 59.9980000  0  8G19G 3G 8G13G10G28G23G27
 -11309725.69947  -8804582.17243  21923882.0614   21923878.2564
      1782.1174
  -3993682.58647  -4088379.69542  22530993.5144   22530992.5294
      -695.7674
 -17356807.25449 -13512147.44945  20683759.9364   20683757.9124
      2445.4984
  -1744562.47349  -1350746.10946  20188693.5224   20188691.5104
     -1190.8734
  -4820852.06247  -3749392.73442  22866180.0064   22866179.2174
      1661.0114
  -6185841.33248  -4810267.69142  22661604.4754   22661602.8184
      3685.0904
  11316089.953 3                  23027282.412
     -2860.381
 -10215701.43749  -7959003.07446  20170223.7014   20170221.5104
      1230.5924
 04  9  2 22 35 14.9980000  0  8G19G 3G 8G13G10G28G23G27
 -11336329.95347  -8825312.73043  21918819.7254   21918816.2874
      1773.6174
  -3983108.82448  -4080140.39143  22533005.2484   22533004.8694
      -704.9174
 -17393438.94549 -13540691.60545  20676788.8184   20676787.8544
      2442.1134
  -1726582.48449  -1336735.73446  20192114.9514   20192112.8574
     -1198.6664
  -4845626.00447  -3768697.09842  22861465.7794   22861464.3074
      1651.5964
  -6241060.83247  -4853295.81642  22651095.7094   22651095.1314
      3681.3004
                                  23035455.834
     -2863.612
 -10234113.06649  -7973349.79346  20166719.9754   20166717.8814
      1227.4424
 04  9  2 22 35 29.9980000  0  8G19G 3G 8G13G10G28G23G27
 -11362804.77746  -8845942.45743  21913781.7404   21913778.3464
      1764.9884
  -3972396.27047  -4071792.91443  22535043.9984   22535042.2094
      -714.1704
 -17430018.08249 -13569194.81246  20669827.8184   20669826.5644
      2438.6094
  -1708483.94949  -1322632.98846  20195558.9044   20195557.1044
     -1206.5694
  -4870256.76247  -3787889.89142  22856778.4044   22856777.2404
      1642.0514
  -6296221.49247  -4896278.07843  22640598.8114   22640599.0064
      3677.3774
  11402047.172 4                  23043638.795
     -2866.896
 -10252475.76649  -7987658.38346  20163225.4204   20163223.9004
      1224.1804
 04  9  2 22 35 44.9980000  0  8G19G 3G 8G13G10G28G23G27
 -11389153.75846  -8866474.11343  21908766.9984   21908763.9394
      1756.5994
  -3961548.85547  -4063340.39542  22537108.1474   22537107.1474
      -723.1614
 -17466548.33249 -13597659.93046  20662876.4204   20662875.2564
      2435.3504
  -1690270.74649  -1308440.88746  20199024.8974   20199022.5414
     -1214.2144
  -4894748.09047  -3806974.01242  22852118.2954   22852116.7724
      1632.7554
  -6351326.99648  -4939217.36343  22630112.8114   22630113.2834
      3673.7004
  11445096.059 4                  23051829.451
     -2869.926
 -10270793.30549  -8001931.78946  20159739.9754   20159738.1434
      1221.1694
 04  9  2 22 35 59.9980000  0  8G19G 3G 8G13G10G28G23G27
 -11415377.46147  -8886908.13343  21903777.2644   21903773.9124
      1748.2474
  -3950567.40647  -4054783.42643  22539198.2094   22539196.8504
      -732.0974
 -17503030.37149 -13626087.47746  20655934.5294   20655933.1314
      2432.1364
  -1671943.71949  -1294160.09046  20202511.9284   20202510.4204
     -1221.8024
  -4919100.56247  -3825949.98042  22847483.7404   22847482.2724
      1623.4984
  -6406377.69148  -4982113.96143  22619637.6704   22619636.8074
      3670.0464
  11488189.512 4                  23060030.342
     -2872.897
 -10289066.30549  -8016170.48046  20156262.8344   20156260.9164
      1218.2004
 04  9  2 22 36 14.9980000  0  8G19G 3G 8G13G10G28G23G27
 -11441473.95346  -8907243.04343  21898811.1004   21898808.4864
      1739.7664
  -3939450.43748  -4046120.85943  22541314.3034   22541311.7134
      -741.1314
 -17539462.65249 -13654476.25846  20649001.8974   20648999.9474
      2428.8194
  -1653501.39849  -1279789.47346  20206021.8344   20206019.6354
     -1229.4884
  -4943312.52347  -3844816.41842  22842876.6004   22842875.0574
      1614.1314
  -6461371.97348  -5024966.59842  22609171.9984   22609171.0764
      3666.2854
  11531328.965 5                  23068239.420
     -2875.964
 -10307293.04749  -8030373.12146  20152794.1934   20152792.5884
      1215.1164
 04  9  2 22 36 29.9980000  0  8G19G 3G 8G13G10G28G23G27
 -11467437.46946  -8927474.35543  21893870.2874   21893867.0494
      1730.9014
  -3928192.52347  -4037348.47742  22543455.7094   22543454.9084
      -750.5284
 -17575839.46549 -13682821.81246  20642079.3574   20642077.8344
      2425.1214
  -1634938.18449  -1265324.62946  20209553.6934   20209551.4864
     -1237.5484
  -4967378.18047  -3863568.88342  22838296.5844   22838296.2364
      1604.3774
  -6516304.03948  -5067770.77043  22598719.0224   22598718.0494
      3662.1384
  11574519.723 4                  23076458.186
     -2879.384
 -10325467.93749  -8044535.36346  20149335.9124   20149333.8854
      1211.6594
 04  9  2 22 36 44.9980000  0  8G19G 3G 8G13G10G28G23G27
 -11493269.57846  -8947603.22343  21888954.8734   21888950.7254
      1722.1414
  -3916795.61747  -4028467.77042  22545624.1314   22545623.6704
      -759.7944
 -17612162.47349 -13711125.43746  20635167.2564   20635165.9474
      2421.5344
  -1616255.98449  -1250767.08246  20213109.3814   20213106.8144
     -1245.4804
  -4991299.26647  -3882208.67242  22833744.9434   22833744.4124
      1594.7394
  -6571175.66048  -5110527.83243  22588277.2794   22588275.9164
      3658.1084
  11617759.859 5                  23084686.670
     -2882.676
 -10343592.62149  -8058658.49246  20145886.3894   20145884.7294
      1208.3124
 04  9  2 22 36 59.9980000  0  8G19G 3G 8G13G10G28G23G27
 -11518976.80947  -8967634.80543  21884063.3264   21884059.2564
      1713.8154
  -3905266.60247  -4019484.11342  22547818.1074   22547817.9244
      -768.6014
 -17648438.24249 -13739392.26246  20628264.0454   20628262.7604
      2418.3854
  -1597461.72749  -1236122.21146  20216685.9284   20216683.4204
     -1252.9514
  -5015082.46147  -3900741.03542  22829219.5144   22829218.7724
      1585.5464
  -6625993.29348  -5153242.84443  22577845.7954   22577844.6194
      3654.5094
  11661042.367 5                  23092923.897
     -2885.501
 -10361673.88349  -8072747.77746  20142445.8264   20142444.0454
      1205.4174
 04  9  2 22 37 14.9980000  0  8G19G 3G 8G13G10G28G23G27
 -11544557.07047  -8987567.46543  21879195.0614   21879191.4864
      1705.3514
  -3893603.69147  -4010396.13743  22550037.8974   22550037.4754
      -777.5274
 -17684665.08649 -13767620.94946  20621370.4044   20621368.9794
      2415.1234
  -1578553.68749  -1221388.67646  20220283.8344   20220281.5724
     -1260.5364
  -5038725.84047  -3919164.43742  22824719.8574   22824718.6974
      1576.2254
  -6680754.91448  -5195914.16442  22567424.6004   22567424.3184
      3650.7754
  11704368.914 4                  23101168.490
     -2888.436
 -10379709.80549  -8086801.74246  20139013.6784   20139012.2404
      1202.3954
 04  9  2 22 37 29.9980000  0  8G19G 3G 8G13G10G28G23G27
 -11570007.55946  -9007398.98843  21874351.2484   21874348.6474
      1696.6994
  -3881804.48847  -4001201.93742  22552283.0374   22552282.7684
      -786.6144
 -17720840.12949 -13795809.29746  20614486.3974   20614485.0184
      2411.6704
  -1559529.31649  -1206564.49646  20223904.1624   20223901.7094
     -1268.2914
  -5062226.68747  -3937476.76242  22820247.5454   22820247.5254
      1566.7234
  -6735457.63747  -5238539.60543  22557015.2954   22557014.1274
      3646.8484
  11747741.879 5                  23109422.186
     -2891.531
 -10397697.72349  -8100818.29746  20135591.0144   20135588.9044
      1199.1954
 04  9  2 22 37 44.9980000  0  8G19G 3G 8G13G10G28G23G27
 -11595328.85947  -9027129.85943  21869533.7014   21869529.7254
      1688.0874
  -3869870.03946  -3991902.35942  22554554.3574   22554553.3114
      -795.6304
 -17756964.21549 -13823957.91446  20607612.1074   20607610.9164
      2408.2724
  -1540389.51249  -1191650.37146  20227546.3264   20227544.0104
     -1275.9874
  -5085585.71147  -3955678.60242  22815802.7954   22815802.4084
      1557.2684
  -6790102.34848  -5281119.85243  22546616.7724   22546615.4394
      3642.9814
  11791160.250 6                  23117684.897
     -2894.558
 -10415638.34849  -8114797.99246  20132177.0614   20132174.8694
      1196.0424
 04  9  2 22 37 59.9980000  0  8G19G 3G 8G13G10G28G23G27
 -11620519.30546  -9046758.75843  21864740.0844   21864736.5684
      1679.3634
  -3857798.97747  -3982496.35542  22556851.6704   22556850.2324
      -804.7374
 -17793035.77049 -13852065.60546  20600747.9824   20600746.7684
      2404.7704
  -1521132.84049  -1176645.18746  20231211.0764   20231208.2754
     -1283.7784
  -5108801.34447  -3973768.71142  22811384.8034   22811384.3694
      1547.7094
  -6844687.30147  -5323653.53543  22536229.1864   22536228.4284
      3638.9974
  11834625.297 5                  23125954.623
     -2897.670
 -10433530.18449  -8128739.67646  20128772.1784   20128769.9754
      1192.7894
 04  9  2 22 38 14.9980000  0  8G19G 3G 8G13G10G28G23G27
 -11645581.40246  -9066287.63743  21859970.8894   21859967.2134
      1670.8074
  -3845594.20347  -3972986.14842  22559173.6864   22559173.1234
      -813.6524
 -17829057.25849 -13880134.28946  20593893.0764   20593892.1194
      2401.4334
  -1501762.23849  -1161551.21946  20234897.1704   20234894.3694
     -1291.3734
  -5131876.21547  -3991749.10942  22806993.7484   22806993.3034
      1538.3254
  -6899215.02747  -5366142.62543  22525853.2014   22525852.5334
      3635.1824
  11878133.965 4                  23134235.068
     -2900.578
 -10451375.84049  -8142645.37146  20125375.9594   20125374.5104
      1189.7104
 04  9  2 22 38 29.9980000  0  8G19G 3G 8G13G10G28G23G27
 -11670513.99247  -9085715.59043  21855226.3264   21855223.3344
      1662.1734
  -3833254.83247  -3963371.05942  22561522.3114   22561521.0414
      -822.6254
 -17865027.69549 -13908163.18446  20587048.5294   20587047.1194
      2398.0294
  -1482276.62549  -1146367.62946  20238604.8734   20238602.6434
     -1299.0414
  -5154809.12947  -4009618.90642  22802629.9594   22802629.8734
      1528.8614
  -6953684.35548  -5408586.19543  22515487.5064   22515486.8304
      3631.2894
  11921687.152 4                  23142522.936
     -2903.546
 -10469174.26249  -8156514.27046  20121989.1544   20121987.4164
      1186.5614
 04  9  2 22 38 44.9980000  0  8G19G 3G 8G13G10G28G23G27
 -11695313.92647  -9105040.18743  21850506.6544   21850503.3384
      1653.3294
  -3820778.20347  -3953649.04343  22563895.8344   22563894.4904
      -831.7754
 -17900944.32449 -13936150.16046  20580213.5144   20580212.3574
      2394.4424
  -1462673.50849  -1131092.47746  20242334.9904   20242333.2364
     -1306.8744
  -5177597.21947  -4027375.85543  22798293.6314   22798293.2094
      1519.2064
  -7008092.34448  -5450981.98443  22505134.0534   22505132.5884
      3627.1994
  11965287.379 4                  23150820.670
     -2906.682
 -10486922.52749  -8170344.07046  20118611.7644   20118609.9084
      1183.2184
 04  9  2 22 38 59.9980000  0  8G19G 3G 8G13G10G28G23G27
 -11719982.43047  -9124262.38743  21845812.6314   21845808.1934
      1644.5674
  -3808165.89847  -3943821.24642  22566296.0224   22566295.3854
      -840.8204
 -17936808.45749 -13964096.22746  20573388.9514   20573387.5684
      2390.9424
  -1442954.21949  -1115726.80946  20246087.8034   20246085.3504
     -1314.6194
  -5200241.71947  -4045020.91042  22793984.9434   22793984.0254
      1509.6334
  -7062440.09847  -5493330.84043  22494792.3114   22494791.3344
      3623.1844
  12008933.184 4                  23159125.225
     -2909.720
 -10504622.02749  -8184135.87546  20115243.6864   20115241.9944
      1179.9674
 04  9  2 22 39 14.9980000  0  8G19G 3G 8G13G10G28G23G27
 -11744519.65647  -9143382.30543  21841142.9434   21841139.8694
      1635.8154
  -3795418.41846  -3933888.16442  22568721.5224   22568720.9434
      -849.8324
 -17972620.27749 -13992001.53146  20566574.6234   20566572.8184
      2387.4554
  -1423119.29349  -1100271.02346  20249862.2874   20249860.0534
     -1322.3284
  -5222743.03147  -4062554.40642  22789702.6234   22789701.5104
      1500.0884
  -7116727.91447  -5535633.00843  22484461.5684   22484460.4284
      3619.1884
  12052623.828 4                  23167439.068
     -2912.710
 -10522272.99249  -8197889.87946  20111885.1474   20111883.1434
      1176.7314
 04  9  2 22 39 29.9980000  0  8G19G 3G 8G13G10G28G23G27
 -11768928.31647  -9162402.01243  21836498.5224   21836495.3614
      1627.2444
  -3782538.80947  -3923852.08642  22571172.1934   22571172.0534
      -858.6414
 -18008382.55549 -14019868.21946  20559768.6314   20559767.5724
      2384.1524
  -1403171.69949  -1084727.45346  20253658.0764   20253655.7364
     -1329.8404
  -5245104.08647  -4079978.59842  22785447.7724   22785445.9284
      1490.7374
  -7170958.50048  -5577890.56643  22474141.4984   22474140.7954
      3615.3724
  12096356.328 4                  23175760.982
     -2915.500
 -10539878.28949  -8211608.28146  20108534.6154   20108532.7954
      1173.6864
 04  9  2 22 39 44.9980000  0  8G19G 3G 8G13G10G28G23G27
 -11793208.61348  -9181321.70343  21831878.2254   21831874.5844
      1618.6864
  -3769527.71947  -3913713.59443  22573648.3574   22573648.3384
      -867.4064
 -18044096.00049 -14047696.85946  20552972.8114   20552971.0644
      2380.8964
  -1383112.02049  -1069096.54346  20257474.8814   20257473.1784
     -1337.3124
  -5267325.10547  -4097293.66042  22781219.3654   22781217.5024
      1481.4014
  -7225132.23847  -5620103.80943  22463832.5144   22463831.6114
      3611.5834
  12140129.770 4                  23184090.834
     -2918.229
 -10557438.43449  -8225291.50446  20105192.9124   20105191.2954
      1170.6764
 04  9  2 22 39 59.9980000  0  8G19G 3G 8G13G10G28G23G27
 -11817356.99648  -9200138.61743  21827283.4674   21827278.7014
      1609.8924
  -3756381.81647  -3903470.02743  22576150.9044   22576149.6074
      -876.3934
 -18079756.95349 -14075484.59846  20546186.8344   20546185.2254
      2377.3974
  -1362936.96549  -1053375.73046  20261314.2954   20261312.2794
     -1345.0044
  -5289402.66447  -4114496.95742  22777017.2794   22777016.1584
      1471.8374
  -7279245.41447  -5662269.87543  22453534.6784   22453534.6004
      3607.5454
  12183947.652 5                  23192427.928
     -2921.192
 -10574949.69149  -8238936.63346  20101860.8814   20101858.7954
      1167.4174
 04  9  2 22 40 14.9980000  0  8G19G 3G 8G13G10G28G23G27
 -11841377.59047  -9218855.95343  21822711.2794   21822708.7214
      1601.3734
  -3743105.59847  -3893124.92242  22578676.3814   22578674.7094
      -885.0814
 -18115369.63749 -14103234.73046  20539409.8344   20539408.0064
      2374.1794
  -1342650.91449  -1037568.41846  20265174.8264   20265172.4474
     -1352.4034
  -5311340.95747  -4131591.71142  22772843.0924   22772841.7364
      1462.5534
  -7333302.07047  -5704391.88343  22443248.1624   22443248.0334
      3603.7774
  12227805.492 5                  23200773.951
     -2923.856
 -10592416.47349  -8252547.10246  20098536.8344   20098534.7094
      1164.4524
 04  9  2 22 40 29.9980000  0  8G19G 3G 8G13G10G28G23G27
 -11865267.93048  -9237471.80544  21818165.7404   21818162.1354
      1592.6894
  -3729697.21947  -3882676.85242  22581228.3894   22581226.3694
      -893.8924
 -18150931.75049 -14130945.44946  20532642.7404   20532640.9474
      2370.8084
  -1322251.87949  -1021673.07846  20269056.5144   20269054.1314
     -1359.9364
  -5333137.75847  -4148576.21942  22768694.8114   22768694.5414
      1453.1204
  -7387299.98048  -5746468.13343  22432973.4754   22432971.8974
      3599.8614
  12271704.953 5                  23209127.857
     -2926.631
 -10609836.51649  -8266121.14846  20095222.0924   20095220.3184
      1161.3364
 04  9  2 22 40 44.9980000  0  8G19G 3G 8G13G10G28G23G27
 -11889028.59047  -9255986.59043  21813643.5924   21813640.7644
      1584.0444
  -3716157.30547  -3872126.28542  22583804.4044   22583803.7254
      -902.6614
 -18186443.93749 -14158617.26646  20525884.9824   20525882.8264
      2367.4794
  -1301740.59049  -1005690.26246  20272960.1864   20272957.5494
     -1367.4194
  -5354793.60247  -4165450.90242  22764574.1624   22764573.5254
      1443.7234
  -7441239.62147  -5788498.98843  22422708.3734   22422708.4754
      3595.9764
  12315645.230 5                  23217489.568
     -2929.352
 -10627210.45749  -8279659.28546  20091915.7564   20091913.7364
      1158.2634
 04  9  2 22 40 59.9980000  0  8G19G 3G 8G13G10G28G23G27
 -11912658.81648  -9274399.73844  21809147.7094   21809143.9944
      1575.3484
  -3702485.64847  -3861473.03143  22586406.1704   22586406.3144
      -911.4444
 -18221905.63749 -14186249.74646  20519136.6394   20519135.1074
      2364.1134
  -1281116.73049   -989619.71946  20276884.1074   20276882.4984
     -1374.9244
  -5376307.79747  -4182215.23042  22760480.3114   22760479.4634
      1434.2804
  -7495120.41848  -5830483.97343  22412455.4364   22412454.8934
      3592.0534
  12359626.715 6                  23225858.951
     -2932.099
 -10644537.65649  -8293160.98846  20088618.5144   20088616.4554
      1155.1474
 04  9  2 22 41 14.9980000  0  8G19G 3G 8G13G10G28G23G27
 -11936159.76648  -9292712.15644  21804675.4364   21804672.8144
      1566.7304
  -3688683.74247  -3850718.29743  22589032.7324   22589032.2724
      -920.1274
 -18257318.08249 -14213843.85246  20512398.0534   20512396.5644
      2360.8304
  -1260381.70349   -973462.57046  20280830.1544   20280827.9004
     -1382.3354
  -5397681.80947  -4198870.27342  22756412.4434   22756412.0724
      1424.9344
  -7548943.55947  -5872424.03543  22402212.8974   22402212.0064
      3588.2094
  12403647.781 5                  23234236.326
     -2934.738
 -10661819.43449  -8306627.30546  20085329.8344   20085327.9284
      1152.1184
 04  9  2 22 41 29.9980000  0  8G19G 3G 8G13G10G28G23G27
 -11959530.61748  -9310923.18744  21800227.9984   21800225.2524
      1558.0574
  -3674751.10947  -3839861.69943  22591684.1934   22591683.2834
      -928.8424
 -18292680.57449 -14241399.03146  20505668.8264   20505667.3504
      2357.4994
  -1239534.91449   -957218.32846  20284797.3574   20284795.0844
     -1389.7864
  -5418914.80147  -4215415.46942  22752372.6154   22752371.8034
      1415.5334
  -7602708.25847  -5914318.57843  22391982.1394   22391980.9674
      3584.3134
  12447708.843 6                  23242620.701
     -2937.404
 -10679055.12549  -8320057.70746  20082050.1784   20082048.3654
      1149.0464
 04  9  2 22 41 44.9980000  0  8G19G 3G 8G13G10G28G23G27
 -11982771.14548  -9329032.68044  21795804.9364   21795802.5374
      1549.3684
  -3660688.03547  -3828903.46142  22594359.7404   22594359.2214
      -937.5384
 -18327993.04349 -14268915.22346  20498948.9364   20498947.8034
      2354.1654
  -1218576.56249   -940887.15246  20288785.3264   20288782.8694
     -1397.2234
  -5440006.84847  -4231850.82442  22748359.3344   22748358.1394
      1406.1364
  -7656414.37947  -5956167.45343  22381762.6934   22381761.6274
      3580.4084
  12491809.547 6                  23251013.037
     -2940.047
 -10696244.67649  -8333452.15646  20078779.1704   20078776.8504
      1145.9704
 04  9  2 22 41 59.9980000  0  8G19G 3G 8G13G10G28G23G27
 -12005880.58648  -9347040.02744  21791408.0064   21791404.5144
      1540.6294
  -3646494.04747  -3817843.18042  22597061.1934   22597060.2834
      -946.2664
 -18363254.69549 -14296391.82046  20492238.5454   20492237.4944
      2350.7774
  -1197506.23849   -924468.73446  20292795.1074   20292792.4004
     -1404.6884
  -5460957.20347  -4248175.77342  22744372.2404   22744371.8034
      1396.6904
  -7710061.07847  -5997970.00443  22371553.7794   22371552.9904
      3576.4474
  12535950.410 6                  23259413.022
     -2942.724
 -10713387.35249  -8346810.08646  20075516.7724   20075514.9984
      1142.8454
 04  9  2 22 42 14.9980000  0  8G19G 3G 8G13G10G28G23G27
 -12028852.03948  -9364939.83644  21787036.4904   21787033.1864
      1531.4304
  -3632162.55148  -3806675.79342  22599788.0924   22599787.6354
      -955.4334
 -18398458.67649 -14323823.47746  20485539.7644   20485538.5104
      2346.9324
  -1176317.30549   -907957.86746  20296827.0534   20296824.7524
     -1412.5964
  -5481759.03947  -4264384.98442  22740413.0294   22740412.9944
      1386.7894
  -7763641.51247  -6039720.95343  22361357.8574   22361356.0024
      3572.0294
  12580137.91846   9791879.80151  23267821.7324   23267820.6934
     -2945.8344
 -10730476.39549  -8360126.21146  20072265.0844   20072262.9824
      1139.2704
 04  9  2 22 42 29.9980000  0  8G19G 3G 8G13G10G28G23G27
 -12051691.46148  -9382736.76644  21782690.5924   21782687.2754
      1522.6284
  -3617699.90647  -3795406.21542  22602539.9904   22602539.2644
      -964.1764
 -18433611.30149 -14351215.12146  20478850.4204   20478848.9634
      2343.5084
  -1155015.93449   -891359.41446  20300880.3264   20300878.3774
     -1420.0914
  -5502418.49247  -4280483.26242  22736482.1864   22736481.6354
      1377.2974
  -7817161.55547  -6081424.83643  22351173.7094   22351172.2404
      3568.0034
  12624365.71546   9826343.01241  23276238.4124   23276236.5844
     -2948.5204
 -10747517.79749  -8373405.22746  20069022.3114   20069020.4474
      1136.0934
 04  9  2 22 42 44.9980000  0  8G19G 3G 8G13G10G28G23G27
 -12074395.35548  -9400428.10244  21778370.0454   21778366.8504
      1513.5934
  -3603102.98447  -3784032.01242  22605317.6624   22605317.4364
      -973.1284
 -18468709.23449 -14378564.14146  20472171.5764   20472169.8694
      2339.8624
  -1133599.07049   -874670.95346  20304955.9824   20304953.4754
     -1427.7914
  -5522932.22347  -4296467.98442  22732578.2404   22732578.0804
      1367.5824
  -7870617.95347  -6123079.11743  22341000.2564   22340999.5254
      3563.7604
  12668636.94945   9860839.99241  23284662.0454   23284660.4824
     -2951.4164
 -10764508.39549  -8386644.65246  20065788.8974   20065787.2484
      1132.7074
 04  9  2 22 42 59.9980000  0  8G19G 3G 8G13G10G28G23G27
 -12096969.12147  -9418018.02044  21774073.8734   21774070.4164
      1504.9184
  -3588377.54747  -3772557.65642  22608120.0454   22608120.6044
      -981.6964
 -18503757.81249 -14405874.71946  20465502.4434   20465500.1704
      2336.5724
  -1112072.38749   -857896.92246  20309052.2324   20309050.0884
     -1435.1124
  -5543305.81247  -4312343.52742  22728702.2014   22728701.0294
      1358.2394
  -7924016.07047  -6164687.98443  22330839.7254   22330838.5534
      3559.8744
  12712945.73044   9895366.21941  23293093.3264   23293092.7054
     -2953.9194
 -10781453.55549  -8399848.66046  20062564.4824   20062562.4944
      1129.6774
 04  9  2 22 43 14.9980000  0  8G19G 3G 8G13G10G28G23G27
 -12119407.89147  -9435502.75844  21769803.6784   21769801.1394
      1495.9184
  -3573519.12947  -3760979.64142  22610947.6004   22610947.5494
      -990.5614
 -18538752.55149 -14433143.33246  20458842.6004   20458840.8614
      2332.9834
  -1090431.33649   -841033.77346  20313170.7874   20313167.8264
     -1442.7374
  -5563534.50847  -4328106.12142  22724852.5454   22724851.4434
      1348.5804
  -7977351.07046  -6206247.65643  22320689.2724   22320689.2994
      3555.6674
  12757296.41445   9929925.14141  23301534.0224   23301532.3934
     -2956.7124
 -10798348.52349  -8413013.57846  20059349.2094   20059347.6664
      1126.3314
 04  9  2 22 43 29.9980000  0  8G19G 3G 8G13G10G28G23G27
 -12141713.00847  -9452883.35944  21765559.4364   21765556.1824
      1487.0084
  -3558529.34447  -3749299.28142  22613799.6004   22613799.7094
      -999.3194
 -18573694.77349 -14460371.02746  20452193.4754   20452191.6194
      2329.4824
  -1068677.56649   -824082.78946  20317310.2174   20317308.1044
     -1450.2514
  -5583619.65247  -4343756.89143  22721029.9754   22721029.4824
      1339.0104
  -8030624.25047  -6247759.16443  22310552.1154   22310551.3854
      3551.5454
  12801687.35944   9964515.35241  23309980.0924   23309979.1114
     -2959.3964
 -10815194.86349  -8426140.59046  20056143.8034   20056141.6864
      1123.0894
 04  9  2 22 43 44.9980000  0  8G19G 3G 8G13G10G28G23G27
 -12163885.47348  -9470160.58244  21761340.7724   21761336.7564
      1478.1644
  -3543409.67248  -3737517.73842  22616677.7404   22616675.7914
     -1007.9784
 -18608585.53149 -14487558.60946  20445554.1544   20445552.3654
      2326.0514
  -1046812.37149   -807044.98446  20321471.1004   20321468.5184
     -1457.6804
  -5603562.47347  -4359296.72343  22717234.8574   22717234.7444
      1329.5214
  -8083836.71947  -6289223.35943  22300425.7484   22300424.2524
      3547.4984
  12846117.12945   9999135.87941  23318435.1154   23318434.0804
     -2961.9854
 -10831993.65649  -8439230.55146  20052946.8264   20052945.1504
      1119.9204
 04  9  2 22 43 59.9980000  0  8G19G 3G 8G13G10G28G23G27
 -12185922.88348  -9487332.57444  21757146.6864   21757143.0254
      1469.1614
  -3528158.05547  -3725633.35542  22619579.4674   22619578.0964
     -1016.7744
 -18643422.23449 -14514704.08246  20438924.9124   20438923.2054
      2322.4474
  -1024833.60949   -789918.68445  20325653.2174   20325650.9364
     -1465.2514
  -5623360.64146  -4374723.86342  22713467.7094   22713467.5334
      1319.8784
  -8136985.93447  -6330638.29343  22290312.2014   22290310.9634
      3543.2814
  12890587.71944  10033788.27741  23326898.0534   23326895.8304
     -2964.7064
 -10848742.52049  -8452281.60946  20049759.8974   20049757.5374
      1116.5914
 04  9  2 22 44 14.9980000  0  8G19G 3G 8G13G10G28G23G27
 -12207825.92648  -9504399.85244  21752978.5144   21752975.4984
      1460.2034
  -3512775.40647  -3713646.88342  22622506.8264   22622505.1354
     -1025.5104
 -18678205.99649 -14541808.29746  20432305.6934   20432304.4124
      2318.9174
  -1002742.19149   -772704.60546  20329857.3814   20329855.0254
     -1472.7614
  -5643014.87946  -4390038.85942  22709726.9364   22709727.2874
      1310.2834
  -8190072.69547  -6372004.54743  22280209.7724   22280208.8734
      3539.1174
  12935098.14545  10068471.69541  23335368.7014   23335366.4824
     -2967.3624
 -10865442.34449  -8465294.45746  20046581.8894   20046579.9244
      1113.3224
 04  9  2 22 44 29.9980000  0  8G19G 3G 8G13G10G28G23G27
 -12229593.54348  -9521361.62544  21748836.2254   21748833.0144
      1451.1744
  -3497261.16047  -3701557.87942  22625459.1314   22625458.1354
     -1034.2834
 -18712935.76249 -14568870.44146  20425696.6544   20425695.6114
      2315.3184
   -980537.51649   -755402.27046  20334082.7174   20334080.2364
     -1480.3124
  -5662524.42646  -4405241.10242  22706015.1934   22706014.6474
      1300.6364
  -8243095.94947  -6413321.31643  22270119.8264   22270118.9124
      3534.8844
  12979648.93845  10103186.54341  23343846.2324   23343844.4474
     -2970.0534
 -10882092.08649  -8478268.26246  20043413.3424   20043411.4634
      1109.9834
 04  9  2 22 44 44.9980000  0  8G19G 3G 8G13G10G28G23G27
 -12251227.35948  -9538219.12544  21744719.6394   21744716.2014
      1442.2544
  -3481617.32047  -3689367.90642  22628436.5534   22628435.0104
     -1042.9234
 -18747613.19949 -14595891.80946  20419097.6934   20419096.6354
      2311.8294
   -958221.46549   -738013.14146  20338329.0224   20338327.3384
     -1487.7374
  -5681890.96947  -4420331.89142  22702329.8504   22702328.6274
      1291.1034
  -8296057.35547  -6454589.87943  22260041.7954   22260041.0334
      3530.7604
  13024238.13746  10137931.25841  23352332.2174   23352329.9794
     -2972.6134
 -10898693.48449  -8491204.41446  20040254.2254   20040251.9284
      1106.7604
 04  9  2 22 44 59.9980000  0  8G19G 3G 8G13G10G28G23G27
 -12272728.56648  -9554973.29744  21740628.3504   21740624.9164
      1433.4144
  -3465845.41047  -3677078.10542  22631436.9984   22631436.5184
     -1051.4614
 -18782239.70749 -14622873.49246  20412508.2254   20412507.1744
      2308.4344
   -935795.57049   -720538.43446  20342596.7484   20342594.5334
     -1495.0604
  -5701115.87547  -4435312.34042  22698671.8344   22698669.9364
      1281.6604
  -8348958.17648  -6495811.25043  22249975.4044   22249973.6314
      3526.7214
  13068864.03146  10172704.62541  23360824.3504   23360822.6194
     -2975.0604
 -10915247.94549  -8504103.99246  20037104.0844   20037102.2174
      1103.6314
 04  9  2 22 45 14.9980000  0  8G19G 3G 8G13G10G28G23G27
 -12294093.93448  -9571621.62144  21736562.3894   21736559.6544
      1424.3584
  -3449942.55947  -3664686.25842  22634463.5534   22634462.7444
     -1060.1904
 -18816812.07049 -14649812.99246  20405929.8114   20405928.1154
      2304.8244
   -913256.82849   -702975.78145  20346885.4984   20346883.1114
     -1502.5834
  -5720195.94947  -4450179.93742  22695040.8424   22695039.7524
      1272.0054
  -8401795.10248  -6536982.84043  22239920.5684   22239919.7954
      3522.4624
  13113529.60946  10207508.84041  23369324.0144   23369321.5454
     -2977.7054
 -10931752.16449  -8516964.41846  20033963.4364   20033961.2834
      1100.2814
 04  9  2 22 45 29.9980000  0  8G19G 3G 8G13G10G28G23G27
 -12315323.76248  -9588164.31644  21732522.4124   21732519.3224
      1415.3224
  -3433909.39847  -3652192.87142  22637514.9514   22637513.9474
     -1068.8774
 -18851330.93749 -14676710.79746  20399361.1074   20399359.1934
      2301.2584
   -890605.93449   -685325.74246  20351196.2014   20351193.9004
     -1510.0604
  -5739131.67647  -4464935.03943  22691436.8814   22691436.1044
      1262.3824
  -8454568.52747  -6578104.94543  22229878.3574   22229876.6744
      3518.2284
  13158234.09046  10242343.44541  23377830.9044   23377827.9244
     -2980.2994
 -10948206.71549  -8529786.13746  20030832.2794   20030830.3424
      1096.9704
 04  9  2 22 45 44.9980000  0  8G19G 3G 8G13G10G28G23G27
 -12336419.62548  -9604602.63344  21728508.2014   21728504.4324
      1406.3914
  -3417747.91448  -3639599.51642  22640590.5294   22640589.3114
     -1077.4324
 -18885797.87149 -14703568.14146  20392801.8264   20392800.2364
      2297.7964
   -867844.84849   -667589.84845  20355527.5064   20355525.3034
     -1517.4064
  -5757924.77047  -4479579.00842  22687860.7174   22687860.1474
      1252.8734
  -8507280.13347  -6619178.84843  22219847.0454   22219845.0804
      3514.1074
  13202975.51245  10277206.84441  23386343.9364   23386341.4084
     -2982.7614
 -10964613.18049  -8542570.39546  20027710.2484   20027708.5764
      1093.7644
 04  9  2 22 45 59.9980000  0  8G19G 3G 8G13G10G28G23G27
 -12357376.75848  -9620932.85944  21724520.3974   21724517.0064
      1397.1424
  -3401453.69947  -3626902.75842  22643690.8574   22643689.5144
     -1086.2814
 -18920207.95349 -14730381.18046  20386253.7174   20386252.1544
      2294.0054
   -844968.86349   -649764.41446  20359880.7094   20359878.3694
     -1525.0664
  -5776570.39847  -4494108.06242  22684312.8814   22684312.1824
      1243.0424
  -8559925.00848  -6660200.76643  22209829.0924   22209827.2444
      3509.6584
  13247758.44944  10312102.02741  23394866.6234   23394863.1544
     -2985.5294
 -10980966.91849  -8555313.55947  20024598.6074   20024596.3854
      1090.2494
 04  9  2 22 46 14.9980000  0  8G19G 3G 8G13G10G28G23G27
 -12378197.62148  -9637156.87944  21720558.4044   21720554.7644
      1388.0584
  -3385029.71147  -3614104.85242  22646815.7874   22646814.3384
     -1094.9334
 -18954563.89149 -14757152.02746  20379716.1004   20379714.6314
      2290.3964
   -821980.85949   -631851.69546  20364254.9364   20364252.6004
     -1532.5344
  -5795071.30147  -4508524.34842  22680791.9594   22680791.8694
      1233.3934
  -8612505.69948  -6701172.70343  22199822.6314   22199821.9514
      3505.3794
  13292579.60244  10347026.87941  23403394.9984   23403393.1744
     -2988.0774
 -10997270.59049  -8568017.71546  20021495.5844   20021493.8344
      1086.9114
 04  9  2 22 46 29.9980000  0  7G19G 3G 8G13G10G28G27
 -12398885.68448  -9653277.43444  21716621.1314   21716617.0454
      1379.2044
  -3368479.53547  -3601208.62942  22649965.4044   22649964.0964
     -1103.3454
 -18988869.25449 -14783883.47746  20373188.0844   20373186.5414
      2287.0244
   -798884.55149   -613854.58645  20368650.2794   20368647.4634
     -1539.7544
  -5813431.07447  -4522830.64543  22677298.3814   22677298.4164
      1223.9854
  -8665025.71148  -6742097.33643  22189829.3734   22189827.4824
      3501.3344
 -11013527.57449  -8580685.49246  20018402.0844   20018400.0024
      1083.7994
 04  9  2 22 46 44.9980000  0  7G19G 3G 8G13G10G28G27
 -12419439.40648  -9669293.31644  21712709.9904   21712706.1744
      1370.2484
  -3351801.94147  -3588213.07042  22653139.1234   22653137.9514
     -1111.8404
 -19023122.34049 -14810574.18046  20366670.2794   20366668.4554
      2283.5394
   -775678.71549   -595772.11346  20373066.0924   20373063.4394
     -1547.0564
  -5831648.18748  -4537025.81243  22673832.1934   22673832.1394
      1214.4744
  -8717483.37948  -6782973.41043  22179846.9674   22179846.2174
      3497.1784
 -11029736.43449  -8593315.76646  20015317.7014   20015315.6704
      1080.5914
 04  9  2 22 46 59.9980000  0  7G19G 3G 8G13G10G28G27
 -12439856.35248  -9685202.61344  21708824.0764   21708821.5964
      1361.1304
  -3334994.96547  -3575116.76242  22656337.1314   22656336.1074
     -1120.4654
 -19057321.21149 -14837222.63746  20360162.1784   20360160.4904
      2279.9254
   -752361.29349   -577602.70745  20377503.5064   20377500.7324
     -1554.4954
  -5849720.40247  -4551108.05942  22670392.4984   22670392.6114
      1204.8144
  -8769876.34848  -6823799.05943  22169877.0764   22169875.5534
      3492.8654
 -11045894.91449  -8605906.77746  20012242.8344   20012241.2094
      1077.2324
 04  9  2 22 47 14.9980000  0  7G19G 3G 8G13G10G28G27
 -12460133.57048  -9701003.02744  21704966.3654   21704963.2834
      1351.8154
  -3318056.18047  -3561917.71142  22659560.6704   22659560.4594
     -1129.2524
 -19091462.71549 -14863826.39146  20353665.3654   20353663.4794
      2276.1004
   -728929.59449   -559344.24245  20381961.9204   20381959.9084
     -1562.1134
  -5867644.84847  -4565075.14542  22666982.4284   22666981.4944
      1194.9634
  -8822201.72748  -6864572.03143  22159919.6624   22159918.3614
      3488.3594
 -11062000.03149  -8618456.22346  20009177.8424   20009176.1154
      1073.6744
 04  9  2 22 47 29.9980000  0  7G19G 3G 8G13G10G28G27
 -12480270.85948  -9716694.40644  21701134.3814   21701131.1114
      1342.4864
  -3300985.73447  -3548616.05142  22662809.3344   22662809.2564
     -1138.0304
 -19125546.85249 -14890385.45346  20347179.4674   20347177.8264
      2272.2764
   -705383.73849   -540996.83246  20386442.7484   20386440.9434
     -1569.7244
  -5885421.65647  -4578927.19143  22663598.6234   22663598.4474
      1185.1214
  -8874459.40648  -6905292.25443  22149975.3504   22149974.4824
      3483.8454
 -11078051.88749  -8630964.16046  20006123.6074   20006121.5644
      1070.1244
 04  9  2 22 47 44.9980000  0  7G19G 3G 8G13G10G28G27
 -12500268.44948  -9732276.93744  21697328.9904   21697324.7094
      1333.1734
  -3283784.11348  -3535212.18042  22666082.8424   22666082.7174
     -1146.7754
 -19159574.11349 -14916900.19546  20340704.4824   20340702.4984
      2268.4844
   -681724.26649   -522560.89845  20390944.8424   20390943.2364
     -1577.2984
  -5903051.11747  -4592664.42242  22660244.1704   22660242.7914
      1175.2974
  -8926649.67248  -6945959.94143  22140043.8034   22140042.5574
      3479.3514
 -11094050.77749  -8643430.81246  20003079.0144   20003076.5104
      1066.5934
 04  9  2 22 47 59.9980000  0  7G19G 3G 8G13G10G28G27
 -12520128.35947  -9747752.18444  21693549.5064   21693545.3224
      1323.9944
  -3266453.77347  -3521707.99642  22669380.5374   22669379.7644
     -1155.3564
 -19193546.45749 -14943372.14146  20334239.7484   20334238.1274
      2264.8234
   -657953.52049   -504038.24645  20395468.3734   20395466.4984
     -1584.7164
  -5920535.41447  -4606288.56242  22656917.3734   22656916.1664
      1165.6204
  -8978774.39148  -6986576.57843  22130124.3814   22130123.8304
      3474.9814
 -11109998.87549  -8655857.89546  20000044.0684   20000042.3184
      1063.2074
 04  9  2 22 48 14.9980000  0  7G19G 3G 8G13G10G28G27
 -12539850.33248  -9763119.94144  21689796.8034   21689792.7094
      1314.7984
  -3248994.72747  -3508103.55542  22672702.4594   22672702.0224
     -1163.9364
 -19227463.52749 -14969801.01246  20327785.5374   20327783.7564
      2261.1384
   -634071.52349   -485428.92645  20400013.1314   20400011.1704
     -1592.1334
  -5937874.28548  -4619799.37143  22653617.7644   22653616.7094
      1155.9254
  -9030833.27348  -7027141.88344  22120218.5064   22120218.0644
      3470.5924
 -11125895.68449  -8668245.01646  19997019.2954   19997017.2014
      1059.7874
 04  9  2 22 48 29.9980000  0  7G19G 3G 8G13G10G28G27
 -12559435.48048  -9778381.09044  21686069.5614   21686066.4044
      1305.6774
  -3231408.41047  -3494399.93742  22676049.2954   22676048.8574
     -1172.4214
 -19261326.39549 -14996187.65646  20321341.4204   20321339.4984
      2257.5244
   -610079.55149   -466733.88346  20404578.2484   20404576.6544
     -1599.4654
  -5955068.96147  -4633197.80142  22650345.5294   22650344.4634
      1146.3124
  -9082827.53148  -7067656.83244  22110324.3344   22110323.1274
      3466.2844
 -11141742.53549  -8680593.20347  19994004.1624   19994001.6474
      1056.4574
 04  9  2 22 48 44.9980000  0  7G19G 3G 8G13G10G28G27
 -12578880.67248  -9793533.16444  21682368.8654   21682365.8814
      1296.3464
  -3213692.00847  -3480594.98442  22679420.2324   22679419.6584
     -1181.0934
 -19295132.22749 -15022529.84446  20314908.7014   20314906.4044
      2253.7224
   -585974.95349   -447951.08645  20409165.2404   20409163.6354
     -1606.9734
  -5972116.45347  -4646481.55943  22647101.5764   22647100.7174
      1136.4994
  -9134753.99248  -7108118.97743  22100442.8574   22100441.1504
      3461.7644
 -11157536.33649  -8692900.05546  19990997.8424   19990996.2364
      1052.9204
 04  9  2 22 48 59.9980000  0  7G19G 3G 8G13G10G28G27
 -12598189.40648  -9808578.93444  21678694.9754   21678691.6234
      1287.2494
  -3195849.56647  -3466691.78142  22682816.1154   22682814.6434
     -1189.4964
 -19328884.78549 -15048830.53546  20308485.4754   20308483.4594
      2250.1714
   -561761.31649   -429083.32445  20413773.2404   20413771.4754
     -1614.2424
  -5989020.38747  -4659653.44543  22643884.7794   22643884.2214
      1126.9294
  -9186616.16048  -7148531.01643  22090573.7724   22090572.1704
      3457.4784
 -11173280.66049  -8705168.35246  19988002.0844   19988000.3144
      1049.6224
 04  9  2 22 49 14.9980000  0  7G19G 3G 8G13G10G28G27
 -12617362.65647  -9823519.11744  21675046.7874   21675043.1584
      1278.2174
  -3177882.37548  -3452691.37942  22686235.1074   22686234.1504
     -1197.8134
 -19362584.97749 -15075090.40646  20302072.4594   20302070.5144
      2246.6794
   -537440.05549   -410131.70345  20418401.2724   20418399.3774
     -1621.4174
  -6005782.02048  -4672714.46143  22640694.6864   22640694.5924
      1117.4424
  -9238415.17247  -7188893.85243  22080716.3734   22080714.3144
      3453.2674
 -11188976.82449  -8717399.12946  19985015.1394   19985013.1704
      1046.4114
 04  9  2 22 49 29.9980000  0  7G19G 3G 8G13G10G28G27
 -12636400.50848  -9838353.79744  21671423.7014   21671420.3654
      1269.1904
  -3159790.92247  -3438594.15242  22689677.3184   22689677.1044
     -1206.0974
 -19396232.74649 -15101309.43446  20295669.5454   20295667.6584
      2243.1854
   -513011.62549   -391096.58246  20423049.7564   20423048.5334
     -1628.5624
  -6022401.48447  -4685664.70343  22637532.9824   22637532.0494
      1107.9644
  -9290151.05148  -7229207.47343  22070871.6234   22070869.9904
      3449.0594
 -11204624.83649  -8729592.37546  19982037.2724   19982035.7604
      1043.2014
 04  9  2 22 49 44.9980000  0  7G19G 3G 8G13G10G28G27
 -12655301.83647  -9853082.08244  21667826.7644   21667823.2794
      1260.0894
  -3141574.50847  -3424399.54742  22693144.2254   22693143.7094
     -1214.4284
 -19429827.16849 -15127486.90246  20289276.5614   20289274.7914
      2239.6284
   -488475.11749   -371977.23445  20427719.3574   20427717.5184
     -1635.7674
  -6038877.73447  -4698503.32843  22634397.1864   22634396.4284
      1098.4174
  -9341822.47348  -7269470.88343  22061038.4824   22061037.5144
      3444.7614
 -11220223.62149  -8741747.26646  19979069.0224   19979067.4824
      1039.9194
 04  9  2 22 49 59.9980000  0  7G19G 3G 8G13G10G28G27
 -12674061.58648  -9867700.07044  21664256.9904   21664253.2294
      1250.6504
  -3123228.22747  -3410103.76642  22696636.1624   22696635.0224
     -1223.0854
 -19463363.29349 -15153618.93746  20282895.0534   20282893.2324
      2235.7424
   -463825.75849   -352769.95746  20432409.6934   20432407.6114
     -1643.2914
  -6055205.79747  -4711226.49243  22631290.2644   22631289.7834
      1088.5384
  -9393424.46148  -7309680.18043  22051218.4284   22051217.5374
      3440.1334
 -11235768.02349  -8753859.77746  19976111.4364   19976109.1864
      1036.2934
 04  9  2 22 50 14.9980000  0  7G19G 3G 8G13G10G28G27
 -12692687.40248  -9882213.68744  21660712.5374   21660709.5224
      1241.7214
  -3104760.26647  -3395713.14142  22700149.2094   22700148.8654
     -1231.1974
 -19496848.80549 -15179711.53546  20276523.0684   20276521.1974
      2232.3674
   -439071.60249   -333481.00845  20437119.8654   20437118.1044
     -1650.2774
  -6071393.54348  -4723840.31242  22628210.2954   22628208.9634
      1079.1834
  -9444964.83648  -7349841.47743  22041410.9904   22041409.9044
      3436.0254
 -11251265.97349  -8765936.10246  19973162.1004   19973160.2404
      1033.1974
 04  9  2 22 50 29.9980000  0  7G19G 3G 8G13G10G28G27
 -12711177.84048  -9896621.79344  21657193.9824   21657190.7604
      1232.6964
  -3086169.27748  -3381226.67242  22703688.2174   22703686.7724
     -1239.3994
 -19530282.33649 -15205763.62546  20270160.6474   20270158.7684
      2228.9024
   -414211.23849   -314109.33245  20441851.4674   20441848.9324
     -1657.3584
  -6087439.57847  -4736343.70742  22625156.7014   22625155.2684
      1069.7364
  -9496441.92648  -7389953.44944  22031615.7094   22031614.2604
      3431.8064
 -11266715.89549  -8777974.99646  19970221.7724   19970219.9514
      1029.9954
 04  9  2 22 50 44.9980000  0  7G19G 3G 8G13G10G28G27
 -12729533.64548  -9910925.01644  21653700.1544   21653697.5494
      1223.7204
  -3067456.45747  -3366645.28542  22707248.6234   22707247.1354
     -1247.5214
 -19563664.62549 -15231775.78546  20263808.2954   20263806.3344
      2225.4864
   -389245.90649   -294655.82845  20446601.9124   20446600.4944
     -1664.3554
  -6103344.88348  -4748737.42643  22622129.2724   22622128.2324
      1060.3544
  -9547856.68048  -7430016.84444  22021831.3574   22021829.9634
      3427.6504
 -11282118.86349  -8789977.30946  19967290.8814   19967289.1044
      1026.8654
 04  9  2 22 50 59.9980000  0  7G19G 3G 8G13G10G28G27
 -12747753.88348  -9925122.58644  21650234.0684   21650230.3694
      1214.6834
  -3048621.45747  -3351968.64542  22710833.0534   22710831.3424
     -1255.6674
 -19596994.96949 -15257747.46146  20257465.6004   20257463.1934
      2222.0234
   -364174.98449   -275120.06245  20451372.6004   20451371.0574
     -1671.3954
  -6119108.62947  -4761020.89143  22619129.6624   22619129.0414
      1050.9164
  -9599208.12148  -7470030.91043  22012059.3734   22012058.3654
      3423.4294
 -11297473.84449  -8801942.22346  19964368.7094   19964367.1744
      1023.6654
 04  9  2 22 51 14.9980000  0  7G19G 3G 8G13G10G28G27
 -12765837.84448  -9939213.98044  21646792.4204   21646789.0294
      1205.5974
  -3029663.80547  -3337196.46142  22714440.0844   22714439.3504
     -1263.8434
 -19630272.74649 -15283678.18746  20251132.8814   20251131.0184
      2218.5184
   -338998.05549   -255501.67645  20456163.1864   20456161.8424
     -1678.4624
  -6134730.18747  -4773193.52342  22616156.6234   22616156.6314
      1041.4374
  -9650495.49648  -7509995.04343  22002300.1234   22002299.1824
      3419.1584
 -11312780.28149  -8813869.30546  19961456.2094   19961454.2444
      1020.4294
 04  9  2 22 51 29.9980000  0  7G19G 3G 8G13G10G28G27
 -12783786.44948  -9953199.88344  21643377.0764   21643373.4594
      1196.5744
  -3010584.62147  -3322329.58642  22718071.0614   22718070.0964
     -1271.9464
 -19663498.75049 -15309568.56246  20244810.3974   20244808.8894
      2215.0674
   -313716.10249   -235801.48445  20460974.7324   20460973.0374
     -1685.4644
  -6150210.43447  -4785256.07043  22613211.3114   22613210.6234
      1032.0164
  -9701719.66448  -7549909.96143  21992551.9434   21992550.4004
      3414.9454
 -11328039.00049  -8825759.21546  19958552.4434   19958550.8184
      1017.2484
 04  9  2 22 51 44.9970000  0  7G19G 3G 8G13G10G28G27
 -12801598.47748  -9967079.38345  21639987.4314   21639983.7314
      1187.4684
  -2991385.60247  -3307369.31642  22721724.6654   22721723.9074
     -1279.9354
 -19696670.92249 -15335417.00046  20238497.7824   20238496.0404
      2211.4784
   -288331.26249   -216021.10245  20465805.3924   20465803.2554
     -1692.3234
  -6165548.60547  -4797207.89143  22610292.6884   22610292.2474
      1022.5454
  -9752877.27348  -7589772.97743  21982816.8064   21982816.5674
      3410.5074
 -11343249.05949  -8837611.20746  19955658.1654   19955656.3684
      1014.0044
 04  9  2 22 51 59.9970000  0  7G19G 3G 8G13G10G28G27
 -12819275.66448  -9980853.79745  21636623.6574   21636620.3994
      1178.4794
  -2972063.83647  -3292313.39542  22725401.5404   22725400.7784
     -1288.1184
 -19729792.81249 -15361226.26246  20232194.8604   20232193.5284
      2208.1264
   -262839.78949   -196157.61345  20470656.2044   20470653.7594
     -1699.4324
  -6180746.23848  -4809050.16842  22607400.4784   22607399.2284
      1013.1764
  -9803974.40248  -7629588.89843  21973093.7674   21973092.4194
      3406.4754
 -11358411.98049  -8849426.46547  19952772.8764   19952770.7944
      1010.8614
 04  9  2 22 52 14.9970000  0  7G19G 3G 8G13G10G28G27
 -12836814.98048  -9994520.77045  21633286.2744   21633282.7714
      1169.2884
  -2952619.18747  -3277161.71942  22729100.7904   22729100.9624
     -1296.3104
 -19762860.37149 -15386993.18046  20225902.1344   20225900.5604
      2204.5044
   -237241.69549   -176211.06645  20475527.4784   20475525.2824
     -1706.5404
  -6195800.48048  -4820780.77343  22604535.4704   22604535.0754
      1003.6164
  -9855005.78948  -7669353.55144  21963382.7674   21963382.2314
      3402.0924
 -11373524.83249  -8861202.71146  19949896.7594   19949894.9974
      1007.5234
 04  9  2 22 52 29.9970000  0  7G19G 3G 8G13G10G28G27
 -12854215.92248 -10008079.94145  21629974.8064   21629970.6104
      1160.0634
  -2933051.63348  -3261914.29343  22732824.8844   22732824.9854
     -1304.5044
 -19795873.32849 -15412717.55546  20219620.0714   20219618.5874
      2200.8644
   -211536.96149   -156181.41045  20480419.0094   20480416.9424
     -1713.6494
  -6210711.25047  -4832399.54742  22601698.1814   22601696.8764
       994.0514
  -9905970.96948  -7709066.62544  21953684.3064   21953683.3134
      3397.6794
 -11388587.35549  -8872939.73846  19947030.2594   19947028.7044
      1004.1684
 04  9  2 22 52 44.9970000  0  7G19G 3G 8G13G10G28G27
 -12871478.82847 -10021531.54345  21626689.8684   21626686.2124
      1150.8604
  -2913361.76648  -3246571.55142  22736572.1264   22736571.3884
     -1312.6584
 -19828832.23449 -15438399.80946  20213348.3604   20213346.6034
      2197.2604
   -185726.19549   -136069.13745  20485330.6964   20485328.5954
     -1720.7184
  -6225478.88747  -4843906.78543  22598888.1574   22598886.5874
       984.5094
  -9956870.32848  -7748728.42244  21943998.4234   21943996.9274
      3393.2914
 -11403599.96949  -8884637.87546  19944173.7594   19944172.0874
      1000.8414
 04  9  2 22 52 59.9970000  0  7G19G 3G 8G13G10G28G27
 -12888605.85948 -10034877.26245  21623430.7744   21623427.1184
      1141.8024
  -2893552.06648  -3231135.44142  22740341.4074   22740340.7164
     -1320.6474
 -19861739.27349 -15464041.64146  20207086.1964   20207084.8214
      2193.8034
   -159811.71149   -115876.05145  20490261.7514   20490260.0954
     -1727.6324
  -6240105.58647  -4855304.20342  22596104.6424   22596104.1924
       975.1134
 -10007705.93448  -7788340.55943  21934324.9544   21934323.5214
      3389.0404
 -11418564.68449  -8896298.69946  19941326.0014   19941324.2164
       997.6484
 04  9  2 22 53 14.9970000  0  7G19G 3G 8G13G10G28G27
 -12905592.87948 -10048113.89145  21620198.0404   21620194.6694
      1132.4684
  -2873618.75848  -3215603.00442  22744134.2984   22744134.5674
     -1328.8874
 -19894589.96149 -15489639.57446  20200835.0404   20200833.3724
      2190.0464
   -133789.80549    -95599.26245  20495213.9154   20495211.5014
     -1734.7944
  -6254587.39547  -4866588.74643  22593349.0714   22593348.0134
       965.4544
 -10058473.73848  -7827899.85544  21924664.0634   21924661.8924
      3384.5204
 -11433477.48049  -8907919.05946  19938488.0174   19938486.5014
       994.1864
 04  9  2 22 53 29.9970000  0  7G19G 3G 8G13G10G28G27
 -12922441.48848 -10061242.65644  21616992.0014   21616988.3964
      1123.2414
  -2853563.85948  -3199975.80142  22747951.1654   22747950.0134
     -1336.9934
 -19927386.27749 -15515195.12946  20194594.2824   20194592.5054
      2186.4214
   -107662.36749    -75240.23045  20500186.1344   20500183.9974
     -1741.8294
  -6268926.13347  -4877761.77743  22590620.6494   22590619.7554
       955.9164
 -10109175.23448  -7867407.50043  21915016.1034   21915013.8644
      3380.1004
 -11448340.11349  -8919500.32446  19935659.7674   19935658.3294
       990.8424
 04  9  2 22 53 44.9970000  0  7G19G 3G 8G13G10G28G27
 -12939155.52048 -10074266.56244  21613810.9464   21613808.0994
      1114.2694
  -2833391.51247  -3184257.11343  22751789.0404   22751788.5324
     -1344.8234
 -19960132.10249 -15540711.34446  20188362.7904   20188361.1034
      2183.0554
    -81433.38749    -54802.07045  20505176.9784   20505174.6184
     -1748.5994
  -6283125.61348  -4888826.31643  22587918.6884   22587917.4854
       946.6324
 -10159814.40248  -7906866.52743  21905379.0874   21905378.2634
      3375.9454
 -11463156.30149  -8931045.39547  19932840.3994   19932838.5754
       987.7464
 04  9  2 22 53 59.9970000  0  7G19G 3G 8G13G10G28G27
 -12955732.53548 -10087183.69544  21610656.8604   21610652.6034
      1105.1344
  -2813099.71948  -3168445.33243  22755650.8994   22755650.5214
     -1352.7864
 -19992825.05149 -15566186.36746  20182141.4314   20182139.9544
      2179.5304
    -55100.80149    -34283.18445  20510187.8534   20510185.3884
     -1755.5064
  -6297183.64148  -4899780.62142  22585243.2674   22585242.7394
       937.2024
 -10210388.62548  -7946274.98443  21895755.5564   21895754.2634
      3371.6154
 -11477923.84849  -8942552.57846  19930030.1104   19930028.2284
       984.5034
 04  9  2 22 54 14.9970000  0  7G19G 3G 8G13G10G28G27
 -12972170.21948 -10099992.27344  21607528.8844   21607524.8644
      1095.8464
  -2792686.44148  -3152538.89142  22759535.4784   22759535.2784
     -1360.8854
 -20025462.68049 -15591618.25846  20175930.5634   20175929.0014
      2175.8424
    -28662.51248    -13681.94145  20515218.4074   20515216.7284
     -1762.5534
  -6311097.97347  -4910622.96543  22582594.9234   22582594.9744
       927.6224
 -10260895.53948  -7985630.98843  21886144.1964   21886142.5404
      3367.1284
 -11492640.23449  -8954019.88746  19927229.8924   19927227.8294
       981.0924
 04  9  2 22 54 29.9970000  0  7G19G 3G 8G13G10G28G27
 -12988467.60548 -10112691.51644  21604427.1964   21604423.8994
      1086.4924
  -2772151.06647  -3136537.28543  22763443.4234   22763442.9854
     -1369.0254
 -20058043.98049 -15617006.28546  20169730.7354   20169728.9074
      2172.0874
     -2117.84449      7002.19945  20520270.4234   20520267.6694
     -1769.6454
  -6324867.75447  -4921352.66443  22579975.1964   22579974.1034
       917.9854
 -10311334.35248  -8024933.89144  21876546.3764   21876544.8254
      3362.5884
 -11507304.61349  -8965446.68046  19924439.3454   19924437.4234
       977.6254
 04  9  2 22 54 44.9970000  0  7G19G 3G 8G13G10G28G27
 -13004624.46548 -10125281.26244  21601352.1734   21601349.3064
      1077.1244
  -2751493.66448  -3120440.61343  22767374.8454   22767373.0244
     -1377.1604
 -20090569.09848 -15642350.52046  20163541.3374   20163539.9624
      2168.3414
     24533.16848     27769.21945  20525341.7434   20525339.4814
     -1776.7344
  -6338492.96947  -4931969.69942  22577382.1034   22577381.3254
       908.3484
 -10361704.68048  -8064183.44544  21866960.8534   21866959.3104
      3358.0224
 -11521916.86349  -8976832.83646  19921658.6344   19921656.4854
       974.1504
 04  9  2 22 54 59.9970000  0  7G19G 3G 8G13G10G28G27
 -13020641.48048 -10137762.03544  21598304.7354   21598301.1694
      1067.8014
  -2730715.27747  -3104249.67643  22771329.1264   22771327.8214
     -1385.2264
 -20123038.52748 -15667651.37546  20157362.6424   20157361.0834
      2164.6294
     51289.44148     48618.25445  20530433.4784   20530431.4384
     -1783.7524
  -6351974.41447  -4942474.71943  22574816.4854   22574815.6614
       898.7634
 -10412007.25848  -8103380.23044  21857388.9624   21857387.3374
      3353.5054
 -11536477.73849  -8988178.96946  19918887.6424   19918885.8334
       970.7254
 04  9  2 22 55 14.9970000  0  7G19G 3G 8G13G10G28G27
 -13036516.87548 -10150132.46544  21595283.7044   21595280.0634
      1058.3604
  -2709814.38347  -3087963.28942  22775306.2514   22775305.2434
     -1393.3934
 -20155450.41849 -15692907.37946  20151194.8994   20151193.3024
      2160.7934
     78152.65648     69550.62545  20535544.8534   20535543.2164
     -1790.8814
  -6365310.31247  -4952866.33242  22572279.3214   22572278.4034
       889.0604
 -10462240.18748  -8142522.73044  21847829.7904   21847827.8104
      3348.8624
 -11550985.39149  -8999483.63346  19916127.0174   19916125.1184
       967.1774
 04  9  2 22 55 29.9970000  0  7G19G 3G 8G13G10G28G27
 -13052251.29348 -10162393.02744  21592289.8534   21592285.4814
      1048.9614
  -2688791.96147  -3071582.18042  22779305.9544   22779305.3534
     -1401.4954
 -20187805.61749 -15718119.21546  20145037.8684   20145036.6854
      2157.0134
    105121.77048     90565.50045  20540677.5094   20540675.5484
     -1797.9414
  -6378501.43047  -4963145.11342  22569768.8994   22569768.4504
       879.4084
 -10512404.04348  -8181611.42244  21838283.2514   21838282.0244
      3344.2574
 -11565440.52049  -9010747.36346  19913376.3134   19913374.6464
       963.6754
 04  9  2 22 55 44.9970000  0  7G19G 3G 8G13G10G28G27
 -13067848.13348 -10174546.39844  21589321.6964   21589318.1854
      1039.7894
  -2667651.97747  -3055109.48842  22783328.2984   22783327.9424
     -1409.3324
 -20220107.50449 -15743289.50046  20138891.2904   20138889.7244
      2153.4594
    132192.93448    111659.88345  20545828.6184   20545827.2124
     -1804.7444
  -6391551.43448  -4973313.96543  22567285.2824   22567285.1264
       870.0004
 -10562502.39848  -8220649.05144  21828750.7284   21828748.3764
      3339.8904
 -11579846.57449  -9021972.86346  19910634.7514   19910632.9424
       960.4044
 04  9  2 22 55 59.9970000  0  7G19G 3G 8G13G10G28G27
 -13083300.45748 -10186587.16044  21586380.7124   21586377.4154
      1030.1554
  -2646387.80147  -3038539.99242  22787374.9074   22787374.0214
     -1417.6124
 -20252349.14148 -15768412.85546  20132756.0244   20132754.2084
      2149.4424
    159372.88348    132839.05545  20551000.4464   20550998.8174
     -1811.9974
  -6404453.52348  -4983367.54343  22564830.0874   22564829.5244
       860.1394
 -10612528.25849  -8259630.20744  21819230.7514   21819228.9034
      3335.0574
 -11594196.66849  -9033154.74646  19907904.4154   19907902.5714
       956.6734
 04  9  2 22 56 14.9970000  0  7G19G 3G 8G13G10G28G27
 -13098613.87148 -10198519.66844  21583467.0244   21583463.1694
      1020.8944
  -2625005.37947  -3021878.36742  22791443.3604   22791443.7594
     -1425.4954
 -20284536.23848 -15793493.69546  20126630.5794   20126629.1814
      2145.8074
    186655.95349    154098.57845  20556192.4464   20556190.4624
     -1818.8714
  -6417213.28148  -4993310.20342  22562401.8764   22562402.2514
       850.6514
 -10662487.12148  -8298559.16044  21809724.3064   21809721.9314
      3330.5914
 -11608496.36349  -9044297.36746  19905183.1574   19905181.0874
       953.3134
 04  9  2 22 56 29.9970000  0  7G19G 3G 8G13G10G28G27
 -13113782.10248 -10210339.07844  21580580.5634   21580577.0914
      1011.2154
  -2603498.73447  -3005119.95742  22795536.2594   22795535.8924
     -1433.7764
 -20316662.57048 -15818527.19546  20120517.0874   20120515.6034
      2141.7554
    214048.03548    175443.05545  20561404.9624   20561403.2514
     -1826.1394
  -6429824.71548  -5003137.28943  22560002.6574   22560001.7244
       840.7624
 -10712372.80148  -8337431.08244  21800230.9234   21800228.9894
      3325.7124
 -11622739.53949  -9055395.93746  19902472.7044   19902470.8024
       949.5454
 04  9  2 22 56 44.9970000  0  7G19G 3G 8G13G10G28G27
 -13128808.15648 -10222047.68744  21577720.9934   21577717.5134
      1001.7374
  -2581871.24247  -2988267.39142  22799652.6034   22799652.2044
     -1441.8334
 -20348731.03948 -15843515.61346  20114414.5484   20114413.1814
      2137.8984
    241545.73848    196869.81645  20566637.9314   20566635.8804
     -1833.1804
  -6442290.88748  -5012851.17642  22557629.5564   22557629.2514
       831.0784
 -10762188.28548  -8376248.29344  21790751.0874   21790749.5404
      3321.0324
 -11636929.05949  -9066452.71547  19899772.6184   19899770.6534
       945.9684
 04  9  2 22 56 59.9970000  0  7G19G 3G 8G13G10G28G27
 -13143692.88348 -10233646.16044  21574888.9234   21574885.7714
       992.3154
  -2560124.15647  -2971321.61342  22803790.0484   22803791.2124
     -1449.8064
 -20380742.61749 -15868459.68446  20108322.9704   20108321.6924
      2134.1054
    269147.94149    218378.01245  20571890.3684   20571888.4664
     -1840.1474
  -6454612.90248  -5022452.75842  22555286.1814   22555284.5484
       821.4684
 -10811934.33248  -8415011.39844  21781284.5324   21781282.8494
      3316.4034
 -11651065.88349  -9077468.42247  19897082.4704   19897080.7124
       942.4554
 04  9  2 22 57 14.9970000  0  7G19G 3G 8G13G10G28G27
 -13158435.34048 -10245133.76644  21572083.5174   21572079.9194
       982.8304
  -2538256.81247  -2954282.12942  22807951.8844   22807952.4074
     -1457.8234
 -20412696.28149 -15893358.64146  20102242.7594   20102241.0404
      2130.2444
    296855.35249    239968.18845  20577162.4544   20577161.3134
     -1847.1614
  -6466789.85248  -5031941.28142  22552968.1814   22552967.4194
       811.7974
 -10861609.92248  -8453719.61744  21771831.6344   21771830.1494
      3311.7064
 -11665149.17249  -9088442.40246  19894402.5174   19894400.5564
       938.8864
 04  9  2 22 57 29.9970000  0  7G19G 3G 8G13G10G28G27
 -13173038.65648 -10256512.96544  21569304.6884   21569301.0954
       973.5544
  -2516272.78947  -2937151.72742  22812135.5794   22812135.4504
     -1465.6024
 -20444595.05149 -15918214.81246  20096172.6034   20096171.0564
      2126.5854
    324664.59448    261637.70345  20582454.8294   20582453.6574
     -1853.9494
  -6478825.00848  -5041319.34443  22550678.1104   22550677.3454
       802.3444
 -10911218.19548  -8492375.36744  21762391.6734   21762390.0054
      3307.2184
 -11679181.85949  -9099376.96546  19891732.3924   19891730.4584
       935.5134
 04  9  2 22 57 44.9970000  0  7G19G 3G 8G13G10G28G27
 -13187500.75848 -10267782.11744  21566552.2044   21566549.1534
       964.1404
  -2494170.25447  -2919929.00042  22816341.0564   22816341.7904
     -1473.5024
 -20476437.02749 -15943026.74246  20090113.2434   20090111.5874
      2122.7984
    352577.52048    283388.00445  20587766.3684   20587764.8374
     -1860.8624
  -6490716.34048  -5050585.30142  22548415.4934   22548414.3494
       792.7554
 -10960757.05548  -8530977.03543  21752964.1184   21752963.5214
      3302.5914
 -11693162.09049  -9110270.64846  19889071.6814   19889069.6734
       932.0154
 04  9  2 22 57 59.9970000  0  7G19G 3G 8G13G10G28G27
 -13201817.46948 -10278937.97344  21563827.3064   21563824.4424
       954.4474
  -2471945.30947  -2902610.88342  22820570.1814   22820570.2394
     -1481.6634
 -20508217.94549 -15967791.08246  20084065.1344   20084063.9544
      2118.7284
    380598.00049    305222.12945  20593098.9784   20593096.9784
     -1868.0324
  -6502459.91448  -5059736.16042  22546180.8994   22546179.8884
       782.9054
 -11010222.17248  -8569521.23844  21743551.5014   21743549.9664
      3297.6744
 -11707085.52049  -9121120.05946  19886422.0324   19886420.4114
       928.2294
 04  9  2 22 58 14.9970000  0  7G19G 3G 8G13G10G28G27
 -13215991.10948 -10289982.35944  21561130.2124   21561127.5134
       944.9094
  -2449600.69947  -2885199.49642  22824822.5404   22824821.3684
     -1489.6414
 -20539940.14849 -15992509.67246  20078028.5014   20078027.1494
      2114.8144
    408723.33649    327137.96145  20598450.9544   20598448.6694
     -1875.0224
  -6514058.17247  -5068773.74242  22543973.1574   22543971.9314
       773.2174
 -11059616.00048  -8608009.88744  21734151.8844   21734150.7904
      3292.9224
 -11720954.62949  -9131927.16446  19883782.9234   19883780.9784
       924.6074
 04  9  2 22 58 29.9970000  0  7G19G 3G 8G13G10G28G27
 -13230024.56648 -10300917.50044  21558459.8764   21558456.5834
       935.5644
  -2427139.62947  -2867697.39142  22829097.2744   22829095.4314
     -1497.4054
 -20571606.62149 -16017184.84446  20072003.1184   20072001.3924
      2111.0984
    436950.34449    349133.01645  20603822.5794   20603819.8254
     -1881.8014
  -6525514.20747  -5077700.53942  22541793.3214   22541792.0444
       763.7364
 -11108941.41448  -8646445.25043  21724765.7984   21724764.1654
      3288.3614
 -11734772.41049  -9142694.25847  19881153.2514   19881151.5134
       921.1854
